[[{"header":{"parameterUnit":"m.s-1","parameterCategory":1,"la1":30.6,"la2":29.2853,"lo1":-89.7004,"lo2":-87.6739,"dy":0.0162,"dx":0.0183,"nx":112,"ny":82,"refTime":"2026-05-13T00:00:00:Z","depth":0,"parameterNumber":2,"parameterNumberName":"U-component_of_WINDS"},"data":[0.0,0.0,0.0,0.0,0.0,0.0,0.0,0.0,0.0,0.0,0.0,0.0,0.0,0.0,0.0,0.0,0.0,0.0,0.0,0.0,0.0,0.0,0.0,0.0,0.0,0.0,0.0,0.0,0.0,0.0,0.0,0.0,0.0,0.0,0.0,0.0,0.0,0.0,0.0,0.0,0.0,0.0,0.0,0.0,0.0,0.0,0.0,0.0,0.0,0.0,0.0,0.0,0.0,0.0,0.0,0.0,0.0,0.0,0.0,0.0,0.0,0.0,0.0,0.0,0.0,0.0,0.0,0.0,0.0,0.0,0.0,0.0,0.0,0.0,0.0,0.0,0.0,0.0,0.0,0.0,0.0,0.0,0.0,0.0,0.0,0.0,0.0,0.0,0.0,0.0,-4.023,-4.1049,-4.2712,-4.3598,-4.3227,-4.2546,-4.154,-4.0165,0.0,0.0,0.0,0.0,0.0,0.0,0.0,0.0,0.0,0.0,0.0,0.0,0.0,0.0,0.0,0.0,0.0,0.0,0.0,0.0,0.0,0.0,0.0,0.0,0.0,0.0,0.0,0.0,0.0,0.0,0.0,0.0,0.0,0.0,0.0,0.0,0.0,0.0,0.0,0.0,0.0,0.0,0.0,0.0,0.0,0.0,0.0,0.0,0.0,0.0,0.0,0.0,0.0,0.0,0.0,0.0,0.0,0.0,0.0,0.0,0.0,0.0,0.0,0.0,0.0,0.0,0.0,0.0,0.0,0.0,0.0,0.0,0.0,0.0,0.0,0.0,0.0,0.0,0.0,0.0,0.0,0.0,0.0,0.0,0.0,0.0,0.0,0.0,0.0,0.0,0.0,0.0,0.0,0.0,0.0,0.0,0.0,0.0,0.0,0.0,0.0,0.0,0.0,0.0,-4.0394,-4.1704,-4.2832,-4.3383,-4.3131,-4.2624,-4.1832,-4.0893,0.0,0.0,0.0,0.0,0.0,0.0,0.0,0.0,0.0,0.0,0.0,0.0,0.0,0.0,0.0,0.0,0.0,0.0,0.0,0.0,0.0,0.0,0.0,0.0,0.0,0.0,0.0,0.0,0.0,0.0,0.0,0.0,0.0,0.0,0.0,0.0,0.0,0.0,0.0,0.0,0.0,0.0,0.0,0.0,0.0,0.0,0.0,0.0,0.0,0.0,0.0,0.0,0.0,0.0,0.0,0.0,0.0,0.0,0.0,0.0,0.0,0.0,0.0,0.0,0.0,0.0,0.0,0.0,0.0,0.0,0.0,0.0,0.0,0.0,0.0,0.0,0.0,0.0,0.0,0.0,0.0,0.0,0.0,0.0,0.0,0.0,0.0,0.0,0.0,0.0,0.0,0.0,0.0,0.0,0.0,0.0,0.0,0.0,0.0,0.0,0.0,0.0,0.0,-4.0038,-4.0998,-4.2187,-4.2827,-4.3113,-4.3113,-4.21,-4.1347,-4.1016,-3.8372,0.0,0.0,0.0,0.0,0.0,0.0,0.0,0.0,0.0,0.0,0.0,0.0,0.0,0.0,0.0,0.0,0.0,0.0,0.0,0.0,0.0,0.0,0.0,0.0,0.0,0.0,0.0,0.0,0.0,0.0,0.0,0.0,0.0,0.0,0.0,0.0,0.0,0.0,0.0,0.0,0.0,0.0,0.0,0.0,0.0,0.0,0.0,0.0,0.0,0.0,0.0,0.0,0.0,0.0,0.0,0.0,0.0,0.0,0.0,0.0,0.0,0.0,0.0,0.0,0.0,0.0,0.0,0.0,0.0,0.0,0.0,0.0,0.0,0.0,0.0,0.0,0.0,0.0,0.0,0.0,0.0,0.0,0.0,0.0,0.0,0.0,0.0,0.0,0.0,0.0,0.0,0.0,0.0,0.0,0.0,0.0,0.0,0.0,0.0,0.0,0.0,0.0,-4.061,-4.1566,-4.2526,-4.281,-4.293,-4.299,-4.182,-4.0975,-4.0867,-3.8236,0.0,0.0,0.0,0.0,0.0,0.0,0.0,0.0,0.0,0.0,0.0,0.0,0.0,0.0,0.0,0.0,0.0,0.0,0.0,0.0,0.0,0.0,0.0,0.0,0.0,0.0,0.0,0.0,0.0,0.0,0.0,0.0,0.0,0.0,0.0,0.0,0.0,0.0,0.0,0.0,0.0,0.0,0.0,0.0,0.0,0.0,0.0,0.0,0.0,0.0,0.0,0.0,0.0,0.0,0.0,0.0,0.0,0.0,0.0,0.0,0.0,0.0,0.0,0.0,0.0,0.0,0.0,0.0,0.0,0.0,0.0,0.0,0.0,0.0,0.0,0.0,0.0,0.0,0.0,0.0,0.0,0.0,0.0,0.0,0.0,0.0,0.0,0.0,0.0,0.0,0.0,0.0,0.0,0.0,0.0,0.0,0.0,0.0,0.0,0.0,0.0,0.0,-4.0725,-4.1813,-4.2708,-4.2847,-4.2837,-4.2649,-4.2091,-4.1406,-4.0605,-3.8581,0.0,0.0,0.0,0.0,0.0,0.0,0.0,0.0,0.0,0.0,0.0,0.0,0.0,0.0,0.0,0.0,0.0,0.0,0.0,0.0,0.0,0.0,0.0,0.0,0.0,0.0,0.0,0.0,0.0,0.0,0.0,0.0,0.0,0.0,0.0,0.0,0.0,0.0,0.0,0.0,0.0,0.0,0.0,0.0,0.0,0.0,0.0,0.0,0.0,0.0,0.0,0.0,0.0,0.0,0.0,0.0,0.0,0.0,0.0,0.0,0.0,0.0,0.0,0.0,0.0,0.0,0.0,0.0,0.0,0.0,0.0,0.0,0.0,0.0,0.0,0.0,0.0,0.0,0.0,0.0,0.0,0.0,0.0,0.0,0.0,0.0,0.0,0.0,0.0,0.0,0.0,0.0,0.0,0.0,0.0,0.0,0.0,0.0,0.0,0.0,0.0,0.0,-4.0554,-4.1707,-4.2228,-4.2546,-4.2524,-4.2012,-4.0991,-4.0224,-3.9907,0.0,0.0,0.0,0.0,0.0,0.0,0.0,0.0,0.0,0.0,0.0,0.0,0.0,0.0,0.0,0.0,0.0,0.0,0.0,0.0,0.0,0.0,0.0,0.0,0.0,0.0,0.0,0.0,0.0,0.0,0.0,0.0,0.0,0.0,0.0,0.0,0.0,0.0,0.0,0.0,0.0,0.0,0.0,0.0,0.0,0.0,0.0,0.0,0.0,0.0,0.0,0.0,0.0,0.0,0.0,0.0,0.0,0.0,0.0,0.0,0.0,0.0,0.0,0.0,0.0,0.0,0.0,0.0,0.0,0.0,0.0,0.0,0.0,0.0,0.0,0.0,0.0,0.0,0.0,0.0,0.0,0.0,0.0,0.0,0.0,0.0,0.0,0.0,0.0,0.0,0.0,0.0,0.0,0.0,0.0,0.0,0.0,0.0,0.0,0.0,0.0,0.0,-3.8527,-4.0188,-4.1337,-4.1801,-4.2074,-4.1943,-4.1288,-3.994,-3.9156,-3.9156,0.0,0.0,0.0,0.0,0.0,0.0,0.0,0.0,0.0,0.0,0.0,0.0,0.0,0.0,0.0,0.0,0.0,0.0,0.0,0.0,0.0,0.0,0.0,0.0,0.0,0.0,0.0,0.0,0.0,0.0,0.0,0.0,0.0,0.0,0.0,0.0,0.0,0.0,0.0,0.0,0.0,0.0,0.0,0.0,0.0,0.0,0.0,0.0,0.0,0.0,0.0,0.0,0.0,0.0,0.0,0.0,0.0,0.0,0.0,0.0,0.0,0.0,0.0,0.0,0.0,0.0,0.0,0.0,0.0,0.0,0.0,0.0,0.0,0.0,0.0,0.0,0.0,0.0,0.0,0.0,0.0,0.0,0.0,0.0,0.0,0.0,0.0,0.0,0.0,0.0,0.0,0.0,0.0,0.0,0.0,0.0,0.0,0.0,0.0,0.0,0.0,0.0,-3.8245,-3.958,-4.0643,-4.152,-4.1462,-4.1115,-4.0474,-3.9152,-3.8415,0.0,0.0,0.0,0.0,0.0,0.0,0.0,0.0,0.0,0.0,0.0,0.0,0.0,0.0,0.0,0.0,0.0,0.0,0.0,0.0,0.0,0.0,0.0,0.0,0.0,0.0,0.0,0.0,0.0,0.0,0.0,0.0,0.0,0.0,0.0,0.0,0.0,0.0,0.0,0.0,0.0,0.0,0.0,0.0,0.0,0.0,0.0,0.0,0.0,0.0,0.0,0.0,0.0,0.0,0.0,0.0,0.0,0.0,0.0,0.0,0.0,0.0,0.0,0.0,0.0,0.0,0.0,0.0,0.0,0.0,0.0,0.0,0.0,0.0,0.0,0.0,0.0,0.0,0.0,0.0,0.0,0.0,0.0,0.0,0.0,0.0,0.0,0.0,0.0,0.0,0.0,0.0,0.0,0.0,0.0,0.0,0.0,0.0,0.0,0.0,0.0,0.0,0.0,-3.8179,-3.9386,-4.0448,-4.173,-4.1175,-4.0577,-4.0329,-3.8706,-3.7681,-3.7681,0.0,0.0,0.0,0.0,0.0,0.0,0.0,0.0,0.0,0.0,0.0,0.0,0.0,0.0,0.0,0.0,0.0,0.0,0.0,0.0,0.0,0.0,0.0,0.0,0.0,0.0,0.0,0.0,0.0,0.0,0.0,0.0,0.0,0.0,0.0,0.0,0.0,0.0,0.0,0.0,0.0,0.0,0.0,0.0,0.0,0.0,0.0,0.0,0.0,0.0,0.0,0.0,0.0,0.0,0.0,0.0,0.0,0.0,0.0,0.0,0.0,0.0,0.0,0.0,0.0,0.0,0.0,0.0,0.0,0.0,0.0,0.0,0.0,0.0,0.0,0.0,0.0,0.0,0.0,0.0,0.0,0.0,0.0,0.0,0.0,0.0,0.0,0.0,0.0,0.0,0.0,0.0,0.0,0.0,0.0,0.0,0.0,0.0,0.0,0.0,0.0,0.0,-3.7718,-3.894,-3.9874,-4.0783,-4.0081,-3.9417,-3.9143,-3.7783,-3.6749,-3.6216,0.0,0.0,0.0,0.0,0.0,0.0,0.0,0.0,0.0,0.0,0.0,0.0,0.0,0.0,0.0,0.0,0.0,0.0,0.0,0.0,0.0,0.0,0.0,0.0,0.0,0.0,0.0,0.0,0.0,0.0,0.0,0.0,0.0,0.0,0.0,0.0,0.0,0.0,0.0,0.0,0.0,0.0,0.0,0.0,0.0,0.0,0.0,0.0,0.0,0.0,0.0,0.0,0.0,0.0,0.0,0.0,0.0,0.0,0.0,0.0,0.0,0.0,0.0,0.0,0.0,0.0,0.0,0.0,0.0,0.0,0.0,0.0,0.0,0.0,0.0,0.0,0.0,0.0,0.0,0.0,0.0,0.0,0.0,0.0,0.0,0.0,0.0,0.0,0.0,0.0,0.0,0.0,0.0,0.0,0.0,0.0,0.0,0.0,0.0,0.0,0.0,0.0,-3.6932,-3.8234,-3.9045,-3.916,-3.8524,-3.7858,-3.7337,-3.6671,-3.5745,-3.4472,0.0,0.0,0.0,0.0,0.0,0.0,0.0,0.0,0.0,0.0,0.0,0.0,0.0,0.0,0.0,0.0,0.0,0.0,0.0,0.0,0.0,0.0,0.0,0.0,0.0,0.0,0.0,0.0,0.0,0.0,0.0,0.0,0.0,0.0,0.0,0.0,0.0,0.0,0.0,0.0,0.0,0.0,0.0,0.0,0.0,0.0,0.0,0.0,0.0,0.0,0.0,0.0,0.0,0.0,0.0,0.0,0.0,0.0,0.0,0.0,-3.983,-3.8879,0.0,0.0,0.0,0.0,0.0,0.0,0.0,0.0,0.0,0.0,0.0,0.0,0.0,0.0,0.0,0.0,0.0,0.0,0.0,0.0,0.0,0.0,0.0,0.0,0.0,0.0,0.0,0.0,0.0,0.0,0.0,0.0,0.0,0.0,0.0,0.0,0.0,0.0,0.0,0.0,-3.6033,-3.6995,-3.7844,-3.8847,-3.794,-3.7193,-3.7062,-3.6448,-3.5543,-3.4335,-3.3542,0.0,0.0,0.0,0.0,0.0,0.0,0.0,0.0,0.0,0.0,0.0,0.0,0.0,0.0,0.0,0.0,0.0,0.0,0.0,0.0,0.0,0.0,0.0,0.0,0.0,0.0,0.0,0.0,0.0,0.0,0.0,0.0,0.0,0.0,0.0,0.0,0.0,0.0,0.0,0.0,0.0,0.0,0.0,0.0,0.0,0.0,0.0,0.0,0.0,0.0,0.0,0.0,0.0,0.0,0.0,0.0,0.0,0.0,0.0,-4.045,-3.9677,0.0,0.0,0.0,0.0,0.0,0.0,0.0,0.0,0.0,0.0,0.0,0.0,0.0,0.0,0.0,0.0,0.0,0.0,0.0,0.0,0.0,0.0,0.0,0.0,0.0,0.0,0.0,0.0,0.0,0.0,0.0,0.0,0.0,0.0,0.0,0.0,0.0,0.0,0.0,0.0,-3.4492,-3.5507,-3.6303,-3.6975,-3.6166,-3.5441,-3.5178,-3.4838,-3.3906,-3.216,-3.1748,0.0,0.0,0.0,0.0,0.0,0.0,0.0,0.0,0.0,0.0,0.0,0.0,0.0,0.0,0.0,0.0,0.0,0.0,0.0,0.0,0.0,0.0,0.0,0.0,0.0,0.0,0.0,0.0,0.0,0.0,0.0,0.0,0.0,0.0,0.0,0.0,0.0,0.0,0.0,0.0,0.0,0.0,0.0,0.0,0.0,0.0,0.0,0.0,0.0,0.0,0.0,0.0,0.0,-4.1218,-4.1308,-4.1831,-4.1479,-4.1102,-4.0619,-4.0717,-4.0254,-3.942,-3.8748,0.0,0.0,0.0,0.0,0.0,0.0,0.0,0.0,0.0,0.0,0.0,0.0,0.0,0.0,0.0,0.0,0.0,0.0,0.0,0.0,0.0,0.0,-3.1437,-3.1252,-3.1459,-3.1627,-3.1578,0.0,0.0,0.0,0.0,0.0,0.0,0.0,0.0,0.0,0.0,0.0,-3.296,-3.4071,-3.4774,-3.4774,-3.4309,-3.3688,-3.304,-3.3066,-3.2193,-2.9971,-2.9733,-2.9151,0.0,0.0,0.0,0.0,0.0,0.0,0.0,0.0,0.0,0.0,0.0,0.0,0.0,0.0,0.0,0.0,0.0,0.0,0.0,0.0,0.0,0.0,0.0,0.0,0.0,0.0,0.0,0.0,0.0,0.0,0.0,0.0,-3.9113,-3.9533,0.0,0.0,0.0,0.0,0.0,0.0,0.0,0.0,0.0,0.0,0.0,0.0,0.0,-4.0412,-4.0787,-4.0873,-4.1132,-4.1562,-4.0983,-4.0689,-4.0818,-4.0471,-4.0016,-3.9522,-4.0081,0.0,-3.8138,-3.8091,0.0,0.0,0.0,0.0,0.0,0.0,0.0,0.0,0.0,0.0,0.0,0.0,0.0,0.0,0.0,0.0,0.0,0.0,0.0,0.0,0.0,0.0,-3.0794,-2.9954,-2.9803,-2.9925,-3.0352,-3.1653,-3.2558,-3.1913,-3.1331,-3.0518,0.0,0.0,0.0,0.0,0.0,0.0,-3.2658,-3.3457,-3.3869,-3.3869,-3.3817,-3.3328,-3.2246,-3.2632,-3.2143,-3.0366,-2.9774,-2.9001,-2.7868,-2.7885,0.0,0.0,0.0,0.0,0.0,0.0,0.0,0.0,0.0,0.0,0.0,0.0,0.0,0.0,0.0,0.0,0.0,0.0,0.0,0.0,0.0,0.0,0.0,0.0,0.0,0.0,0.0,0.0,0.0,-3.8958,-3.8907,-3.9162,-3.8958,-3.8574,0.0,0.0,0.0,0.0,0.0,0.0,0.0,0.0,0.0,-3.9549,-3.9776,-4.0122,-4.0492,-4.0256,-4.0103,-4.0266,-3.9423,-3.9,-3.9,-3.8655,-3.8389,-3.818,-3.8465,-3.7828,-3.6727,-3.7536,-3.7244,-3.6245,0.0,0.0,0.0,0.0,-3.5574,-3.5549,-3.5468,-3.4923,-3.416,-3.338,0.0,0.0,0.0,0.0,0.0,0.0,0.0,-3.0337,-3.01,-3.002,-2.9876,-2.9473,-2.9579,-2.992,-3.0398,-3.1211,-3.1784,-3.1798,-3.1105,-3.0384,-2.9674,-2.8554,0.0,0.0,0.0,-3.0548,-3.1603,-3.2222,-3.2568,-3.2568,-3.2568,-3.2247,-3.1455,-3.1603,-3.1182,-2.9806,-2.9549,-2.9015,-2.8249,-2.7517,-2.714,0.0,0.0,0.0,0.0,0.0,0.0,0.0,0.0,0.0,0.0,0.0,0.0,0.0,0.0,0.0,0.0,0.0,0.0,0.0,0.0,0.0,0.0,0.0,0.0,0.0,0.0,0.0,0.0,-3.8817,-3.8916,-3.8963,-3.8812,-3.8339,0.0,0.0,0.0,0.0,0.0,0.0,-3.7345,-3.8073,-3.8805,-3.9285,-3.9485,-3.9616,-3.9822,-3.9288,-3.8907,-3.8684,-3.7768,-3.7287,-3.7287,-3.6946,-3.6824,-3.6824,-3.6824,-3.6376,-3.5746,-3.6861,-3.6934,-3.6309,-3.5672,-3.5432,-3.5493,-3.5427,-3.5445,-3.5416,-3.5218,-3.4789,-3.4235,-3.3546,-3.2459,-3.1316,-3.1041,0.0,0.0,0.0,0.0,-2.97,-2.9224,-2.8971,-2.8808,-2.8737,-2.8982,-2.9404,-3.0078,-3.0147,-3.039,-3.1319,-3.0772,-3.0058,-2.9754,-2.8614,0.0,-2.8994,-2.9445,-2.9944,-3.0628,-3.1056,-3.1294,-3.1294,-3.1294,-3.1124,-3.0668,-3.0663,-3.0367,-2.9474,-2.9323,-2.9124,-2.8739,-2.7752,-2.744,-2.7835,0.0,0.0,0.0,0.0,0.0,0.0,0.0,0.0,0.0,0.0,0.0,0.0,0.0,0.0,0.0,0.0,0.0,0.0,0.0,0.0,0.0,0.0,0.0,0.0,0.0,0.0,0.0,0.0,0.0,-3.9184,-3.8476,0.0,0.0,0.0,0.0,-3.6592,-3.6903,-3.7207,-3.7622,-3.7801,-3.806,-3.8545,-3.9118,-3.9091,-3.8481,-3.8376,-3.8029,-3.7413,-3.642,-3.5992,-3.5992,-3.5644,-3.5479,-3.5479,-3.5479,-3.5459,-3.5457,-3.5827,-3.5072,-3.3726,-3.3987,-3.3785,-3.3431,-3.3896,-3.4073,-3.4139,-3.4373,-3.4103,-3.3479,-3.2455,-3.1083,-2.9984,-3.0484,-3.0335,0.0,0.0,-2.9564,-2.9075,-2.8654,-2.8157,-2.7663,-2.72,-2.7102,-2.7393,-2.8428,-2.8328,-2.8627,-3.0567,-3.0557,-2.987,-2.8841,0.0,-2.7973,-2.8543,-2.8657,-2.9068,-3.01,-3.0238,-3.0261,-3.0261,-3.0261,-3.0144,-2.9901,-3.0097,-3.0103,-2.9706,-2.9456,-2.9292,-2.9268,-2.9375,-2.8826,-2.7457,-2.7814,0.0,0.0,0.0,0.0,0.0,0.0,0.0,0.0,0.0,0.0,0.0,0.0,0.0,0.0,0.0,0.0,0.0,0.0,0.0,0.0,0.0,0.0,0.0,0.0,0.0,0.0,0.0,0.0,-3.777,-3.7058,0.0,-3.5696,-3.5199,-3.4925,-3.4894,-3.5735,-3.6364,-3.6407,-3.7068,-3.7551,-3.773,-3.791,-3.7725,-3.7128,-3.6639,-3.6114,-3.5397,-3.4652,-3.4278,-3.4278,-3.4173,-3.411,-3.411,-3.411,-3.3951,-3.3713,-3.3578,-3.3741,-3.4089,-3.3586,-3.3412,-3.3471,-3.3454,-3.3407,-3.3428,-3.3339,-3.3063,-3.2545,-3.1697,-3.0857,-3.0242,-3.0311,-3.0183,-2.998,-2.9787,-2.9413,-2.9048,-2.87,-2.8331,-2.8027,-2.7871,-2.7832,-2.7898,-2.8197,-2.8056,-2.802,-2.8593,-2.8712,-2.8722,-2.8699,-2.8233,-2.8033,-2.8565,-2.8632,-2.8811,-2.9212,-2.9257,-2.9257,-2.9257,-2.9257,-2.9328,-2.9602,-2.9985,-3.025,-3.044,-3.0711,-3.0807,-3.0807,-3.0242,-2.969,-2.923,-2.7789,-2.6867,0.0,0.0,0.0,0.0,0.0,0.0,0.0,0.0,0.0,0.0,0.0,0.0,0.0,0.0,0.0,0.0,0.0,0.0,0.0,0.0,0.0,0.0,0.0,0.0,0.0,-3.7442,-3.753,-3.6646,-3.6112,-3.5536,-3.4899,-3.4401,-3.4211,-3.4328,-3.5063,-3.551,-3.5601,-3.611,-3.6492,-3.6642,-3.6664,-3.642,-3.589,-3.5335,-3.4777,-3.4235,-3.367,-3.3418,-3.3418,-3.3418,-3.3418,-3.3418,-3.3418,-3.3184,-3.2754,-3.2344,-3.2734,-3.3387,-3.2629,-3.2514,-3.2685,-3.2457,-3.2342,-3.2342,-3.2113,-3.196,-3.1649,-3.1037,-3.0465,-3.0083,-2.9862,-2.9581,-2.9416,-2.9185,-2.8973,-2.8761,-2.8621,-2.8461,-2.8301,-2.8301,-2.8301,-2.8217,-2.7996,-2.7716,-2.7432,-2.7171,-2.7425,-2.7779,-2.8125,-2.7911,-2.7779,-2.8125,-2.8168,-2.8168,-2.8168,-2.8168,-2.8168,-2.8168,-2.8168,-2.8423,-2.8978,-2.9417,-2.992,-3.0397,-3.0892,-3.1205,-3.1205,-3.0497,-3.002,-2.9702,-2.7395,-2.6287,-2.6404,0.0,0.0,0.0,0.0,0.0,0.0,0.0,0.0,0.0,0.0,0.0,0.0,0.0,0.0,0.0,0.0,0.0,0.0,0.0,0.0,0.0,0.0,0.0,-3.5596,-3.703,-3.7436,-3.6005,-3.566,-3.5519,-3.5477,-3.4837,-3.4596,-3.4974,-3.4795,-3.4819,-3.5335,-3.4942,-3.4901,-3.5335,-3.5356,-3.517,-3.4859,-3.4548,-3.4235,-3.3859,-3.3544,-3.3418,-3.3418,-3.3418,-3.3418,-3.3418,-3.3418,-3.3164,-3.2734,-3.2324,-3.1894,-3.1445,-3.1055,-3.0898,-3.0898,-3.0898,-3.0898,-3.0898,-3.0898,-3.0898,-3.082,-3.0371,-2.9922,-2.9492,-2.9062,-2.8633,-2.8301,-2.8301,-2.8301,-2.8301,-2.8301,-2.8301,-2.8301,-2.8301,-2.8301,-2.8184,-2.7787,-2.7305,-2.6894,-2.6445,-2.6778,-2.7146,-2.7146,-2.7146,-2.7146,-2.7146,-2.7146,0.0,-2.7146,-2.7146,-2.7146,-2.7146,-2.7146,-2.7384,-2.7904,-2.8398,-2.8863,-2.9439,-2.9875,-3.0147,-3.017,-3.0147,-2.9625,-2.8634,-2.6756,-2.5561,-2.5039,0.0,0.0,0.0,0.0,0.0,0.0,0.0,0.0,0.0,0.0,0.0,0.0,0.0,0.0,0.0,0.0,0.0,0.0,0.0,0.0,0.0,-3.5302,-3.5323,-3.5351,-3.5468,-3.5281,-3.4448,-3.4145,-3.3795,-3.3175,-3.2934,-3.2994,-3.3412,-3.3329,-3.3528,-3.3902,-3.3803,-3.3803,-3.3985,-3.3922,-3.3922,-3.3796,-3.3733,-3.3607,-3.3544,-3.3418,-3.3418,-3.3418,-3.3418,-3.3418,-3.3398,-3.3105,-3.2734,-3.2305,-3.1875,-3.1445,-3.1055,-3.0937,-3.0898,-3.0898,-3.0898,-3.0898,-3.0898,-3.0898,-3.0898,-3.0859,-3.0742,-3.0195,-2.9607,-2.9434,-2.8887,-2.8301,-2.8301,-2.8301,-2.8301,-2.8301,-2.8301,-2.8301,-2.8301,-2.8301,-2.8086,-2.7363,-2.709,-2.6797,-2.6055,-2.6015,-2.611,-2.611,-2.611,-2.611,-2.611,-2.611,-2.611,-2.611,-2.611,-2.611,-2.611,-2.611,-2.6352,-2.688,-2.7363,-2.7814,-2.8373,-2.858,-2.8787,-2.9096,-2.8832,-2.805,-2.6719,-2.6114,-2.508,0.0,0.0,0.0,0.0,0.0,0.0,0.0,0.0,0.0,0.0,0.0,0.0,0.0,0.0,0.0,0.0,0.0,0.0,0.0,0.0,0.0,0.0,-3.4608,-3.4432,-3.4944,-3.5025,-3.4755,-3.3957,-3.3595,-3.3223,-3.2734,-3.2539,-3.2598,-3.3027,-3.3066,-3.3164,-3.3418,-3.3418,-3.3418,-3.3418,-3.3418,-3.3418,-3.3418,-3.3418,-3.3418,-3.3418,-3.3418,-3.3418,-3.3418,-3.3418,-3.3418,-3.3398,-3.2969,-3.2559,-3.2129,-3.1699,-3.1269,-3.0898,0.0,0.0,0.0,0.0,-3.0898,-3.0898,-3.0898,-3.0898,-3.0859,-3.0664,-3.0137,-2.9531,-2.9355,-2.8828,-2.8301,-2.8301,-2.8301,-2.8301,-2.8301,-2.8301,-2.8301,-2.8301,-2.8301,-2.8105,-2.7441,-2.7148,-2.6816,-2.6133,-2.581,0.0,-2.5693,-2.5693,-2.5693,-2.5693,-2.5693,-2.5693,-2.5693,-2.5693,-2.5693,-2.5693,-2.5693,-2.5868,-2.6304,-2.6716,0.0,0.0,0.0,-2.7818,-2.8075,-2.7793,0.0,0.0,0.0,0.0,0.0,-2.3613,0.0,0.0,-2.3554,-2.3207,0.0,0.0,0.0,0.0,0.0,0.0,0.0,0.0,0.0,0.0,0.0,0.0,0.0,0.0,0.0,0.0,-3.353,-3.3066,-3.457,-3.525,-3.5171,-3.4037,-3.3686,-3.3476,-3.3437,-3.3086,-3.3027,-3.3398,-3.3418,-3.3418,-3.3418,-3.3418,0.0,0.0,0.0,-3.3418,-3.3418,-3.3418,-3.3418,-3.3418,-3.3418,-3.3418,-3.3418,-3.3418,-3.3418,-3.3398,-3.293,-3.2519,-3.2129,-3.1641,-3.123,-3.0898,-3.0898,-3.0898,-3.0898,-3.0898,-3.0898,-3.0898,-3.0898,0.0,0.0,-3.041,-2.9961,-2.9492,-2.9101,-2.8672,-2.8301,-2.8301,-2.8301,-2.8301,-2.8301,-2.8301,-2.8301,-2.8301,-2.8301,-2.8184,-2.7806,-2.7324,-2.6894,-2.6465,-2.6035,-2.5693,-2.5693,-2.5693,-2.5693,-2.5693,-2.5693,-2.5693,-2.5693,-2.5693,-2.5645,-2.5645,-2.5645,0.0,-2.5945,-2.6207,-2.6448,-2.6668,-2.6839,-2.6914,-2.6873,-2.6744,-2.6148,-2.5057,-2.5031,-2.4546,-2.3624,-2.3664,-2.3684,-2.3684,-2.3328,-2.285,0.0,0.0,0.0,0.0,0.0,0.0,0.0,0.0,0.0,0.0,0.0,0.0,0.0,0.0,0.0,-3.4053,-3.4502,-3.4883,-3.5215,-3.5073,-3.4707,-3.4132,-3.4009,-3.3809,-3.3457,-3.334,-3.334,-3.3418,-3.3418,-3.3418,-3.3418,-3.3418,-3.3418,-3.3418,-3.3418,-3.3418,-3.3418,-3.3418,-3.3418,-3.3418,-3.3418,0.0,-3.3418,-3.3418,-3.3418,-3.3379,-3.2617,-3.2246,-3.2109,-3.1328,-3.0957,-3.0898,-3.0898,-3.0898,-3.0898,-3.0898,-3.0898,-3.0898,-3.0898,-3.0898,-3.0879,-3.0781,-3.0215,-2.9551,-2.9473,-2.8906,0.0,-2.8301,-2.8301,-2.8301,-2.8301,-2.8301,-2.8301,-2.8301,-2.8301,-2.8184,-2.7806,-2.7324,-2.6894,-2.6465,-2.6035,-2.5693,-2.5693,-2.5693,-2.5693,-2.5693,-2.5693,-2.5693,-2.5693,-2.5479,-2.5382,-2.5382,-2.5186,-2.5088,-2.5137,-2.5186,-2.5216,-2.5265,-2.5314,-2.5208,-2.4881,-2.514,-2.4862,-2.4017,-2.3998,-2.3549,-2.2662,-2.2987,-2.314,-2.314,-2.3466,-2.3427,0.0,0.0,0.0,0.0,0.0,0.0,0.0,0.0,0.0,0.0,0.0,-3.2525,-3.2915,0.0,-3.3803,-3.4201,-3.4564,-3.4961,-3.5605,-3.5117,-3.4629,-3.4414,-3.4004,-3.3652,-3.3437,-3.3418,-3.3418,-3.3418,-3.3418,-3.3418,-3.3418,-3.3418,-3.3418,-3.3418,-3.3418,-3.3418,-3.3418,-3.3418,-3.3418,-3.3418,-3.3418,-3.3418,-3.3418,-3.3418,-3.3301,-3.3066,-3.2441,-3.2051,-3.1797,-3.1152,-3.0898,-3.0898,-3.0898,-3.0898,-3.0898,-3.0898,-3.0898,-3.0898,-3.0898,-3.0898,-3.0898,-3.0898,-3.0293,-2.9626,-2.9626,-2.8965,-2.8301,-2.8301,-2.8301,-2.8301,-2.8301,-2.8301,-2.8301,-2.8301,-2.8301,-2.8242,-2.8027,-2.7461,-2.6953,-2.6738,-2.6172,-2.5693,-2.5693,-2.5693,-2.5693,-2.5693,-2.5693,-2.5645,-2.5528,-2.5382,-2.5235,-2.5137,-2.499,-2.4892,-2.4892,-2.4892,-2.4892,-2.4892,-2.4892,-2.4798,-2.459,-2.4779,-2.4638,-2.4013,-2.3994,-2.3691,-2.304,-2.3229,-2.3437,-2.3645,-2.3626,-2.3512,0.0,0.0,0.0,0.0,0.0,0.0,0.0,-3.3046,-3.2492,-3.3497,-3.3087,-3.2754,-3.3418,-3.3691,-3.4004,-3.4609,-3.4492,-3.4687,-3.5742,-3.5137,-3.457,-3.457,-3.3965,-3.3516,-3.3437,-3.3418,-3.3418,-3.3418,-3.3418,-3.3418,-3.3418,-3.3418,-3.3418,-3.3418,-3.3418,-3.3418,-3.3418,-3.3418,-3.3418,-3.3418,-3.334,-3.3301,-3.3301,-3.3223,-3.2988,-3.2656,-3.2226,-3.1797,-3.1367,-3.1035,-3.0898,-3.0898,-3.0898,-3.0898,-3.0898,-3.0898,-3.0898,-3.0898,-3.0898,-3.0898,-3.0898,-3.0898,-3.0293,-2.9626,-2.9626,-2.8965,-2.8301,-2.8301,-2.8301,-2.8301,-2.8301,-2.8301,-2.8301,-2.8301,-2.8301,-2.8301,-2.8301,-2.7617,-2.7012,-2.7012,-2.6328,-2.5693,-2.5693,-2.5693,-2.5693,-2.5693,-2.5645,-2.5528,-2.5333,-2.5186,-2.5088,-2.4843,-2.4794,-2.4745,-2.4745,-2.4745,-2.4745,-2.4745,-2.4745,-2.4745,-2.4745,-2.4745,-2.4538,-2.4143,-2.4125,-2.3937,-2.3523,-2.3598,-2.3824,-2.4125,-2.3669,-2.3444,-3.6171,-3.5508,-3.4841,-3.4635,-3.4306,-3.3951,0.0,-3.3578,-3.3537,-3.3371,-3.3611,-3.3887,-3.3984,-3.4648,-3.5078,-3.4746,-3.5,-3.5293,-3.5449,-3.4707,-3.4141,-3.4141,-3.4062,-3.3848,-3.3457,-3.3418,-3.3418,-3.3418,-3.3418,-3.3418,-3.3418,-3.3418,-3.3418,-3.3418,-3.3418,-3.3418,-3.3418,-3.3418,-3.3418,-3.3418,-3.3047,-3.2871,-3.2851,-3.248,-3.2285,-3.2207,-3.1777,-3.1348,-3.0957,-3.0918,-3.0898,-3.0898,-3.0898,-3.0898,-3.0898,-3.0898,-3.0898,-3.0898,-3.0898,-3.0898,-3.0898,-3.0898,-3.0293,-2.9626,-2.9626,-2.8965,-2.8301,-2.8301,-2.8301,-2.8301,-2.8301,-2.8301,-2.8301,-2.8301,-2.8301,-2.8301,-2.8301,-2.7617,-2.7012,-2.7012,-2.6328,-2.5693,-2.5693,-2.5693,-2.5693,-2.5693,-2.5479,-2.5333,-2.5284,-2.4892,-2.4578,-2.4529,-2.4399,-2.4301,-2.4301,-2.4301,-2.4301,-2.4301,-2.4301,-2.4301,-2.4301,-2.4301,-2.4067,-2.3595,-2.3595,-2.3393,-2.3007,-2.3356,-2.354,-2.3595,-2.3404,-2.3448,-3.5328,-3.4867,-3.4581,-3.5004,-3.4677,-3.437,-3.4774,-3.4521,-3.4326,-3.4715,-3.4851,-3.4844,-3.4844,-3.5137,-3.5234,-3.4766,-3.4863,-3.5078,-3.5351,-3.4844,-3.4336,-3.4101,-3.3848,-3.3516,-3.3105,-3.3066,-3.3164,-3.3398,-3.3418,-3.3418,-3.3418,-3.3418,-3.3418,-3.3418,-3.3418,-3.3418,-3.3418,-3.3418,-3.3301,-3.3066,-3.2871,-3.2676,-3.2422,-3.2307,-3.2031,-3.1758,-3.1348,-3.1055,-3.0898,-3.0898,-3.0898,-3.0898,-3.0898,-3.0898,-3.0898,-3.0898,-3.0898,-3.0898,-3.0898,-3.0898,-3.0898,-3.0898,-3.0293,-2.9626,-2.9626,-2.8965,-2.8301,-2.8301,-2.8301,-2.8301,-2.8301,-2.8301,-2.8301,-2.8301,-2.8301,-2.8301,-2.8301,-2.7617,-2.7012,-2.7012,-2.6328,-2.5693,-2.5693,-2.5577,-2.5479,-2.5479,-2.5382,-2.5186,-2.4873,-2.4627,-2.443,-2.435,-2.4251,-2.4202,-2.4202,-2.4202,-2.4202,-2.4202,-2.4053,-2.3904,-2.3687,-2.3538,-2.3267,-2.2941,-2.2941,-2.2871,-2.2663,-2.2821,-2.2941,-2.2892,-2.255,-2.2266,-3.4839,-3.4636,-3.4636,-3.5285,-3.5136,-3.4883,-3.5461,-3.5221,-3.5046,-3.5495,-3.5591,-3.5527,-3.541,-3.5391,-3.5234,-3.4766,-3.4609,-3.4648,-3.498,-3.4629,-3.4199,-3.3769,-3.334,-3.291,-3.248,-3.2656,-3.293,-3.3223,-3.3359,-3.3418,-3.3418,-3.3418,-3.3418,-3.3418,-3.3418,-3.3418,-3.3418,-3.3301,-3.3105,-3.2793,-3.2559,-3.2285,-3.1992,-3.1875,-3.1641,-3.1328,-3.1016,-3.0898,-3.0898,-3.0898,-3.0898,-3.0898,-3.0898,-3.0898,-3.0898,-3.082,-3.0762,-3.0762,-3.0645,-3.0645,-3.0645,-3.0645,-3.0064,-2.9346,-2.9346,-2.88,-2.8194,-2.8194,-2.8228,-2.8301,-2.8301,-2.8301,-2.8301,-2.8301,-2.8301,-2.8301,-2.8194,-2.746,-2.6756,-2.6705,-2.591,-2.5235,-2.5235,-2.5039,-2.4824,-2.4775,-2.4677,-2.4578,-2.4529,-2.443,-2.4332,-2.4202,-2.4202,-2.4202,-2.4202,-2.4202,-2.4202,-2.4202,-2.3854,-2.3488,-2.307,-2.2769,-2.2417,-2.2064,-2.2064,-2.2064,-2.2064,-2.2064,-2.2064,-2.2064,-2.1522,-2.0944,-3.4902,-3.4901,-3.4899,-3.5113,-3.5409,-3.5581,-3.5276,-3.5567,-3.5633,-3.487,-3.541,-3.5879,-3.5469,-3.5391,-3.5234,-3.4766,-3.4355,-3.4101,-3.4121,-3.373,-3.3301,-3.2891,-3.2461,-3.2031,-3.1601,-3.2305,-3.2793,-3.2812,-3.3184,-3.3418,-3.3418,-3.3418,-3.3418,-3.3418,-3.3418,-3.3418,-3.3418,-3.3008,-3.2812,-3.2793,-3.1953,-3.1543,-3.1523,-3.1113,-3.0918,-3.0918,-3.0898,-3.0898,-3.0898,-3.0898,-3.0898,-3.0898,-3.0898,-3.0898,-3.084,-3.0509,-3.045,-3.0392,-3.0039,-2.9922,-2.9922,-2.9922,-2.9354,-2.8728,-2.8728,-2.8361,-2.7906,-2.7906,-2.8121,-2.8301,-2.8301,-2.8301,-2.8301,-2.8301,-2.8301,-2.8247,-2.796,-2.7022,-2.6172,-2.5914,-2.4937,-2.4134,-2.4134,-2.3935,-2.3687,-2.3388,-2.312,-2.332,-2.4381,-2.435,-2.4202,-2.4202,-2.4202,-2.4202,-2.4202,-2.4202,-2.4202,-2.4202,-2.3637,-2.307,-2.2535,-2.1996,-2.1489,-2.0979,-2.0944,-2.0944,-2.0944,-2.0944,-2.0944,-2.0944,-2.038,-1.9813,-3.5167,-3.4992,-3.4812,-3.5486,-3.5587,-3.5567,-3.5709,-3.5818,-3.5897,-3.5605,-3.5586,-3.5566,-3.543,-3.5137,-3.4785,-3.4355,-3.416,-3.4082,-3.4082,-3.3691,-3.3262,-3.2851,-3.2422,-3.1894,-3.1172,-3.1621,-3.2187,-3.2754,-3.293,-3.3125,-3.3398,-3.3418,-3.3418,-3.3418,-3.3418,-3.3281,-3.3008,-3.2871,-3.2519,-3.1934,-3.1367,-3.1094,-3.1094,-3.0957,-3.0898,-3.0898,-3.0898,-3.0898,-3.0898,-3.0898,-3.0898,-3.0898,-3.0645,-3.0567,-3.045,-2.949,-2.9016,-2.882,-2.8957,-2.8359,-2.7653,-2.7653,-2.712,-2.6593,-2.6988,-2.7068,-2.7025,-2.7476,-2.7906,-2.8301,-2.8301,-2.8301,-2.8301,-2.8301,-2.8301,-2.8174,-2.7691,-2.6424,-2.5255,-2.4787,-2.351,-2.2517,-2.2517,-2.2282,-2.1996,-2.1743,-2.2266,-2.2787,-2.3138,-2.3138,-2.3088,-2.3088,-2.3088,-2.3088,-2.3088,-2.3088,-2.3088,-2.3088,-2.2535,-2.2013,-2.1454,-2.0944,-2.038,-1.9828,-1.9828,-1.9828,-1.9828,-1.9828,-1.9828,-1.9828,-1.9398,-1.9034,-3.5452,-3.5457,-3.5451,-3.5832,-3.5823,-3.5818,-3.5957,-3.5898,-3.5742,-3.5586,-3.5215,-3.4922,-3.4922,-3.4551,-3.4199,-3.4082,-3.3945,-3.3848,-3.3848,-3.3594,-3.3203,-3.2637,-3.2344,-3.1836,-3.0976,-3.1133,-3.1582,-3.2285,-3.248,-3.2754,-3.3184,-3.3203,-3.3262,-3.3418,-3.3281,-3.3066,-3.2793,-3.25,-3.1992,-3.1289,-3.1016,-3.0898,-3.0898,-3.0898,-3.0898,-3.0898,-3.0898,-3.0898,-3.0898,-3.0898,-3.0898,-3.0879,-3.0509,-3.0197,-2.9726,-2.8701,-2.7744,-2.7004,-2.7564,-2.7081,-2.616,-2.616,-2.5669,-2.5173,-2.5665,-2.6018,-2.6318,-2.6826,-2.7422,-2.7979,-2.7979,-2.7979,-2.796,-2.7853,-2.7853,-2.7584,-2.6772,-2.5523,-2.4351,-2.3606,-2.2363,-2.1434,-2.1434,-2.1147,-2.0778,-2.0395,-2.0893,-2.1505,-2.1861,-2.1912,-2.1912,-2.1912,-2.1912,-2.1912,-2.1912,-2.1912,-2.1912,-2.1912,-2.1404,-2.0893,-2.0313,-1.9761,-1.9257,-1.8698,-1.8698,-1.8698,-1.8698,-1.8698,-1.8698,-1.8698,-1.8475,-1.8251,-3.572,-3.6309,-3.6765,-3.6084,-3.6182,-3.6344,-3.6025,-3.5644,-3.5234,-3.4766,-3.4336,-3.4043,-3.4043,-3.3691,-3.3535,-3.3965,-3.3711,-3.3437,-3.3418,-3.3437,-3.3144,-3.2305,-3.2187,-3.1836,-3.0996,-3.0898,-3.1055,-3.1445,-3.1894,-3.2324,-3.2773,-3.2793,-3.2988,-3.3418,-3.3008,-3.2793,-3.2754,-3.1914,-3.1289,-3.0898,-3.0898,-3.0898,-3.0898,-3.0898,-3.0898,-3.0898,-3.0898,-3.0898,-3.0898,-3.0898,-3.0898,-3.0879,-3.0509,-2.9766,-2.8801,-2.8146,-2.6702,-2.5194,-2.6067,-2.594,-2.5429,-2.5429,-2.4952,-2.4359,-2.4644,-2.5125,-2.5624,-2.5898,-2.6609,-2.726,-2.726,-2.726,-2.7206,-2.6935,-2.6881,-2.6536,-2.5386,-2.436,-2.3381,-2.2466,-2.1526,-2.0861,-2.0846,-2.036,-1.9849,-1.9263,-1.922,-1.9569,-2.0688,-2.0842,-2.0842,-2.0842,-2.0842,-2.0842,-2.0842,-2.0842,-2.0842,-2.0842,-2.0328,-1.9761,-1.9176,-1.867,-1.8108,-1.7635,-1.7582,-1.7582,-1.7582,-1.7582,-1.7582,-1.7582,-1.7582,-1.7582,-3.6514,-3.6806,-3.6904,-3.6429,-3.6163,-3.5964,-3.5495,-3.5139,-3.4746,-3.4316,-3.3887,-3.3594,-3.3594,-3.3242,-3.3086,-3.3516,-3.3769,-3.3789,-3.3476,-3.3691,-3.3594,-3.2734,-3.2363,-3.1953,-3.1406,-3.1074,-3.0937,-3.1055,-3.1445,-3.2012,-3.2754,-3.2793,-3.2988,-3.3418,-3.3008,-3.2656,-3.2344,-3.1484,-3.0996,-3.0898,-3.0898,-3.0898,-3.0898,-3.0898,-3.0898,-3.0898,-3.0898,-3.0898,-3.0898,-3.0898,-3.0898,-3.084,-3.0274,-2.9431,-2.8462,-2.734,-2.6006,-2.4656,-2.4409,-2.3779,-2.3066,-2.3066,-2.2612,-2.2124,-2.2637,-2.3239,-2.3832,-2.4334,-2.4927,-2.5388,-2.5388,-2.5388,-2.5388,-2.5296,-2.5113,-2.4799,-2.4039,-2.2799,-2.1662,-2.097,-1.9889,-1.9071,-1.8836,-1.8631,-1.8412,-1.811,-1.8003,-1.8422,-1.9569,-1.9739,-1.9739,-1.9739,-1.9739,-1.9739,-1.9739,-1.9739,-1.9739,-1.9739,-1.9361,-1.8982,-1.8617,-1.8265,-1.7964,-1.7635,-1.7582,-1.7582,-1.7582,-1.7582,-1.7582,-1.7582,-1.7582,-1.7582,-3.7078,-3.7356,-3.7447,-3.678,-3.6481,-3.6102,-3.5156,-3.4665,-3.4216,-3.3657,-3.3027,-3.2637,-3.2832,-3.2519,-3.2441,-3.3047,-3.3359,-3.3496,-3.3437,-3.3633,-3.3535,-3.2871,-3.2422,-3.1992,-3.1562,-3.1133,-3.0898,-3.0898,-3.1113,-3.1543,-3.2187,-3.2226,-3.2422,-3.2851,-3.2461,-3.2031,-3.1601,-3.1133,-3.0898,-3.0898,-3.0898,-3.0898,-3.0898,-3.0898,-3.0898,-3.0898,-3.0898,-3.0898,-3.0898,-3.0898,-3.0898,-3.082,-3.0157,-2.9076,-2.7744,-2.6736,-2.5237,-2.3702,-2.3271,-2.2612,-2.1993,-2.214,-2.1745,-2.1261,-2.1774,-2.2328,-2.2862,-2.3368,-2.3927,-2.4356,-2.4356,-2.4356,-2.43,-2.4172,-2.3911,-2.3519,-2.2789,-2.1748,-2.0783,-2.0075,-1.9382,-1.8744,-1.8317,-1.8237,-1.809,-1.7649,-1.7582,-1.7845,-1.8475,-1.8527,-1.8527,-1.8527,-1.8527,-1.8527,-1.8527,-1.8527,-1.8527,-1.8527,-1.837,-1.8199,-1.8055,-1.7898,-1.774,-1.7582,-1.7582,-1.7582,-1.7582,-1.7582,-1.7582,-1.7582,-1.7582,-1.7582,-3.7674,-3.7922,-3.798,-3.7115,-3.6799,-3.6339,-3.4872,-3.4084,-3.3503,-3.2819,-3.1992,-3.1562,-3.2012,-3.1777,-3.1777,-3.2578,-3.2812,-3.2988,-3.3301,-3.3437,-3.3359,-3.293,-3.25,-3.209,-3.1641,-3.123,-3.0957,-3.0898,-3.0898,-3.1074,-3.1504,-3.1523,-3.1699,-3.207,-3.1719,-3.1328,-3.0898,-3.0898,-3.0898,-3.0898,-3.0898,-3.0898,-3.0898,-3.0898,-3.0898,-3.0898,-3.0898,-3.0898,-3.0898,-3.0898,-3.0898,-3.082,-3.0157,-2.8719,-2.6961,-2.6311,-2.4621,-2.2623,-2.2623,-2.2213,-2.1745,-2.2023,-2.1701,-2.1261,-2.1561,-2.1987,-2.241,-2.2692,-2.3159,-2.3552,-2.3552,-2.3552,-2.3496,-2.3199,-2.2862,-2.241,-2.1616,-2.0945,-2.0314,-1.9479,-1.9305,-1.9118,-1.8531,-1.8437,-1.8237,-1.7662,-1.7582,-1.7582,-1.7582,-1.7582,-1.7582,-1.7582,-1.7582,-1.7582,-1.7582,-1.7582,-1.7582,-1.7582,-1.7582,-1.7582,-1.7582,-1.7582,-1.7582,-1.7582,-1.7582,-1.7582,-1.7582,-1.7582,-1.7582,-1.7582,-1.7582,-1.7582,-3.8538,-3.8398,-3.7984,-3.7071,-3.6319,-3.5595,-3.4573,-3.3316,-3.2296,-3.2177,-3.1525,-3.1133,-3.1543,-3.1562,-3.168,-3.2187,-3.2851,-3.3223,-3.2949,-3.3516,-3.3809,-3.3359,-3.2949,-3.2519,-3.209,-3.166,-3.1269,-3.0918,-3.0898,-3.1074,-3.1504,-3.1523,-3.1562,-3.1621,-3.1562,-3.1328,-3.0898,-3.0898,-3.0898,-3.0898,-3.0898,-3.0898,-3.0898,-3.0898,-3.0898,-3.0898,-3.0898,-3.0898,-3.0898,-3.0898,-3.0898,-3.082,-3.0157,-2.8719,-2.6961,-2.6311,-2.4621,-2.2623,-2.2623,-2.2213,-2.1701,-2.1759,-2.1525,-2.1218,-2.1261,-2.1375,-2.1432,-2.1489,-2.1603,-2.166,-2.166,-2.166,-2.166,-2.1603,-2.1189,-2.073,-2.0558,-2.004,-1.9523,-1.9052,-1.8998,-1.8811,-1.8169,-1.8075,-1.7996,-1.7635,-1.7582,-1.7582,-1.7582,-1.7582,-1.7582,-1.7582,-1.7582,-1.7582,-1.7582,-1.7582,-1.7582,-1.7582,-1.7582,-1.7582,-1.7582,-1.7582,-1.7582,-1.7582,-1.7582,-1.7582,-1.7582,-1.7582,-1.7582,-1.7582,-1.7582,-1.7582,-3.8786,-3.8523,-3.7964,-3.7032,-3.6325,-3.5498,-3.4227,-3.3054,-3.2155,-3.1701,-3.125,-3.0957,-3.1152,-3.1191,-3.1328,-3.1758,-3.2363,-3.2773,-3.2793,-3.334,-3.3652,-3.3437,-3.2851,-3.2383,-3.2248,-3.1582,-3.1113,-3.0898,-3.0898,-3.0976,-3.1191,-3.1191,-3.1191,-3.1191,-3.1191,-3.1094,-3.0898,-3.0898,-3.0898,-3.0898,-3.0898,-3.0898,-3.0898,-3.0898,-3.0898,-3.0898,-3.0898,-3.0898,-3.0898,-3.0898,-3.0898,-3.082,-3.0157,-2.8701,-2.6944,-2.6294,-2.4511,-2.2389,-2.2389,-2.1979,-2.1452,-2.1452,-2.1335,-2.1203,-2.1203,-2.1203,-2.1203,-2.1203,-2.1203,-2.1203,-2.1203,-2.1203,-2.1146,-2.096,-2.05,-1.9982,-1.988,-1.9591,-1.9332,-1.9185,-1.9158,-1.8971,-1.8384,-1.8277,-1.8116,-1.7649,-1.7582,-1.7582,-1.7582,-1.7582,-1.7582,-1.7582,-1.7582,-1.7582,-1.7582,-1.7582,-1.7582,-1.7582,-1.7582,-1.7582,-1.7582,-1.7582,-1.7582,-1.7582,-1.7582,-1.7582,-1.7582,-1.7582,-1.7582,-1.7582,-1.7582,-1.7582,-3.8951,-3.8667,-3.8088,-3.7053,-3.639,-3.5562,-3.4061,-3.2928,-3.2031,-3.15,-3.1091,-3.0742,-3.0742,-3.0742,-3.084,-3.1172,-3.1601,-3.207,-3.2598,-3.3027,-3.332,-3.3418,-3.2754,-3.2266,-3.2187,-3.1484,-3.0996,-3.0898,-3.0898,-3.0898,-3.0898,-3.0898,-3.0898,-3.0898,-3.0898,-3.0898,-3.0898,-3.0898,-3.0898,-3.0898,-3.0898,-3.0898,-3.0898,-3.0898,-3.0898,-3.0898,-3.0898,-3.0898,-3.0898,-3.0898,-3.0898,-3.082,-3.0157,-2.8701,-2.6927,-2.6294,-2.4477,-2.2184,-2.2184,-2.1759,-2.1203,-2.1203,-2.1203,-2.1203,-2.1203,-2.1203,-2.1203,-2.1203,-2.1203,-2.1203,-2.1203,-2.1146,-2.0974,-2.0615,-2.0155,-1.9707,-1.9475,-1.943,-1.9403,-1.9292,-1.9265,-1.9078,-1.8504,-1.8397,-1.821,-1.7662,-1.7582,-1.7582,-1.7582,-1.7582,-1.7582,-1.7582,-1.7582,-1.7582,-1.7582,-1.7582,-1.7582,-1.7582,-1.7582,-1.7582,-1.7582,-1.7582,-1.7582,-1.7582,-1.7582,-1.7582,-1.7582,-1.7582,-1.7582,-1.7582,-1.7582,-1.7582,-3.953,-3.9075,-3.8393,-3.7136,-3.6142,-3.5231,-3.4279,-3.2615,-3.1345,-3.1649,-3.095,-3.0254,-3.0254,-3.0254,-3.0273,-3.0312,-3.0703,-3.1289,-3.2109,-3.2598,-3.2988,-3.3379,-3.3008,-3.2598,-3.2268,-3.1738,-3.1309,-3.0918,-3.0898,-3.0898,-3.0898,-3.0898,-3.0898,-3.0898,-3.0898,-3.0898,-3.0898,-3.0898,-3.0898,-3.0898,-3.0898,-3.0898,-3.0898,-3.0898,-3.0898,-3.0898,-3.0898,-3.0898,-3.0898,-3.0898,-3.0898,-3.082,-3.0157,-2.8719,-2.6961,-2.6311,-2.4477,-2.2184,-2.2184,-2.1759,-2.1203,-2.1203,-2.1203,-2.1203,-2.1203,-2.1203,-2.1203,-2.1203,-2.1203,-2.1203,-2.1203,-2.096,-2.0601,-2.004,-1.9809,-1.9707,-1.9475,-1.943,-1.9292,-1.9011,-1.8958,-1.8771,-1.8129,-1.8035,-1.7916,-1.7635,-1.7582,-1.7582,-1.7582,-1.7582,-1.7582,-1.7582,-1.7582,-1.7582,-1.7582,-1.7582,-1.7582,-1.7582,-1.7582,-1.7582,-1.7582,-1.7582,-1.7582,-1.7582,-1.7582,-1.7582,-1.7582,-1.7582,-1.7582,-1.7582,-1.7582,-1.7582,-3.9096,-3.8792,-3.8191,-3.7074,-3.6101,-3.5128,-3.4039,-3.2641,-3.1509,-3.1516,-3.1012,-3.0605,-3.0605,-3.0391,-3.0293,-3.0566,-3.0762,-3.1094,-3.1699,-3.2148,-3.248,-3.2656,-3.2285,-3.1953,-3.1797,-3.1387,-3.1074,-3.0898,-3.0898,-3.0996,-3.125,-3.1035,-3.0996,-3.1269,-3.1016,-3.0898,-3.0898,-3.0898,-3.0898,-3.0898,-3.0898,-3.0898,-3.0898,-3.0898,-3.0898,-3.0898,-3.0898,-3.0898,-3.0898,-3.0898,-3.0898,-3.082,-3.0157,-2.8719,-2.6961,-2.6311,-2.4477,-2.2184,-2.2184,-2.1759,-2.1203,-2.1203,-2.1203,-2.1203,-2.1203,-2.1203,-2.1203,-2.1203,-2.1203,-2.1203,-2.1203,-2.0859,-2.0328,-1.9924,-1.9707,-1.9533,-1.943,-1.943,-1.9332,-1.9212,-1.9185,-1.9065,-1.8651,-1.8515,-1.8477,-1.817,-1.7969,-1.7862,-1.7862,-1.7702,-1.7582,-1.7582,-1.7582,-1.7582,-1.7582,-1.7582,-1.7582,-1.7582,-1.7582,-1.7582,-1.7582,-1.7582,-1.7582,-1.7582,-1.7582,-1.7582,-1.7582,-1.7582,-1.7582,-1.7582,-1.7582,-1.7582,-3.8621,-3.8523,-3.8129,-3.7074,-3.6038,-3.5005,-3.3859,-3.2608,-3.1614,-3.1325,-3.1112,-3.0859,-3.0703,-3.0312,-3.0156,-3.0605,-3.0586,-3.0742,-3.1426,-3.1777,-3.1973,-3.1973,-3.1601,-3.1328,-3.1328,-3.1055,-3.0898,-3.0898,-3.0898,-3.1074,-3.1504,-3.1113,-3.1074,-3.1504,-3.1113,-3.0898,-3.0898,-3.0898,-3.0898,-3.0898,-3.0898,-3.0898,-3.0898,-3.0898,-3.0898,-3.0898,-3.0898,-3.0898,-3.0898,-3.0898,-3.0898,-3.082,-3.0157,-2.8838,-2.7203,-2.6493,-2.4658,-2.2468,-2.2348,-2.1862,-2.1203,-2.1203,-2.1203,-2.1203,-2.1203,-2.1203,-2.1203,-2.1203,-2.1203,-2.1146,-2.0974,-2.0615,-2.0213,-1.9764,-1.9533,-1.943,-1.943,-1.943,-1.943,-1.943,-1.943,-1.9265,-1.8971,-1.8918,-1.8824,-1.8531,-1.8317,-1.8089,-1.8009,-1.7849,-1.7689,-1.7595,-1.7582,-1.7582,-1.7582,-1.7582,-1.7582,-1.7582,-1.7582,-1.7582,-1.7582,-1.7582,-1.7582,-1.7582,-1.7675,-1.7716,-1.7716,-1.7809,-1.7849,-1.7849,-1.7849,-1.7849,-3.8316,-3.8502,-3.8455,-3.7136,-3.5869,-3.4779,-3.3799,-3.2431,-3.1325,-3.1325,-3.1112,-3.0762,-3.0293,-2.9863,-2.9707,-3.0137,-2.9863,-3.0039,-3.1328,-3.1523,-3.1523,-3.1523,-3.1152,-3.0898,-3.0898,-3.0898,-3.0898,-3.0898,-3.0898,-3.1074,-3.1504,-3.1113,-3.1074,-3.1504,-3.1113,-3.0898,-3.0898,-3.0898,-3.0898,-3.0898,-3.0898,-3.0898,-3.0898,-3.0898,-3.0898,-3.0898,-3.0898,-3.0898,-3.0898,-3.0898,-3.0898,-3.082,-3.0157,-2.9135,-2.7864,-2.6857,-2.5064,-2.3033,-2.2811,-2.2038,-2.1203,-2.1203,-2.1203,-2.1203,-2.1203,-2.1203,-2.1203,-2.1203,-2.1203,-2.1031,-2.0443,-2.027,-2.0155,-1.9533,-1.943,-1.943,-1.943,-1.943,-1.943,-1.943,-1.943,-1.9265,-1.8971,-1.8918,-1.8824,-1.8531,-1.849,-1.8384,-1.8035,-1.7995,-1.7876,-1.7609,-1.7582,-1.7582,-1.7582,-1.7582,-1.7582,-1.7582,-1.7582,-1.7582,-1.7582,-1.7582,-1.7582,-1.7582,-1.7889,-1.7995,-1.7995,-1.8343,-1.8477,-1.8477,-1.8477,-1.8477,-3.7198,-3.7343,-3.7198,-3.6121,-3.5356,-3.4492,-3.3172,-3.221,-3.1498,-3.1112,-3.0683,-3.0371,-3.0234,-2.9609,-2.9258,-2.9707,-2.9648,-2.9824,-3.0527,-3.1133,-3.1406,-3.1133,-3.0976,-3.0898,-3.0898,-3.0898,-3.0898,-3.0898,-3.0898,-3.1074,-3.1504,-3.1113,-3.1074,-3.1504,-3.1113,-3.0742,-3.043,-3.0742,-3.0723,-3.043,-3.0742,-3.0898,-3.0898,-3.0898,-3.0898,-3.0898,-3.0898,-3.0898,-3.0898,-3.0898,-3.0898,-3.084,-3.0392,-2.9608,-2.8504,-2.7804,-2.5947,-2.3728,-2.3448,-2.2374,-2.1203,-2.1203,-2.1203,-2.1203,-2.1203,-2.1203,-2.1203,-2.1203,-2.1203,-2.1031,-2.0443,-2.027,-2.0155,-1.9533,-1.943,-1.943,-1.943,-1.943,-1.943,-1.943,-1.943,-1.939,-1.9239,-1.9225,-1.9199,-1.9105,-1.8918,-1.8758,-1.8651,-1.8477,-1.8237,-1.7916,-1.7889,-1.7809,-1.7595,-1.7582,-1.7582,-1.7582,-1.7582,-1.7582,-1.7582,-1.7782,-1.7849,-1.7849,-1.8196,-1.8343,-1.8343,-1.845,-1.849,-1.849,-1.849,-1.849,-3.5852,-3.6163,-3.6101,-3.5355,-3.4777,-3.406,-3.2908,-3.2109,-3.1459,-3.0915,-3.0525,-3.0137,-3.0,-2.9394,-2.9062,-2.9492,-2.9434,-2.9531,-3.0117,-3.0664,-3.0918,-3.0664,-3.0625,-3.0625,-3.0625,-3.0781,-3.0957,-3.1113,-3.0976,-3.1074,-3.1504,-3.1113,-3.1016,-3.1269,-3.1035,-3.0762,-3.0469,-3.0742,-3.0742,-3.0469,-3.0762,-3.0898,-3.0898,-3.0898,-3.0898,-3.0898,-3.0898,-3.0898,0.0,-3.0898,-3.0898,-3.082,-3.0392,-2.9726,-2.8998,-2.7984,-2.6185,-2.4199,-2.3626,-2.2432,-2.1203,-2.1203,-2.1203,-2.1203,-2.1203,-2.1203,-2.1203,-2.1203,-2.1203,-2.1031,-2.0443,-2.027,-2.0155,-1.9533,-1.943,-1.943,-1.943,-1.943,-1.943,-1.943,-1.943,-1.943,-1.943,-1.943,-1.943,-1.943,-1.9212,-1.9052,-1.8945,-1.8771,-1.849,-1.8076,-1.7982,-1.7862,-1.7609,-1.7582,-1.7582,-1.7582,-1.7582,-1.7635,-1.7756,-1.7943,-1.8035,-1.821,-1.8504,-1.8651,-1.8651,-1.8771,-1.8824,-1.8824,-1.8824,-1.8824,0.0,-3.4962,-3.5211,-3.4776,-3.4161,-3.3471,-3.2962,-3.2049,0.0,-3.0769,-3.0384,-2.998,-2.959,-2.916,-2.9004,-2.9414,-2.916,-2.9199,-3.0039,-3.0215,-3.0254,-3.0293,-3.0273,-3.0254,-3.0254,-3.0664,-3.1094,-3.1484,-3.1152,-3.1113,-3.1504,-3.1113,-3.0898,-3.0898,-3.0898,-3.0879,-3.084,-3.0879,-3.0879,-3.084,-3.0879,-3.0898,-3.0898,-3.0898,-3.0898,-3.0898,-3.0898,-3.0898,-3.0898,-3.0898,-3.0898,-3.084,-3.0157,-2.9667,-2.9194,-2.7642,-2.6023,-2.4434,-2.3508,-2.233,-2.1203,-2.1203,-2.1203,-2.1203,-2.1203,-2.1203,-2.1203,-2.1203,-2.1203,-2.1031,-2.0443,-2.027,-2.0155,-1.9533,-1.943,-1.943,-1.943,-1.943,-1.943,-1.943,-1.943,-1.943,-1.943,-1.943,-1.943,-1.943,-1.943,-1.9265,-1.8985,-1.8958,-1.8731,-1.8115,-1.8049,-1.7983,-1.7675,-1.7609,-1.7582,-1.7582,-1.7609,-1.7742,-1.7982,-1.8009,-1.8223,-1.8517,-1.8811,-1.8958,-1.8958,-1.9239,-1.943,-1.943,-1.943,-1.943,-3.3141,0.0,-3.4279,-3.3824,-3.3617,-3.3176,0.0,-3.1606,-3.1017,-3.0463,-2.9744,-2.918,-2.9082,-2.873,-2.8476,-2.8574,-2.8769,-2.9101,-2.9648,-3.0293,-3.084,-3.1172,-3.0918,-3.0723,-3.0723,-3.1113,-3.1406,-3.1504,-3.1426,-3.1406,-3.1504,-3.1113,-3.0898,-3.0898,-3.0898,-3.0723,-3.0371,-3.0703,-3.0703,-3.0371,-3.0723,-3.0898,-3.0898,-3.0898,-3.0898,-3.0898,-3.0898,-3.0898,-3.0898,-3.0898,-3.0898,-3.084,-3.045,-2.9785,-2.892,-2.8044,-2.6245,-2.414,-2.3685,-2.2491,-2.1203,-2.1203,-2.1203,-2.1203,-2.1203,-2.1203,-2.1203,-2.1203,-2.1203,-2.1031,-2.0443,-2.027,-2.0155,-1.9533,-1.943,-1.943,-1.943,-1.943,-1.943,-1.943,-1.943,-1.943,-1.943,-1.943,-1.943,-1.943,-1.943,-1.9345,-1.9265,-1.9265,-1.9118,-1.8758,-1.8661,-1.8597,-1.8303,-1.7849,-1.7582,-1.7582,-1.7809,-1.7916,-1.7995,-1.8422,-1.8744,-1.8824,-1.9118,-1.9265,-1.9265,-1.9332,-1.943,-1.943,-1.943,-1.943,-3.2669,-3.3223,-3.3637,-3.3203,-3.3107,-3.2912,-3.1913,-3.1305,-3.0721,-2.9967,-2.9349,-2.8867,-2.8672,-2.8437,-2.8301,-2.8301,-2.8476,-2.8848,-2.9492,-3.0332,-3.0976,-3.1211,-3.1035,-3.0957,-3.1152,-3.1387,-3.1601,-3.1797,-3.1621,-3.1523,-3.1523,-3.1113,-3.0898,-3.0898,-3.0898,-3.0762,-3.0508,-3.0762,-3.0762,-3.0527,-3.0762,-3.0898,-3.0898,-3.0898,-3.0898,-3.0898,-3.0898,-3.0898,-3.0898,-3.0898,-3.0898,-3.082,-3.0333,-2.9726,-2.8998,-2.7924,-2.6185,-2.4258,-2.3626,-2.2432,-2.1203,-2.1203,-2.1203,-2.1203,-2.1203,-2.1203,-2.1203,-2.1203,-2.1203,-2.1031,-2.0443,-2.027,-2.0155,-1.9533,-1.943,-1.943,-1.943,-1.943,-1.943,-1.943,-1.943,-1.943,-1.943,-1.943,-1.943,-1.943,-1.943,-1.943,-1.943,-1.943,-1.9252,-1.8958,-1.8918,-1.8811,-1.8517,-1.8183,-1.7996,-1.7996,-1.8156,-1.8262,-1.8395,-1.8758,-1.8985,-1.9118,-1.9292,-1.943,-1.943,-1.943,-1.943,-1.943,-1.943,-1.943,-3.2649,-3.2979,-3.3207,-3.2773,-3.2769,-3.2697,-3.1747,-3.1067,-3.0373,-2.962,-2.907,-2.8711,-2.8359,-2.834,-2.8398,-2.8398,-2.8496,-2.8828,-2.957,-3.0371,-3.0898,-3.0898,-3.0898,-3.1055,-3.1484,-3.1582,-3.1797,-3.2226,-3.1855,-3.1621,-3.1621,-3.1152,-3.0898,-3.0898,-3.0898,-3.0898,-3.0898,-3.0898,-3.0859,-3.0781,-3.0859,-3.0898,-3.0898,-3.0898,-3.0898,-3.0898,-3.0898,-3.0898,-3.0898,-3.0898,-3.0859,-3.0723,-3.012,-2.9536,-2.8932,-2.7467,-2.5889,-2.4295,-2.3265,-2.2124,-2.1203,-2.1203,-2.1203,-2.1203,-2.1203,-2.1203,-2.1203,-2.1146,-2.1146,-2.0974,-2.0443,-2.027,-2.0097,-1.9533,-1.943,-1.943,-1.943,-1.943,-1.943,-1.943,-1.943,-1.943,-1.943,-1.943,-1.943,-1.943,-1.943,-1.943,-1.943,-1.943,-1.9265,-1.9025,-1.8985,-1.8891,-1.8651,-1.8624,-1.8624,-1.8624,-1.8584,-1.8691,-1.8985,-1.8985,-1.9105,-1.9359,-1.943,-1.943,-1.943,-1.943,-1.943,-1.943,-1.943,-1.943,-3.2566,-3.2806,-3.2857,-3.2486,-3.2632,-3.2662,-3.1576,-3.0707,-3.004,-2.9659,-2.8941,-2.8359,-2.8301,-2.8574,-2.8828,-2.8828,-2.9434,-2.9941,-3.0078,-3.0566,-3.0898,-3.0898,-3.0898,-3.1055,-3.1484,-3.1855,-3.2246,-3.2676,-3.2305,-3.207,-3.207,-3.1328,-3.0898,-3.0898,-3.0898,-3.0898,-3.0898,-3.0898,-3.0703,-3.0312,-3.0703,-3.0898,-3.0898,-3.0898,-3.0898,-3.0898,-3.0898,-3.0898,-3.0898,-3.0898,-3.0664,-3.0255,-2.9911,-2.9049,-2.7797,-2.7009,-2.5442,-2.3488,-2.2015,-2.1349,-2.1203,-2.1203,-2.1203,-2.1203,-2.1203,-2.1203,-2.1146,-2.0845,-2.0773,-2.073,-2.0385,-2.0097,-1.9822,-1.9475,-1.943,-1.943,-1.943,-1.943,-1.943,-1.943,-1.943,-1.943,-1.943,-1.943,-1.943,-1.943,-1.943,-1.943,-1.943,-1.943,-1.9403,-1.9305,-1.9305,-1.9279,-1.9296,-1.9239,-1.9239,-1.9239,-1.8998,-1.8985,-1.9292,-1.9305,-1.9377,-1.943,-1.943,-1.943,-1.943,-1.943,-1.943,-1.943,-1.943,-1.943,-3.2066,-3.2342,-3.2455,-3.1906,-3.2311,-3.2514,-3.1541,-3.0537,-2.9679,-2.9333,-2.873,-2.8359,-2.8594,-2.8984,-2.9336,-2.957,-2.9941,-3.0195,-3.0195,-3.0586,-3.0898,-3.0898,-3.0898,-3.1152,-3.1797,-3.2051,-3.2344,-3.2754,-3.2402,-3.207,-3.1836,-3.123,-3.0898,-3.0898,-3.0898,-3.0762,-3.0527,-3.0762,-3.0781,-3.0566,-3.0781,-3.0898,-3.0898,-3.0898,-3.0898,-3.0898,-3.0898,-3.0898,-3.0898,-3.0898,-3.0625,-3.0195,-2.9872,-2.9146,-2.7918,-2.6127,-2.4622,-2.3294,-2.1708,-2.1203,-2.1203,-2.1203,-2.1203,-2.1203,-2.1203,-2.1203,-2.1146,-2.1031,-2.0845,-2.0601,-2.0155,-1.9924,-1.9751,-1.9475,-1.943,-1.943,-1.943,-1.943,-1.943,-1.943,-1.943,-1.943,-1.943,-1.943,-1.943,-1.943,-1.943,-1.943,-1.943,-1.943,-1.943,-1.943,-1.943,-1.943,-1.943,-1.943,-1.943,-1.943,-1.9239,-1.9225,-1.9417,-1.943,-1.943,-1.943,-1.943,-1.943,-1.943,-1.943,-1.943,-1.943,-1.943,-1.943,-3.1447,-3.162,-3.1677,-3.1261,-3.184,-3.2296,-3.1328,-3.0331,-2.9517,-2.9075,-2.8591,-2.8358,-2.8784,-2.9211,-2.9694,-3.0178,-3.0237,-3.0294,-3.0351,-3.0664,-3.0898,-3.0898,-3.0976,-3.1328,-3.209,-3.2266,-3.248,-3.291,-3.2461,-3.2012,-3.168,-3.1172,-3.0898,-3.0898,-3.0898,-3.0723,-3.0371,-3.0703,-3.0781,-3.0586,-3.0684,-3.0684,-3.0586,-3.0684,-3.0723,-3.0742,-3.084,-3.0898,-3.0898,-3.0898,-3.0566,-3.0059,-2.9831,-2.9182,-2.8033,-2.5405,-2.4113,-2.334,-2.1735,-2.1203,-2.1203,-2.1089,-2.1146,-2.1203,-2.1089,-2.1146,-2.1203,-2.1089,-2.0902,-2.0601,-2.004,-1.9809,-1.9649,-1.943,-1.943,-1.943,-1.943,-1.943,-1.943,-1.943,-1.943,-1.943,-1.943,-1.943,-1.943,-1.943,-1.943,-1.943,-1.943,-1.943,-1.943,-1.943,-1.943,-1.943,-1.943,-1.943,-1.943,-1.943,-1.943,-1.943,-1.943,-1.943,-1.943,-1.943,-1.943,-1.943,-1.943,-1.943,-1.943,-1.943,-1.943,-1.943,-3.0819,-3.0596,-3.029,-3.0631,-3.1384,-3.1781,-3.0723,-3.0103,-2.9718,-2.9336,-2.8633,-2.8123,-2.8558,-2.8994,-2.9584,-3.0276,-3.0392,-3.047,-3.084,-3.0859,-3.0898,-3.0898,-3.123,-3.166,-3.2129,-3.2519,-3.293,-3.334,-3.2617,-3.2209,-3.2129,-3.1348,-3.0898,-3.0898,-3.0898,-3.0879,-3.084,-3.0879,-3.0469,-2.9724,-3.0059,-3.0039,-2.9744,-3.0059,-3.0254,-3.0273,-3.0703,-3.0898,-3.0898,-3.0898,-3.0391,-2.9609,-2.9609,-2.8716,-2.7281,-2.5386,-2.4334,-2.3641,-2.1831,-2.1203,-2.1146,-2.0845,-2.096,-2.1146,-2.0845,-2.096,-2.1146,-2.0845,-2.0716,-2.0601,-2.0328,-1.988,-1.943,-1.943,-1.943,-1.943,-1.943,-1.943,-1.943,-1.943,-1.943,-1.943,-1.943,-1.943,-1.943,-1.943,-1.943,-1.943,-1.943,-1.943,-1.943,-1.943,-1.943,-1.943,-1.943,-1.943,-1.943,-1.943,-1.943,-1.943,-1.943,-1.943,-1.943,-1.943,-1.943,-1.943,-1.943,-1.943,-1.943,-1.943,-1.943,-1.943,-3.0214,-2.9948,-2.9628,-2.967,-2.9964,-3.0238,-3.0373,-2.9373,-2.8442,-2.8373,-2.7434,-2.6707,-2.7213,-2.7777,-2.848,-2.9456,-2.9844,-3.0274,-3.082,-3.0898,-3.0996,-3.125,-3.1426,-3.1797,-3.25,-3.2695,-3.2871,-3.3027,-3.25,-3.2051,-3.1777,-3.1211,-3.0898,-3.0898,-3.0898,-3.0762,-3.0469,-3.0742,-3.0449,-2.9626,-3.0293,-3.0547,-3.0391,-3.0566,-3.0625,-3.0644,-3.082,-3.0898,-3.0898,-3.0898,-3.0371,-2.9567,-2.8984,-2.8195,-2.7206,-2.5388,-2.4356,-2.3648,-2.1816,-2.1089,-2.0845,-2.0716,-2.0673,-2.063,-2.0658,-2.0773,-2.0902,-2.096,-2.073,-2.0385,-2.004,-1.9822,-1.9591,-1.943,-1.943,-1.943,-1.943,-1.943,-1.943,-1.943,-1.943,-1.943,-1.943,-1.943,-1.943,-1.943,-1.943,-1.943,-1.943,-1.943,-1.943,-1.943,-1.943,-1.943,-1.943,-1.943,-1.943,-1.943,-1.943,-1.943,-1.943,-1.943,-1.943,-1.943,-1.943,-1.943,-1.943,-1.943,-1.943,-1.943,-1.943,-1.943,-2.9648,-2.9325,-2.8972,-2.8771,-2.8592,-2.8634,-2.9233,-2.8431,-2.7521,-2.7464,-2.654,-2.5881,-2.5974,-2.6651,-2.7511,-2.8405,-2.9102,-2.9745,-3.047,-3.0587,-3.0741,-3.1267,-3.1461,-3.1891,-3.2734,-3.2793,-3.2793,-3.2793,-3.2285,-3.1836,-3.1543,-3.1113,-3.0898,-3.0898,-3.0898,-3.0742,-3.041,-3.0723,-3.0508,-2.9785,-3.0527,-3.0742,-3.0469,-3.0605,-3.0605,-3.0488,-3.0605,-3.0605,-3.0469,-3.0469,-3.0039,-2.9297,-2.8574,-2.7906,-2.7206,-2.5388,-2.4356,-2.3664,-2.1702,-2.0902,-2.0658,-2.0486,-2.0385,-2.0328,-2.0385,-2.05,-2.0615,-2.0859,-2.0615,-2.0213,-1.9866,-1.9764,-1.9649,-1.943,-1.943,-1.943,-1.943,-1.943,-1.943,-1.943,-1.943,-1.943,-1.943,-1.943,-1.943,-1.943,-1.943,-1.943,-1.943,-1.943,-1.943,-1.943,-1.943,-1.943,-1.943,-1.943,-1.943,-1.943,-1.943,-1.943,-1.943,-1.943,-1.943,-1.943,-1.943,-1.943,-1.943,-1.943,-1.943,-1.943,-1.943,-1.943,-2.9079,-2.8708,-2.8228,-2.796,-2.7452,-2.7006,-2.7181,-2.7299,-2.7228,-2.6668,-2.6311,-2.5836,-2.5093,-2.5811,-2.6661,-2.7335,-2.8032,-2.8778,-2.9745,-2.9863,-3.0132,-3.089,-3.1411,-3.1976,-3.2754,-3.2793,-3.2793,-3.2793,-3.1992,-3.1523,-3.1504,-3.1113,-3.0898,-3.0898,-3.0898,-3.0898,-3.0879,-3.0879,-3.0644,-3.0195,-3.0664,-3.043,-2.959,-3.0,-2.998,-2.9646,-3.0019,-2.9961,-2.9626,-2.9626,-2.9316,-2.8887,-2.8457,-2.7906,-2.7206,-2.5388,-2.4356,-2.3592,-2.1445,-2.0716,-2.0601,-1.9982,-2.004,-2.0213,-1.9924,-2.004,-2.027,-2.027,-2.027,-2.0213,-1.9866,-1.9591,-1.943,-1.943,-1.943,-1.943,-1.943,-1.943,-1.943,-1.943,-1.943,-1.943,-1.943,-1.943,-1.943,-1.943,-1.943,-1.943,-1.943,-1.943,-1.943,-1.943,-1.943,-1.943,-1.943,-1.943,-1.943,-1.943,-1.943,-1.943,-1.943,-1.943,-1.943,-1.943,-1.943,-1.943,-1.943,-1.943,-1.943,-1.943,-1.943,-1.943,-2.9079,-2.8708,-2.8252,-2.8,-2.7549,-2.695,-2.6395,-2.5804,-2.5064,-2.4271,-2.384,-2.3551,-2.3354,-2.396,-2.4674,-2.5326,-2.6164,-2.7021,-2.7744,-2.8474,-2.9174,-2.9948,-3.0766,-3.1577,-3.2344,-3.2363,-3.2226,-3.1914,-3.166,-3.1387,-3.1094,-3.0957,-3.0898,-3.0898,-3.0898,-3.0742,-3.041,-3.041,-3.0195,-2.9766,-2.9902,-2.998,-3.0019,-3.0488,-3.0449,-3.0019,-3.0137,-2.9961,-2.9551,-2.9238,-2.9043,-2.8887,-2.8457,-2.7906,-2.7206,-2.5388,-2.4356,-2.3592,-2.1445,-2.0601,-2.0328,-1.9924,-1.9764,-1.9707,-1.9764,-1.9866,-1.9982,-2.0213,-2.0155,-1.9924,-1.9809,-1.9591,-1.943,-1.943,-1.943,-1.943,-1.943,-1.943,-1.943,-1.943,-1.943,-1.943,-1.943,-1.943,-1.943,-1.943,-1.943,-1.943,-1.943,-1.943,-1.943,-1.943,-1.943,-1.943,-1.943,-1.943,-1.943,-1.943,-1.943,-1.943,-1.943,-1.943,-1.943,-1.943,-1.943,-1.943,-1.943,-1.943,-1.943,-1.943,-1.943,-1.943,-2.9092,-2.8846,-2.8431,-2.8081,-2.7393,-2.6434,-2.5097,-2.4389,-2.3902,-2.3248,-2.2945,-2.2769,-2.2652,-2.3154,-2.3749,-2.4338,-2.5092,-2.5917,-2.6678,-2.7432,-2.8316,-2.9317,-3.0064,-3.0907,-3.1924,-3.183,-3.1677,-3.1543,-3.1367,-3.1152,-3.0898,-3.0898,-3.0898,-3.0898,-3.0898,-3.0664,-3.0195,-3.0195,-2.9902,-2.9316,-2.9492,-2.9609,-2.9707,-3.0156,-3.0117,-2.9687,-2.9512,-2.9297,-2.9043,-2.8789,-2.8672,-2.8652,-2.8398,-2.7906,-2.7206,-2.5388,-2.4356,-2.3592,-2.1345,-2.0443,-2.0213,-1.9764,-1.9533,-1.9417,-1.9591,-1.9649,-1.9707,-1.988,-1.9822,-1.9649,-1.9649,-1.9533,-1.943,-1.943,-1.943,-1.943,-1.943,-1.943,-1.943,-1.943,-1.943,-1.943,-1.943,-1.943,-1.943,-1.943,-1.943,-1.943,-1.943,-1.943,-1.943,-1.943,-1.943,-1.943,-1.943,-1.943,-1.943,-1.943,-1.943,-1.943,-1.943,-1.943,-1.943,-1.943,-1.943,-1.943,-1.943,-1.943,-1.943,-1.943,-1.943,-1.943,-2.8971,-2.8985,-2.8762,-2.8233,-2.7265,-2.5911,-2.376,-2.3447,-2.3479,-2.3168,-2.3106,-2.3018,-2.2725,-2.3163,-2.3638,-2.3947,-2.453,-2.523,-2.6126,-2.6628,-2.7368,-2.8612,-2.9226,-3.005,-3.1321,-3.112,-3.1069,-3.1405,-3.1113,-3.0898,-3.0898,-3.0898,-3.0898,-3.0898,-3.0859,-3.0625,-3.0195,-3.0117,-2.9687,-2.8926,-2.9277,-2.9238,-2.8887,-2.9355,-2.9336,-2.8906,-2.8476,-2.8301,-2.8301,-2.8301,-2.8301,-2.8301,-2.8301,-2.7906,-2.7206,-2.5388,-2.4356,-2.3536,-2.1117,-2.027,-2.0213,-1.9591,-1.943,-1.943,-1.943,-1.943,-1.943,-1.943,-1.943,-1.943,-1.943,-1.943,-1.943,-1.943,-1.943,-1.943,-1.943,-1.943,-1.943,-1.943,-1.943,-1.943,-1.943,-1.943,-1.943,-1.943,-1.943,-1.943,-1.943,-1.943,-1.943,-1.943,-1.943,-1.943,-1.943,-1.943,-1.943,-1.943,-1.943,-1.943,-1.943,-1.943,-1.943,-1.943,-1.943,-1.943,-1.943,-1.943,-1.943,-1.943,-1.943,-1.943,-2.8609,-2.8767,-2.8917,-2.8918,-2.7991,-2.6504,-2.467,-2.3923,-2.3479,-2.3168,-2.3106,-2.3091,-2.3018,-2.3124,-2.3216,-2.3328,-2.3658,-2.4022,-2.4209,-2.5009,-2.5739,-2.6226,-2.7334,-2.8465,-2.9412,-2.9914,-3.035,-3.0957,-3.0937,-3.0898,-3.0898,-3.0898,-3.0898,-3.0898,-3.0527,-3.0293,-3.0195,-2.9531,-2.9101,-2.8906,-2.8672,-2.8516,-2.8457,-2.9219,-2.9336,-2.8906,-2.8476,-2.8301,-2.8301,-2.8301,-2.8301,-2.8301,-2.8301,-2.7906,-2.7206,-2.5388,-2.4356,-2.3536,-2.1117,-2.027,-2.0213,-1.9591,-1.943,-1.943,-1.943,-1.943,-1.943,-1.943,-1.943,-1.943,-1.943,-1.943,-1.943,-1.943,-1.943,-1.943,-1.943,-1.943,-1.943,-1.943,-1.943,-1.943,-1.943,-1.943,-1.943,-1.943,-1.943,-1.943,-1.943,-1.943,-1.943,-1.943,-1.943,-1.943,-1.943,-1.943,-1.943,-1.943,-1.943,-1.943,-1.943,-1.943,-1.943,-1.943,-1.943,-1.943,-1.943,-1.943,-1.943,-1.943,-1.943,-1.943,-2.8669,-2.9005,-2.925,-2.9385,-2.863,-2.7401,-2.5533,-2.4594,-2.3914,-2.323,-2.3106,-2.3106,-2.3106,-2.3106,-2.3106,-2.3106,-2.3384,-2.3647,-2.3808,-2.4486,-2.5046,-2.5485,-2.6461,-2.7572,-2.8618,-2.9313,-3.0039,-3.084,-3.0898,-3.0898,-3.0898,-3.0898,-3.0898,-3.0898,-3.043,-3.0098,-2.9902,-2.9238,-2.8809,-2.8613,-2.8398,-2.8301,-2.832,-2.875,-2.8828,-2.8613,-2.8398,-2.8301,-2.8301,-2.8301,-2.8301,-2.8301,-2.8301,-2.7906,-2.7206,-2.5388,-2.4356,-2.3536,-2.1117,-2.027,-2.0213,-1.9591,-1.943,-1.943,-1.943,-1.943,-1.943,-1.943,-1.943,-1.943,-1.943,-1.943,-1.943,-1.943,-1.943,-1.943,-1.943,-1.943,-1.943,-1.943,-1.943,-1.943,-1.943,-1.943,-1.943,-1.943,-1.943,-1.943,-1.943,-1.943,-1.943,-1.943,-1.943,-1.943,-1.943,-1.943,-1.943,-1.943,-1.943,-1.943,-1.943,-1.943,-1.943,-1.943,-1.943,-1.943,-1.943,-1.943,-1.943,-1.943,-1.943,-1.943,-2.8741,-2.9342,-2.9717,-2.9748,-2.9331,-2.8404,-2.6487,-2.5435,-2.4549,-2.3494,-2.3168,-2.3106,-2.3106,-2.3106,-2.3135,-2.3179,-2.3471,-2.3779,-2.4042,-2.4346,-2.4705,-2.5209,-2.5928,-2.6829,-2.814,-2.8897,-2.9785,-3.082,-3.0898,-3.0898,-3.0898,-3.0898,-3.0859,-3.0781,-3.0332,-2.9883,-2.9453,-2.9023,-2.8633,-2.8301,-2.8301,-2.8301,-2.8301,-2.8301,-2.8301,-2.8301,-2.8301,-2.8301,-2.8301,-2.8301,-2.8301,-2.8301,-2.8301,-2.7906,-2.7206,-2.5388,-2.4356,-2.3536,-2.1117,-2.027,-2.0213,-1.9591,-1.943,-1.943,-1.943,-1.943,-1.943,-1.943,-1.943,-1.943,-1.943,-1.943,-1.943,-1.943,-1.943,-1.943,-1.943,-1.943,-1.943,-1.943,-1.943,-1.943,-1.943,-1.943,-1.9444,-1.9439,-1.9439,-1.9466,-1.9506,-1.9466,-1.9439,-1.9439,-1.9457,-1.943,-1.943,-1.943,-1.943,-1.943,-1.943,-1.943,-1.943,-1.943,-1.943,-1.943,-1.943,-1.943,-1.943,-1.943,-1.943,-1.943,-1.943,-1.943,-2.8318,-2.9268,-3.0353,-3.0414,-3.0279,-2.9592,-2.7847,-2.6686,-2.5593,-2.4223,-2.3479,-2.3106,-2.3106,-2.3106,-2.3208,-2.3486,-2.3808,-2.4027,-2.4071,-2.4151,-2.4113,-2.3883,-2.4703,-2.5827,-2.7082,-2.8301,-2.9568,-3.084,-3.0898,-3.0898,-3.0898,-3.0898,-3.0703,-3.0293,-2.9883,-2.9453,-2.9004,-2.8594,-2.834,-2.8301,-2.8301,-2.8301,-2.8301,-2.8301,-2.8301,-2.8301,-2.8301,-2.8301,-2.8301,-2.8301,-2.8301,-2.8301,-2.8301,-2.7906,-2.7206,-2.5388,-2.4356,-2.3536,-2.1117,-2.027,-2.0213,-1.9591,-1.943,-1.943,-1.943,-1.943,-1.943,-1.943,-1.943,-1.943,-1.943,-1.943,-1.943,-1.943,-1.943,-1.943,-1.943,-1.943,-1.943,-1.943,-1.943,-1.943,-1.943,-1.943,-1.9452,-1.9706,-1.9746,-1.9826,-2.008,-1.9893,-1.9746,-1.9746,-1.9519,-1.943,-1.943,-1.943,-1.943,-1.943,-1.943,-1.943,-1.943,-1.943,-1.943,-1.943,-1.943,-1.943,-1.943,-1.943,-1.943,-1.943,-1.943,-1.943,-2.8816,-3.0,-3.1249,-3.1457,-3.1484,-3.1058,-2.9797,-2.8499,-2.7041,-2.5327,-2.4409,-2.379,-2.3168,-2.3106,-2.3208,-2.3545,-2.3866,-2.4145,-2.4335,-2.4203,-2.4027,-2.3881,-2.4624,-2.5594,-2.69,-2.8182,-2.9527,-3.0762,-3.0898,-3.0898,-3.0898,-3.0898,-3.0684,-3.0215,-2.9785,-2.9355,-2.8926,-2.8496,-2.8301,-2.8301,-2.8301,-2.8301,-2.8301,-2.8301,-2.8301,-2.8301,-2.8301,-2.8301,-2.8301,-2.8301,-2.8301,-2.8301,-2.8301,-2.7906,-2.7206,-2.5388,-2.4356,-2.3536,-2.1117,-2.027,-2.0213,-1.9591,-1.943,-1.943,-1.943,-1.943,-1.943,-1.943,-1.943,-1.943,-1.943,-1.943,-1.943,-1.943,-1.943,-1.943,-1.943,-1.943,-1.943,-1.943,-1.943,-1.943,-1.943,-1.943,-1.9466,-1.976,-1.98,-1.9907,-2.0201,-2.012,-2.004,-2.004,-1.9933,-1.9853,-1.9853,-1.9853,-1.9853,-1.9853,-1.9853,-1.9853,-1.9853,-1.9853,-1.9853,-1.9853,-1.9533,-1.943,-1.943,-1.943,-1.943,-1.943,-1.943,-1.943,-2.9347,-3.0358,-3.1463,-3.1859,-3.1985,-3.1822,-3.1134,-2.9865,-2.8368,-2.6595,-2.5576,-2.4642,-2.3556,-2.323,-2.3237,-2.3647,-2.3925,-2.4203,-2.4525,-2.4291,-2.4057,-2.3969,-2.4655,-2.5594,-2.69,-2.8182,-2.9527,-3.0762,-3.0898,-3.084,-3.0723,-3.0723,-3.0449,-2.9883,-2.957,-2.9199,-2.8769,-2.8437,-2.8301,-2.8301,-2.8301,-2.8301,-2.8301,-2.8301,-2.8301,-2.8301,-2.8301,-2.8301,-2.8301,-2.8301,-2.8301,-2.8301,-2.8301,-2.7906,-2.7206,-2.5516,-2.4522,-2.3648,-2.1345,-2.05,-2.027,-1.9591,-1.943,-1.943,-1.943,-1.943,-1.943,-1.943,-1.943,-1.943,-1.943,-1.943,-1.943,-1.943,-1.943,-1.943,-1.943,-1.943,-1.943,-1.943,-1.943,-1.943,-1.943,-1.943,-1.9492,-1.9853,-1.9907,-2.004,-2.0414,-2.0388,-2.0347,-2.0347,-2.0281,-2.0167,-2.0167,-2.0167,-2.0167,-2.0167,-2.0167,-2.0167,-2.0167,-2.0167,-2.0167,-2.0167,-1.9733,-1.9479,-1.9479,-1.9399,-1.943,-1.943,-1.943,-1.943,-2.956,-2.9688,-3.0073,-3.1067,-3.121,-3.1098,-3.1176,-3.0353,-2.9217,-2.7902,-2.6782,-2.5688,-2.4285,-2.3542,-2.331,-2.3954,-2.4071,-2.4203,-2.4525,-2.4291,-2.3969,-2.3662,-2.4516,-2.5594,-2.69,-2.8182,-2.9527,-3.0762,-3.0898,-3.0703,-3.0254,-3.0234,-2.9844,-2.9004,-2.8965,-2.875,-2.832,-2.8301,-2.8301,-2.8301,-2.8301,-2.8301,-2.8301,-2.8301,-2.8301,-2.8301,-2.8301,-2.8301,-2.8301,-2.8301,-2.8301,-2.8301,-2.8301,-2.7906,-2.726,-2.6027,-2.502,-2.3983,-2.19,-2.0945,-2.0544,-1.9707,-1.943,-1.943,-1.943,-1.943,-1.943,-1.943,-1.943,-1.943,-1.943,-1.943,-1.943,-1.943,-1.943,-1.943,-1.943,-1.943,-1.943,-1.943,-1.943,-1.943,-1.943,-1.943,-1.9559,-2.012,-2.0153,-2.0414,-2.0989,-2.0828,-2.0655,-2.0655,-2.0401,-2.0167,-2.0167,-2.0167,-2.0167,-2.0167,-2.0167,-2.0167,-2.0167,-2.0167,-2.0167,-2.0167,-1.9933,-1.9773,-1.9773,-1.9506,-1.943,-1.943,-1.943,-1.943,-2.9338,-2.9677,-3.029,-3.0458,-3.0797,-3.1133,-3.1072,-3.0975,-3.0611,-2.9191,-2.8307,-2.7227,-2.5421,-2.4175,-2.3503,-2.377,-2.394,-2.4203,-2.4525,-2.4466,-2.4276,-2.3954,-2.4839,-2.5837,-2.6918,-2.8182,-2.9527,-3.0762,-3.0898,-3.0684,-3.0215,-3.0195,-2.9805,-2.8945,-2.8926,-2.8711,-2.8301,-2.8301,-2.8301,-2.8301,-2.8301,-2.8301,-2.8301,-2.8301,-2.8301,-2.8301,-2.8301,-2.8301,-2.8301,-2.8301,-2.8301,-2.8301,-2.8301,-2.8067,-2.7584,-2.6572,-2.5643,-2.4612,-2.2523,-2.146,-2.0831,-1.9764,-1.943,-1.943,-1.943,-1.943,-1.943,-1.943,-1.943,-1.943,-1.943,-1.943,-1.9412,-1.9599,-1.9639,-1.9693,-1.988,-1.9626,-1.943,-1.943,-1.943,-1.943,-1.943,-1.9519,-1.9773,-2.0174,-2.0401,-2.0655,-2.1056,-2.1015,-2.0949,-2.0949,-2.0855,-2.0802,-2.0802,-2.0802,-2.0802,-2.0802,-2.0802,-2.0802,-2.0802,-2.0802,-2.0802,-2.0802,-2.0321,-1.9987,-1.98,-1.9506,-1.943,-1.943,-1.943,-1.943,-2.952,-2.9721,-3.0185,-3.0133,-3.0349,-3.0668,-3.0974,-3.115,-3.1057,-3.0293,-2.9501,-2.8439,-2.6823,-2.5485,-2.4407,-2.3686,-2.3779,-2.4071,-2.451,-2.4481,-2.4364,-2.4262,-2.5178,-2.6145,-2.7044,-2.836,-2.9602,-3.0568,-3.0801,-3.0566,-2.9805,-2.9902,-2.959,-2.873,-2.8711,-2.8574,-2.8301,-2.8301,-2.8301,-2.8301,-2.8301,-2.8301,-2.8301,-2.8301,-2.8301,-2.8301,-2.8301,-2.8301,-2.8301,-2.8301,-2.8301,-2.8301,-2.8301,-2.8121,-2.7799,-2.7079,-2.6209,-2.5055,-2.3087,-2.19,-2.1117,-1.9822,-1.943,-1.943,-1.943,-1.943,-1.943,-1.943,-1.9439,-1.9506,-1.9506,-1.9586,-1.9706,-1.9907,-1.9947,-2.0,-2.0187,-1.9933,-1.9653,-1.9653,-1.9586,-1.9546,-1.9639,-1.9733,-1.9933,-2.0321,-2.0548,-2.0775,-2.1069,-2.1109,-2.1109,-2.1109,-2.1109,-2.1109,-2.1109,-2.1109,-2.1109,-2.1109,-2.1109,-2.1109,-2.1109,-2.1109,-2.1109,-2.1109,-2.0535,-2.0134,-1.9947,-1.9559,-1.943,-1.943,-1.943,-1.947,0.0,0.0,0.0,-3.0095,-2.967,-2.9501,-3.0906,-3.0801,-3.0544,-3.1085,-3.0396,-2.9484,-2.8483,-2.7486,-2.6113,-2.4048,-2.3667,-2.3887,-2.4518,-2.4342,-2.4268,-2.4591,-2.5501,-2.6485,-2.748,-2.8735,-2.9692,-3.0159,-3.0644,-3.0312,-2.9004,-2.9336,-2.916,-2.832,-2.8301,-2.8301,-2.8301,-2.8301,-2.8301,-2.8301,-2.8301,-2.8301,-2.8301,-2.8301,-2.8301,-2.8301,-2.8301,-2.8301,-2.8301,-2.8301,-2.8301,-2.8301,-2.8301,-2.8121,-2.7853,-2.753,-2.6718,-2.5459,-2.3648,-2.241,-2.1402,-1.988,-1.943,-1.943,-1.943,-1.943,-1.943,-1.943,-1.9573,-1.98,-1.9813,-2.0013,-2.018,-2.018,-2.018,-2.0254,-2.0193,-2.0254,-2.0193,-2.018,-2.0,-1.9907,-2.0187,-2.0,-2.0013,-2.0588,-2.0681,-2.0788,-2.1069,-2.1109,-2.1109,-2.1109,-2.1109,-2.1109,-2.1109,-2.1109,-2.1109,-2.1109,-2.1109,-2.1109,-2.1109,-2.1109,-2.1109,-2.1109,-2.0535,-2.018,-2.018,-1.9653,-1.943,-1.943,-1.943,-1.9533,-3.0191,0.0,0.0,0.0,0.0,0.0,-2.8947,-2.977,-3.0605,-3.0937,-3.1057,-3.0958,-3.0265,-2.9431,-2.848,-2.721,-2.5897,-2.5139,-2.5325,-2.5465,-2.5589,-2.5683,-2.6568,-2.7596,-2.8622,-2.9422,-3.0081,-3.0684,-3.082,-3.0449,-2.9453,-2.9199,-2.8848,-2.832,-2.8301,-2.8301,-2.8301,-2.8301,-2.8301,-2.8301,-2.8301,-2.8301,-2.8301,-2.8301,-2.8301,-2.8301,-2.8301,-2.8301,-2.8301,-2.8301,-2.8301,-2.8301,-2.8301,-2.8228,-2.8174,-2.8087,-2.7314,-2.61,-2.4228,-2.2846,-2.1687,-1.9938,-1.943,-1.943,-1.943,-1.943,-1.943,-1.943,-1.9573,-1.984,-2.0054,-2.0113,-2.0294,-2.0508,-2.0548,-2.0615,-2.0815,-2.0869,-2.0735,-2.026,-2.0174,-2.0134,-2.0214,-2.0347,-2.0494,-2.0655,-2.0855,-2.1015,-2.1096,-2.1109,-2.1109,-2.1109,-2.1109,-2.1109,-2.1109,-2.1109,-2.1109,-2.1109,-2.1109,-2.1109,-2.1109,-2.1109,-2.1109,-2.1109,-2.0748,-2.0548,-2.0548,-1.976,-1.943,-1.943,-1.9586,-1.972,-3.0097,-3.0324,-3.0547,-2.9661,0.0,0.0,-2.9034,-2.9501,-3.0191,-3.0915,-3.1092,-3.1134,-3.1009,-3.0353,-2.9585,-2.8906,-2.7789,-2.6929,-2.6668,-2.6687,-2.6769,-2.6853,-2.7647,-2.8529,-2.9466,-2.9984,-3.0301,-3.0587,-3.0605,-3.0215,-2.9336,-2.9062,-2.873,-2.8301,-2.8301,-2.8301,-2.8301,-2.8301,-2.8301,-2.8301,-2.8301,-2.8301,-2.8301,-2.8301,-2.8301,-2.8301,-2.8301,-2.8301,-2.8301,-2.8301,-2.8301,-2.8301,-2.8301,-2.8301,-2.8301,-2.8301,-2.7638,-2.6536,-2.4782,-2.3447,-2.2199,-2.0385,-1.9707,-1.9533,-1.9417,-1.943,-1.943,-1.943,-1.9666,-2.008,-2.0494,-2.0601,-2.0641,-2.0815,-2.0855,-2.0909,-2.1069,-2.1109,-2.1002,-2.0668,-2.0494,-2.0454,-2.0575,-2.0641,-2.0722,-2.0842,-2.1002,-2.1109,-2.1109,-2.1109,-2.1109,-2.1109,-2.1109,-2.1109,-2.1109,-2.1109,-2.1109,-2.1109,-2.1109,-2.1109,-2.1109,-2.1109,-2.1109,-2.1109,-2.0828,-2.0561,-2.0307,-1.98,-1.9492,-1.943,-1.9666,-1.9867,-3.0195,-3.0434,-3.068,-3.0326,-2.9892,0.0,-3.0071,-2.9672,-2.9534,-3.0826,-3.0723,-3.0565,-3.099,-3.0536,-2.999,-2.967,-2.9393,-2.8992,-2.8355,-2.7961,-2.7875,-2.8191,-2.8825,-2.9466,-3.013,-3.0447,-3.056,-3.0275,-3.0234,-2.9863,-2.9101,-2.9023,-2.8789,-2.8379,-2.832,-2.8301,-2.8301,-2.8301,-2.8301,-2.8301,-2.8301,-2.8301,-2.8301,-2.8301,-2.8301,-2.8301,-2.8301,-2.8301,-2.8301,-2.8301,-2.8301,-2.8301,-2.8301,-2.8301,-2.8301,-2.8301,-2.7745,-2.6808,-2.5351,-2.4078,-2.2805,-2.1002,-2.0155,-1.9822,-1.9475,-1.943,-1.9386,-1.9452,-1.984,-2.0374,-2.0949,-2.1109,-2.1109,-2.1109,-2.1109,-2.1109,-2.1109,-2.1109,-2.1109,-2.1109,-2.0895,-2.0802,-2.1069,-2.0895,-2.0815,-2.1069,-2.1109,-2.1109,-2.1109,-2.1109,-2.1109,-2.1109,-2.1109,-2.1109,-2.1109,-2.1109,-2.1109,-2.1109,-2.1109,-2.1109,-2.1109,-2.1109,-2.1109,-2.1109,-2.0855,-2.0454,-1.9893,-1.9826,-1.9653,-1.943,-1.9693,-1.9987,-3.1764,-3.201,-3.2141,-3.1468,-3.0939,0.0,-2.9445,-2.9508,-2.9756,-2.9684,-3.0145,-3.0603,-3.0918,-3.082,-3.0722,-3.0644,-3.0586,-3.023,-2.9435,-2.9234,-2.9324,-2.9723,-3.0105,-3.0476,-3.0888,-3.1199,-3.118,-3.082,-3.041,-3.0117,-2.9961,-2.9629,-2.9238,-2.8809,-2.8476,-2.8301,-2.8301,-2.8301,-2.8301,-2.8301,-2.8301,-2.8301,-2.8301,-2.8301,-2.8301,-2.8301,-2.8301,-2.8301,-2.8301,-2.8301,-2.8301,-2.8301,-2.8301,-2.8301,-2.8301,-2.8301,-2.7853,-2.7152,-2.5845,-2.4689,-2.3424,-2.1631,-2.0673,-2.0097,-1.9533,-1.943,-1.9466,-1.9933,-2.0147,-2.0374,-2.0949,-2.1109,-2.1109,-2.1109,-2.1109,-2.1109,-2.1109,-2.1109,-2.1109,-2.1109,-2.1069,-2.1042,-2.1096,-2.1069,-2.1042,-2.1096,-2.1109,-2.1109,-2.1109,-2.1109,-2.1109,-2.1109,-2.1109,-2.1109,-2.1109,-2.1109,-2.1109,-2.1109,-2.1109,-2.1109,-2.1109,-2.1109,-2.1109,-2.1109,-2.1056,-2.0855,-2.0508,-2.0027,-1.9653,-1.943,-1.9907,-2.0174,-3.2641,-3.2871,-3.2989,-3.2523,-3.1944,0.0,0.0,-3.0263,-3.0149,-3.0013,-3.0323,-3.06,-3.0648,-3.0519,-3.0406,-3.0291,-3.0234,-3.0219,-3.0268,-3.0414,-3.0698,-3.1176,-3.1356,-3.1478,-3.1661,-3.159,-3.1286,-3.0605,-3.0547,-3.0351,-2.9902,-2.9687,-2.9375,-2.8926,-2.8516,-2.8301,-2.8301,-2.8301,-2.8301,-2.8301,-2.8301,-2.8301,-2.8301,-2.8301,-2.8301,-2.8301,-2.8301,-2.8301,-2.8301,-2.8301,-2.8301,-2.8301,-2.8301,-2.8301,-2.8301,-2.8301,-2.7906,-2.7206,-2.6045,-2.4872,-2.3592,-2.1915,-2.0902,-2.0213,-1.9764,-1.9582,-1.9706,-2.0294,-2.0454,-2.0609,-2.1177,-2.1488,-2.1677,-2.1803,-2.1978,-2.2041,-2.1866,-2.174,-2.1614,-2.1614,-2.1614,-2.1488,-2.1172,-2.1109,-2.1109,-2.1109,-2.1109,-2.1109,-2.1109,-2.1109,-2.1109,-2.1109,-2.1109,-2.1109,-2.1109,-2.1109,-2.1109,-2.1109,-2.1109,-2.1109,-2.1109,-2.1109,-2.1109,-2.1109,-2.1109,-2.0962,-2.0681,-2.0388,-2.008,-1.9813,-2.0254,-2.0454,-3.3395,-3.3589,-3.3692,-3.3534,-3.2995,-3.2432,0.0,0.0,0.0,-3.0997,-3.0915,-3.0775,-3.0445,-3.0143,-2.9778,-2.9427,-2.9394,-2.9726,-3.0527,-3.0996,-3.1465,-3.1973,-3.2051,-3.2051,-3.2051,-3.1719,-3.1191,-3.0391,-3.0586,-3.0449,-2.9726,-2.9609,-2.9453,-2.918,-2.8672,-2.8418,-2.8418,-2.834,-2.8301,-2.8301,-2.8301,-2.8301,-2.8301,-2.8301,-2.8301,-2.8301,-2.8301,-2.8301,-2.8301,-2.8301,-2.8301,-2.8301,-2.8301,-2.8301,-2.8301,-2.8301,-2.7906,-2.726,-2.6063,-2.4944,-2.372,-2.2101,-2.096,-2.0169,-1.9935,-1.9848,-1.992,-2.0508,-2.0681,-2.0873,-2.1532,-2.1978,-2.2418,-2.2793,-2.3168,-2.3355,-2.2981,-2.2543,-2.2292,-2.2292,-2.2292,-2.2104,-2.1425,-2.1299,-2.1299,-2.1235,-2.1172,-2.1109,-2.1109,-2.1109,-2.1109,-2.1109,-2.1109,-2.1109,-2.1109,-2.1109,-2.1109,-2.1109,-2.1109,-2.1109,-2.1109,-2.1109,-2.1109,-2.1109,-2.1109,-2.0989,-2.0762,-2.0762,-2.0575,-2.0241,-2.0535,-2.0681,-3.4525,-3.453,-3.458,-3.4535,-3.4309,-3.397,-3.3281,0.0,-3.3003,-3.2124,0.0,-3.1519,-3.0527,0.0,0.0,-2.8598,-2.875,-2.916,-2.9704,-3.0078,-3.0664,-3.1484,-3.1582,-3.1582,-3.1582,-3.1543,-3.1328,-3.084,-3.0488,-3.0234,-3.0137,-2.9766,-2.9726,-3.0039,-2.9277,-2.8848,-2.8848,-2.8476,-2.8301,-2.8301,-2.8301,-2.8301,-2.8301,-2.8301,-2.8301,-2.8301,-2.8301,-2.8301,-2.8301,-2.8301,-2.8301,-2.8301,-2.8301,-2.8301,-2.8301,-2.8301,-2.7906,-2.7206,-2.6027,-2.5038,-2.3983,-2.2184,-2.0831,-1.9921,-2.0137,-2.0069,-1.992,-2.0508,-2.0681,-2.0935,-2.1783,-2.2529,-2.3139,-2.376,-2.4379,-2.4625,-2.407,-2.345,-2.3014,-2.2981,-2.2966,-2.2779,-2.2104,-2.1992,-2.1866,-2.1614,-2.1299,-2.1109,-2.1109,-2.1109,-2.1109,-2.1109,-2.1109,-2.1109,-2.1109,-2.1109,-2.1109,-2.1109,-2.1109,-2.1109,-2.1109,-2.1109,-2.1109,-2.1109,-2.1109,-2.1096,-2.1056,-2.1056,-2.0775,-2.0241,-2.0535,-2.0681,-3.568,-3.568,-3.568,-3.568,-3.529,-3.4718,-3.4277,-3.4144,-3.3767,-3.2723,0.0,0.0,0.0,0.0,0.0,0.0,-2.8708,-2.8928,-2.9435,-2.9466,-2.9883,-3.1016,-3.1367,-3.1523,-3.1523,-3.1289,-3.1074,-3.0898,-3.0449,-3.0312,-3.0586,-2.9941,-2.9766,-3.0176,-2.9355,-2.8926,-2.8926,-2.8496,-2.8301,-2.8301,-2.8301,-2.8301,-2.8301,-2.8301,-2.8301,-2.8301,-2.8301,-2.8301,-2.8301,-2.8301,-2.8301,-2.8301,-2.8301,-2.8301,-2.832,-2.8574,-2.8273,-2.7563,-2.6442,-2.544,-2.4315,-2.2318,-2.1162,-2.062,-2.0763,-2.0611,-2.0401,-2.0815,-2.0922,-2.1137,-2.1888,-2.2606,-2.334,-2.4147,-2.501,-2.5501,-2.5087,-2.4579,-2.427,-2.4286,-2.427,-2.4147,-2.3914,-2.323,-2.2466,-2.1978,-2.1425,-2.1109,-2.1109,-2.1109,-2.1109,-2.1109,-2.1109,-2.1109,-2.1109,-2.1109,-2.1109,-2.1109,-2.1109,-2.1109,-2.1109,-2.1109,-2.1109,-2.1109,-2.1109,-2.1109,-2.1109,-2.1109,-2.0975,-2.0748,-2.0869,-2.0922,-3.6405,-3.6405,-3.6405,-3.6405,-3.5962,-3.5475,-3.5263,-3.493,-3.4572,-3.4121,-3.3768,0.0,0.0,0.0,-3.0772,-2.9746,0.0,-2.9199,-2.9218,-2.8987,-2.9254,-3.0391,-3.1016,-3.1289,-3.1172,-3.0996,-3.084,-3.0703,-3.0176,-3.0098,-3.0664,-2.998,-2.9824,-3.0371,-2.9668,-2.9277,-2.9277,-2.873,-2.8457,-2.8457,-2.834,-2.8301,-2.8301,-2.8301,-2.8301,-2.8301,-2.8301,-2.8301,-2.8301,-2.8301,-2.8301,-2.8301,-2.8301,-2.8359,-2.8496,-2.8809,-2.86,-2.8032,-2.6843,-2.5613,-2.4357,-2.279,-2.1891,-2.1421,-2.146,-2.1101,-2.0735,-2.1029,-2.1109,-2.1235,-2.1915,-2.2606,-2.3355,-2.4471,-2.5578,-2.625,-2.6022,-2.5762,-2.5623,-2.5594,-2.5639,-2.5623,-2.5594,-2.4517,-2.3402,-2.2606,-2.1866,-2.1362,-2.1235,-2.1172,-2.1109,-2.1109,-2.1109,-2.1109,-2.1109,-2.1109,-2.1172,-2.1362,-2.1362,-2.1362,-2.1362,-2.1299,-2.1172,-2.1109,-2.1109,-2.1109,-2.1109,-2.1109,-2.1109,-2.1109,-2.1109,-2.1109,-3.6405,-3.6405,-3.6405,-3.6405,-3.6405,-3.638,-3.6332,-3.5884,-3.5762,-3.6837,-3.6205,-3.5576,-3.5774,-3.475,-3.3327,-3.1749,-3.0831,0.0,0.0,-2.8694,-2.8923,-2.9567,-3.0371,-3.0742,-3.0293,-3.0644,-3.0703,-3.0254,-2.9434,-2.9336,-3.0176,-2.9805,-2.9961,-3.084,-3.041,-3.0156,-3.0156,-2.9316,-2.8906,-2.8906,-2.8496,-2.8301,-2.8301,-2.8301,-2.8301,-2.8301,-2.8301,-2.8301,-2.8301,-2.8301,-2.8301,-2.8301,-2.8301,-2.8535,-2.8906,-2.8906,-2.8793,-2.8465,-2.7139,-2.5478,-2.3898,-2.3845,-2.3037,-2.2068,-2.2054,-2.141,-2.0735,-2.1029,-2.1109,-2.1235,-2.1915,-2.2591,-2.345,-2.4764,-2.605,-2.6961,-2.6935,-2.6978,-2.6961,-2.6935,-2.6918,-2.6961,-2.6935,-2.5884,-2.4702,-2.3728,-2.2731,-2.1915,-2.1614,-2.1299,-2.1109,-2.1109,-2.1109,-2.1109,-2.1109,-2.1109,-2.1362,-2.2041,-2.2041,-2.2041,-2.2041,-2.174,-2.1425,-2.1109,-2.1109,-2.1109,-2.1109,-2.1109,-2.1109,-2.1109,-2.1109,-2.1109,-3.6479,-3.638,-3.6428,-3.6646,-3.642,-3.6093,-3.5859,-3.6232,-3.6533,-3.6135,-3.6295,-3.6283,-3.5623,-3.5001,-3.3945,-3.2229,-3.149,-3.0653,0.0,-2.8674,-2.8506,-2.8746,-2.8984,-2.9434,-3.0137,-3.0078,-3.0195,-3.0625,-2.957,-2.9297,-3.0156,-2.9805,-2.9844,-3.041,-3.0273,-3.0195,-3.0195,-2.9355,-2.8926,-2.8906,-2.8496,-2.8301,-2.8301,-2.8301,-2.8301,-2.8301,-2.8301,-2.8301,-2.8301,-2.8301,-2.8301,-2.8301,-2.8301,-2.873,-2.9355,-2.9355,-2.9405,-2.9298,-2.8214,-2.6857,-2.5583,-2.5069,-2.4138,-2.3037,-2.2566,-2.1763,-2.0989,-2.1082,-2.1109,-2.1172,-2.1677,-2.2104,-2.2793,-2.41,-2.5378,-2.6493,-2.6935,-2.7358,-2.7642,-2.7659,-2.7642,-2.7642,-2.7659,-2.728,-2.6493,-2.4826,-2.3527,-2.2529,-2.1978,-2.1425,-2.1109,-2.1109,-2.1109,-2.1109,-2.1109,-2.1488,-2.2041,-2.2716,-2.2793,-2.2793,-2.2779,-2.223,-2.1677,-2.1109,-2.1109,-2.1109,-2.1109,-2.1109,-2.1109,-2.1109,-2.1109,-2.1109,-3.5827,-3.5881,-3.6131,-3.6554,-3.653,-3.6403,-3.6413,-3.681,-3.7086,-3.6784,-3.7039,-3.7194,-3.69,-3.6375,-3.5297,-3.339,-3.2583,-3.1474,0.0,-2.8536,-2.8125,-2.8281,-2.8418,-2.8848,-2.9668,-2.9492,-2.9648,-3.0371,-2.9355,-2.9141,-3.0137,-2.9805,-2.9844,-3.043,-3.0449,-3.0449,-3.0449,-2.9726,-2.9375,-2.9375,-2.8789,-2.8516,-2.8516,-2.8359,-2.8301,-2.8301,-2.8301,-2.8379,-2.8516,-2.8516,-2.8613,-2.875,-2.875,-2.918,-2.9785,-2.9629,-2.9731,-2.9872,-2.922,-2.8249,-2.7172,-2.6395,-2.5131,-2.3764,-2.3003,-2.1978,-2.1109,-2.1109,-2.1109,-2.1172,-2.1362,-2.1614,-2.2104,-2.3417,-2.4702,-2.5928,-2.6874,-2.7719,-2.8379,-2.8379,-2.8379,-2.8379,-2.8379,-2.8379,-2.7702,-2.5945,-2.4564,-2.3589,-2.2918,-2.223,-2.179,-2.1677,-2.1551,-2.1362,-2.1109,-2.179,-2.2606,-2.3387,-2.3604,-2.3666,-2.3822,-2.3029,-2.223,-2.1488,-2.1362,-2.1235,-2.1109,-2.1109,-2.1109,-2.1109,-2.1109,-2.1109]},{"header":{"parameterUnit":"m.s-1","parameterCategory":1,"la1":30.6,"la2":29.2853,"lo1":-89.7004,"lo2":-87.6739,"dy":0.0162,"dx":0.0183,"nx":112,"ny":82,"refTime":"2026-05-13T00:00:00:Z","depth":0,"parameterNumber":3,"parameterNumberName":"V-component_of_WINDS"},"data":[0.0,0.0,0.0,0.0,0.0,0.0,0.0,0.0,0.0,0.0,0.0,0.0,0.0,0.0,0.0,0.0,0.0,0.0,0.0,0.0,0.0,0.0,0.0,0.0,0.0,0.0,0.0,0.0,0.0,0.0,0.0,0.0,0.0,0.0,0.0,0.0,0.0,0.0,0.0,0.0,0.0,0.0,0.0,0.0,0.0,0.0,0.0,0.0,0.0,0.0,0.0,0.0,0.0,0.0,0.0,0.0,0.0,0.0,0.0,0.0,0.0,0.0,0.0,0.0,0.0,0.0,0.0,0.0,0.0,0.0,0.0,0.0,0.0,0.0,0.0,0.0,0.0,0.0,0.0,0.0,0.0,0.0,0.0,0.0,0.0,0.0,0.0,0.0,0.0,0.0,2.6126,2.6657,2.6884,2.6717,2.5973,2.5438,2.4836,2.4015,0.0,0.0,0.0,0.0,0.0,0.0,0.0,0.0,0.0,0.0,0.0,0.0,0.0,0.0,0.0,0.0,0.0,0.0,0.0,0.0,0.0,0.0,0.0,0.0,0.0,0.0,0.0,0.0,0.0,0.0,0.0,0.0,0.0,0.0,0.0,0.0,0.0,0.0,0.0,0.0,0.0,0.0,0.0,0.0,0.0,0.0,0.0,0.0,0.0,0.0,0.0,0.0,0.0,0.0,0.0,0.0,0.0,0.0,0.0,0.0,0.0,0.0,0.0,0.0,0.0,0.0,0.0,0.0,0.0,0.0,0.0,0.0,0.0,0.0,0.0,0.0,0.0,0.0,0.0,0.0,0.0,0.0,0.0,0.0,0.0,0.0,0.0,0.0,0.0,0.0,0.0,0.0,0.0,0.0,0.0,0.0,0.0,0.0,0.0,0.0,0.0,0.0,0.0,0.0,2.6232,2.7083,2.7352,2.7505,2.761,2.7024,2.6522,2.6178,0.0,0.0,0.0,0.0,0.0,0.0,0.0,0.0,0.0,0.0,0.0,0.0,0.0,0.0,0.0,0.0,0.0,0.0,0.0,0.0,0.0,0.0,0.0,0.0,0.0,0.0,0.0,0.0,0.0,0.0,0.0,0.0,0.0,0.0,0.0,0.0,0.0,0.0,0.0,0.0,0.0,0.0,0.0,0.0,0.0,0.0,0.0,0.0,0.0,0.0,0.0,0.0,0.0,0.0,0.0,0.0,0.0,0.0,0.0,0.0,0.0,0.0,0.0,0.0,0.0,0.0,0.0,0.0,0.0,0.0,0.0,0.0,0.0,0.0,0.0,0.0,0.0,0.0,0.0,0.0,0.0,0.0,0.0,0.0,0.0,0.0,0.0,0.0,0.0,0.0,0.0,0.0,0.0,0.0,0.0,0.0,0.0,0.0,0.0,0.0,0.0,0.0,0.0,2.7261,2.7654,2.8055,2.8079,2.7998,2.7998,2.7405,2.6915,2.6636,2.4682,0.0,0.0,0.0,0.0,0.0,0.0,0.0,0.0,0.0,0.0,0.0,0.0,0.0,0.0,0.0,0.0,0.0,0.0,0.0,0.0,0.0,0.0,0.0,0.0,0.0,0.0,0.0,0.0,0.0,0.0,0.0,0.0,0.0,0.0,0.0,0.0,0.0,0.0,0.0,0.0,0.0,0.0,0.0,0.0,0.0,0.0,0.0,0.0,0.0,0.0,0.0,0.0,0.0,0.0,0.0,0.0,0.0,0.0,0.0,0.0,0.0,0.0,0.0,0.0,0.0,0.0,0.0,0.0,0.0,0.0,0.0,0.0,0.0,0.0,0.0,0.0,0.0,0.0,0.0,0.0,0.0,0.0,0.0,0.0,0.0,0.0,0.0,0.0,0.0,0.0,0.0,0.0,0.0,0.0,0.0,0.0,0.0,0.0,0.0,0.0,0.0,0.0,2.9034,2.9172,2.9227,2.874,2.8348,2.8186,2.7549,2.7056,2.6793,2.5248,0.0,0.0,0.0,0.0,0.0,0.0,0.0,0.0,0.0,0.0,0.0,0.0,0.0,0.0,0.0,0.0,0.0,0.0,0.0,0.0,0.0,0.0,0.0,0.0,0.0,0.0,0.0,0.0,0.0,0.0,0.0,0.0,0.0,0.0,0.0,0.0,0.0,0.0,0.0,0.0,0.0,0.0,0.0,0.0,0.0,0.0,0.0,0.0,0.0,0.0,0.0,0.0,0.0,0.0,0.0,0.0,0.0,0.0,0.0,0.0,0.0,0.0,0.0,0.0,0.0,0.0,0.0,0.0,0.0,0.0,0.0,0.0,0.0,0.0,0.0,0.0,0.0,0.0,0.0,0.0,0.0,0.0,0.0,0.0,0.0,0.0,0.0,0.0,0.0,0.0,0.0,0.0,0.0,0.0,0.0,0.0,0.0,0.0,0.0,0.0,0.0,0.0,3.0204,3.0239,3.0533,2.9242,2.8488,2.8699,2.8058,2.7536,2.7259,2.5718,0.0,0.0,0.0,0.0,0.0,0.0,0.0,0.0,0.0,0.0,0.0,0.0,0.0,0.0,0.0,0.0,0.0,0.0,0.0,0.0,0.0,0.0,0.0,0.0,0.0,0.0,0.0,0.0,0.0,0.0,0.0,0.0,0.0,0.0,0.0,0.0,0.0,0.0,0.0,0.0,0.0,0.0,0.0,0.0,0.0,0.0,0.0,0.0,0.0,0.0,0.0,0.0,0.0,0.0,0.0,0.0,0.0,0.0,0.0,0.0,0.0,0.0,0.0,0.0,0.0,0.0,0.0,0.0,0.0,0.0,0.0,0.0,0.0,0.0,0.0,0.0,0.0,0.0,0.0,0.0,0.0,0.0,0.0,0.0,0.0,0.0,0.0,0.0,0.0,0.0,0.0,0.0,0.0,0.0,0.0,0.0,0.0,0.0,0.0,0.0,0.0,0.0,3.14,3.15,3.139,3.0558,2.9914,2.9691,2.8835,2.8296,2.8203,0.0,0.0,0.0,0.0,0.0,0.0,0.0,0.0,0.0,0.0,0.0,0.0,0.0,0.0,0.0,0.0,0.0,0.0,0.0,0.0,0.0,0.0,0.0,0.0,0.0,0.0,0.0,0.0,0.0,0.0,0.0,0.0,0.0,0.0,0.0,0.0,0.0,0.0,0.0,0.0,0.0,0.0,0.0,0.0,0.0,0.0,0.0,0.0,0.0,0.0,0.0,0.0,0.0,0.0,0.0,0.0,0.0,0.0,0.0,0.0,0.0,0.0,0.0,0.0,0.0,0.0,0.0,0.0,0.0,0.0,0.0,0.0,0.0,0.0,0.0,0.0,0.0,0.0,0.0,0.0,0.0,0.0,0.0,0.0,0.0,0.0,0.0,0.0,0.0,0.0,0.0,0.0,0.0,0.0,0.0,0.0,0.0,0.0,0.0,0.0,0.0,0.0,3.2114,3.2616,3.2807,3.2659,3.1921,3.1249,3.0691,2.9689,2.9106,2.9106,0.0,0.0,0.0,0.0,0.0,0.0,0.0,0.0,0.0,0.0,0.0,0.0,0.0,0.0,0.0,0.0,0.0,0.0,0.0,0.0,0.0,0.0,0.0,0.0,0.0,0.0,0.0,0.0,0.0,0.0,0.0,0.0,0.0,0.0,0.0,0.0,0.0,0.0,0.0,0.0,0.0,0.0,0.0,0.0,0.0,0.0,0.0,0.0,0.0,0.0,0.0,0.0,0.0,0.0,0.0,0.0,0.0,0.0,0.0,0.0,0.0,0.0,0.0,0.0,0.0,0.0,0.0,0.0,0.0,0.0,0.0,0.0,0.0,0.0,0.0,0.0,0.0,0.0,0.0,0.0,0.0,0.0,0.0,0.0,0.0,0.0,0.0,0.0,0.0,0.0,0.0,0.0,0.0,0.0,0.0,0.0,0.0,0.0,0.0,0.0,0.0,0.0,3.3762,3.3954,3.4028,3.4379,3.3277,3.2268,3.1693,3.0657,3.0013,0.0,0.0,0.0,0.0,0.0,0.0,0.0,0.0,0.0,0.0,0.0,0.0,0.0,0.0,0.0,0.0,0.0,0.0,0.0,0.0,0.0,0.0,0.0,0.0,0.0,0.0,0.0,0.0,0.0,0.0,0.0,0.0,0.0,0.0,0.0,0.0,0.0,0.0,0.0,0.0,0.0,0.0,0.0,0.0,0.0,0.0,0.0,0.0,0.0,0.0,0.0,0.0,0.0,0.0,0.0,0.0,0.0,0.0,0.0,0.0,0.0,0.0,0.0,0.0,0.0,0.0,0.0,0.0,0.0,0.0,0.0,0.0,0.0,0.0,0.0,0.0,0.0,0.0,0.0,0.0,0.0,0.0,0.0,0.0,0.0,0.0,0.0,0.0,0.0,0.0,0.0,0.0,0.0,0.0,0.0,0.0,0.0,0.0,0.0,0.0,0.0,0.0,0.0,3.3778,3.4238,3.4622,3.5406,3.4245,3.3375,3.3245,3.1836,3.0993,3.0993,0.0,0.0,0.0,0.0,0.0,0.0,0.0,0.0,0.0,0.0,0.0,0.0,0.0,0.0,0.0,0.0,0.0,0.0,0.0,0.0,0.0,0.0,0.0,0.0,0.0,0.0,0.0,0.0,0.0,0.0,0.0,0.0,0.0,0.0,0.0,0.0,0.0,0.0,0.0,0.0,0.0,0.0,0.0,0.0,0.0,0.0,0.0,0.0,0.0,0.0,0.0,0.0,0.0,0.0,0.0,0.0,0.0,0.0,0.0,0.0,0.0,0.0,0.0,0.0,0.0,0.0,0.0,0.0,0.0,0.0,0.0,0.0,0.0,0.0,0.0,0.0,0.0,0.0,0.0,0.0,0.0,0.0,0.0,0.0,0.0,0.0,0.0,0.0,0.0,0.0,0.0,0.0,0.0,0.0,0.0,0.0,0.0,0.0,0.0,0.0,0.0,0.0,3.3591,3.4451,3.5045,3.5608,3.4689,3.3964,3.3803,3.2628,3.1735,3.1275,0.0,0.0,0.0,0.0,0.0,0.0,0.0,0.0,0.0,0.0,0.0,0.0,0.0,0.0,0.0,0.0,0.0,0.0,0.0,0.0,0.0,0.0,0.0,0.0,0.0,0.0,0.0,0.0,0.0,0.0,0.0,0.0,0.0,0.0,0.0,0.0,0.0,0.0,0.0,0.0,0.0,0.0,0.0,0.0,0.0,0.0,0.0,0.0,0.0,0.0,0.0,0.0,0.0,0.0,0.0,0.0,0.0,0.0,0.0,0.0,0.0,0.0,0.0,0.0,0.0,0.0,0.0,0.0,0.0,0.0,0.0,0.0,0.0,0.0,0.0,0.0,0.0,0.0,0.0,0.0,0.0,0.0,0.0,0.0,0.0,0.0,0.0,0.0,0.0,0.0,0.0,0.0,0.0,0.0,0.0,0.0,0.0,0.0,0.0,0.0,0.0,0.0,3.3473,3.4653,3.5388,3.5493,3.4916,3.4312,3.384,3.3237,3.2397,3.1243,0.0,0.0,0.0,0.0,0.0,0.0,0.0,0.0,0.0,0.0,0.0,0.0,0.0,0.0,0.0,0.0,0.0,0.0,0.0,0.0,0.0,0.0,0.0,0.0,0.0,0.0,0.0,0.0,0.0,0.0,0.0,0.0,0.0,0.0,0.0,0.0,0.0,0.0,0.0,0.0,0.0,0.0,0.0,0.0,0.0,0.0,0.0,0.0,0.0,0.0,0.0,0.0,0.0,0.0,0.0,0.0,0.0,0.0,0.0,0.0,3.8885,3.7957,0.0,0.0,0.0,0.0,0.0,0.0,0.0,0.0,0.0,0.0,0.0,0.0,0.0,0.0,0.0,0.0,0.0,0.0,0.0,0.0,0.0,0.0,0.0,0.0,0.0,0.0,0.0,0.0,0.0,0.0,0.0,0.0,0.0,0.0,0.0,0.0,0.0,0.0,0.0,0.0,3.4269,3.5184,3.5992,3.6865,3.6004,3.5372,3.5171,3.4739,3.3877,3.2654,3.19,0.0,0.0,0.0,0.0,0.0,0.0,0.0,0.0,0.0,0.0,0.0,0.0,0.0,0.0,0.0,0.0,0.0,0.0,0.0,0.0,0.0,0.0,0.0,0.0,0.0,0.0,0.0,0.0,0.0,0.0,0.0,0.0,0.0,0.0,0.0,0.0,0.0,0.0,0.0,0.0,0.0,0.0,0.0,0.0,0.0,0.0,0.0,0.0,0.0,0.0,0.0,0.0,0.0,0.0,0.0,0.0,0.0,0.0,0.0,4.1523,4.064,0.0,0.0,0.0,0.0,0.0,0.0,0.0,0.0,0.0,0.0,0.0,0.0,0.0,0.0,0.0,0.0,0.0,0.0,0.0,0.0,0.0,0.0,0.0,0.0,0.0,0.0,0.0,0.0,0.0,0.0,0.0,0.0,0.0,0.0,0.0,0.0,0.0,0.0,0.0,0.0,3.4946,3.5975,3.6781,3.738,3.6642,3.5986,3.5642,3.5374,3.4427,3.2583,3.2166,0.0,0.0,0.0,0.0,0.0,0.0,0.0,0.0,0.0,0.0,0.0,0.0,0.0,0.0,0.0,0.0,0.0,0.0,0.0,0.0,0.0,0.0,0.0,0.0,0.0,0.0,0.0,0.0,0.0,0.0,0.0,0.0,0.0,0.0,0.0,0.0,0.0,0.0,0.0,0.0,0.0,0.0,0.0,0.0,0.0,0.0,0.0,0.0,0.0,0.0,0.0,0.0,0.0,4.4883,4.5277,4.5751,4.5966,4.6355,4.6727,4.5022,4.4123,4.3877,4.3796,0.0,0.0,0.0,0.0,0.0,0.0,0.0,0.0,0.0,0.0,0.0,0.0,0.0,0.0,0.0,0.0,0.0,0.0,0.0,0.0,0.0,0.0,4.2679,4.2428,4.2128,4.1217,3.8564,0.0,0.0,0.0,0.0,0.0,0.0,0.0,0.0,0.0,0.0,0.0,3.5813,3.702,3.7701,3.7701,3.7279,3.6683,3.5899,3.5928,3.4979,3.2565,3.2306,3.1674,0.0,0.0,0.0,0.0,0.0,0.0,0.0,0.0,0.0,0.0,0.0,0.0,0.0,0.0,0.0,0.0,0.0,0.0,0.0,0.0,0.0,0.0,0.0,0.0,0.0,0.0,0.0,0.0,0.0,0.0,0.0,0.0,4.3155,4.3618,0.0,0.0,0.0,0.0,0.0,0.0,0.0,0.0,0.0,0.0,0.0,0.0,0.0,4.4981,4.5799,4.6505,4.7317,4.8235,4.8626,4.8923,4.8969,4.9205,4.9526,5.0021,5.0275,0.0,4.515,4.6105,0.0,0.0,0.0,0.0,0.0,0.0,0.0,0.0,0.0,0.0,0.0,0.0,0.0,0.0,0.0,0.0,0.0,0.0,0.0,0.0,0.0,0.0,4.491,4.3686,4.3363,4.3136,4.2453,4.1345,4.0385,3.9852,3.8262,3.645,0.0,0.0,0.0,0.0,0.0,0.0,3.7239,3.815,3.862,3.862,3.8561,3.8003,3.677,3.721,3.6652,3.4626,3.395,3.3069,3.1777,3.1449,0.0,0.0,0.0,0.0,0.0,0.0,0.0,0.0,0.0,0.0,0.0,0.0,0.0,0.0,0.0,0.0,0.0,0.0,0.0,0.0,0.0,0.0,0.0,0.0,0.0,0.0,0.0,0.0,0.0,4.5014,4.4955,4.525,4.5014,4.4571,0.0,0.0,0.0,0.0,0.0,0.0,0.0,0.0,0.0,4.6821,4.7089,4.7921,4.934,4.9934,5.0756,5.177,5.2317,5.2585,5.2585,5.2839,5.3081,5.3279,5.3555,5.2185,4.9747,4.914,4.7885,4.6287,0.0,0.0,0.0,0.0,4.5125,4.5194,4.5704,4.5925,4.6059,4.6049,0.0,0.0,0.0,0.0,0.0,0.0,0.0,4.4038,4.4625,4.5571,4.6225,4.5601,4.5766,4.5963,4.5602,4.4573,4.3249,4.1627,3.9545,3.7773,3.689,3.5183,0.0,0.0,0.0,3.7389,3.8594,3.935,3.9773,3.9773,3.9773,3.938,3.8413,3.8594,3.8081,3.6481,3.6086,3.5513,3.4575,3.3307,3.2705,0.0,0.0,0.0,0.0,0.0,0.0,0.0,0.0,0.0,0.0,0.0,0.0,0.0,0.0,0.0,0.0,0.0,0.0,0.0,0.0,0.0,0.0,0.0,0.0,0.0,0.0,0.0,0.0,4.6569,4.6791,4.7056,4.6978,4.6508,0.0,0.0,0.0,0.0,0.0,0.0,4.716,4.8079,4.8894,4.961,4.9751,5.0593,5.2014,5.2613,5.3428,5.4359,5.4952,5.528,5.528,5.5555,5.5636,5.5636,5.5636,5.5089,5.4007,5.1917,5.0371,4.9182,4.8098,4.7449,4.7208,4.755,4.7683,4.7753,4.8141,4.8548,4.8893,4.9038,4.8123,4.6867,4.6346,0.0,0.0,0.0,0.0,4.5407,4.5762,4.6475,4.7126,4.6895,4.7295,4.7632,4.7441,4.6422,4.4949,4.3008,4.0836,3.9172,3.8863,3.7375,0.0,3.7871,3.846,3.9111,3.9915,4.0473,4.0783,4.0783,4.0783,4.047,3.9787,3.9691,3.9131,3.7895,3.7616,3.7277,3.6784,3.5125,3.4575,3.5309,0.0,0.0,0.0,0.0,0.0,0.0,0.0,0.0,0.0,0.0,0.0,0.0,0.0,0.0,0.0,0.0,0.0,0.0,0.0,0.0,0.0,0.0,0.0,0.0,0.0,0.0,0.0,0.0,0.0,4.9042,4.8806,0.0,0.0,0.0,0.0,4.7796,4.864,4.9487,5.0153,5.0164,5.0507,5.1267,5.1911,5.2468,5.2965,5.4051,5.4819,5.5336,5.5948,5.6224,5.6224,5.6492,5.6641,5.6641,5.6641,5.6608,5.6332,5.4001,5.1874,5.0001,4.9683,4.9158,4.8643,4.9319,4.9576,4.9673,5.0601,5.116,5.143,5.1067,4.9623,4.7869,4.7506,4.6159,0.0,0.0,4.6518,4.687,4.722,4.7564,4.7673,4.6993,4.6824,4.6971,4.7312,4.6001,4.4613,4.4165,4.2643,4.1019,3.9787,0.0,3.8679,3.9376,3.9534,4.0008,4.1334,4.1524,4.1555,4.1555,4.1555,4.1206,4.0317,4.0122,3.9677,3.8801,3.7958,3.7492,3.7461,3.7178,3.6566,3.5702,3.6166,0.0,0.0,0.0,0.0,0.0,0.0,0.0,0.0,0.0,0.0,0.0,0.0,0.0,0.0,0.0,0.0,0.0,0.0,0.0,0.0,0.0,0.0,0.0,0.0,0.0,0.0,0.0,0.0,5.0237,5.0425,0.0,4.9244,4.912,4.9076,4.9146,5.0799,5.1933,5.2236,5.3061,5.3629,5.3885,5.4141,5.4507,5.4916,5.5618,5.6146,5.6647,5.7105,5.7331,5.7331,5.7439,5.7476,5.7476,5.7476,5.7208,5.6667,5.5335,5.3997,5.2618,5.1594,5.0961,5.0688,5.1026,5.1197,5.123,5.1707,5.2023,5.221,5.1724,5.0727,4.9592,4.8862,4.7836,4.6947,4.7439,4.7764,4.7987,4.8241,4.8459,4.8545,4.8274,4.8206,4.8078,4.7631,4.6578,4.5502,4.4774,4.297,4.1499,4.1467,4.0887,4.0693,4.1369,4.1466,4.1627,4.2109,4.2173,4.2173,4.2173,4.2173,4.1981,4.1501,4.1177,4.0788,4.0304,3.9753,3.9431,3.9431,3.8534,3.8172,3.8526,3.7214,3.6391,0.0,0.0,0.0,0.0,0.0,0.0,0.0,0.0,0.0,0.0,0.0,0.0,0.0,0.0,0.0,0.0,0.0,0.0,0.0,0.0,0.0,0.0,0.0,0.0,0.0,5.0141,5.1774,5.1734,5.2298,5.2314,5.1377,5.1242,5.1322,5.162,5.3101,5.4162,5.443,5.5077,5.5527,5.5756,5.5789,5.5948,5.6336,5.6685,5.703,5.7402,5.7735,5.7881,5.7881,5.7881,5.7881,5.7881,5.7881,5.7476,5.6731,5.6021,5.5158,5.4216,5.2986,5.2414,5.2307,5.2449,5.252,5.252,5.2661,5.2799,5.2804,5.2169,5.1463,5.0691,4.9822,4.8988,4.8357,4.8452,4.8578,4.8704,4.8832,4.8925,4.9018,4.9018,4.9018,4.8751,4.7885,4.7053,4.6223,4.5332,4.3572,4.237,4.2796,4.247,4.237,4.2796,4.2862,4.2862,4.2862,4.2862,4.2862,4.2862,4.2862,4.274,4.246,4.211,4.1754,4.1456,4.1088,4.0851,4.0851,4.0016,3.9838,4.0416,3.8229,3.7195,3.7448,0.0,0.0,0.0,0.0,0.0,0.0,0.0,0.0,0.0,0.0,0.0,0.0,0.0,0.0,0.0,0.0,0.0,0.0,0.0,0.0,0.0,0.0,0.0,4.8881,5.2276,5.4469,5.3506,5.4391,5.5089,5.5023,5.4552,5.4566,5.5297,5.5549,5.5994,5.6685,5.6056,5.5989,5.6685,5.6719,5.6834,5.7025,5.7214,5.7402,5.7625,5.7808,5.7881,5.7881,5.7881,5.7881,5.7881,5.7881,5.7442,5.6697,5.5987,5.5243,5.4465,5.3788,5.3518,5.3518,5.3518,5.3518,5.3518,5.3518,5.3518,5.3382,5.2604,5.1826,5.1082,5.0338,4.9593,4.9018,4.9018,4.9018,4.9018,4.9018,4.9018,4.9018,4.9018,4.9018,4.8815,4.8007,4.7293,4.6583,4.5805,4.4566,4.3654,4.3654,4.3654,4.3654,4.3654,4.3654,0.0,4.3654,4.3654,4.3654,4.3654,4.3654,4.3505,4.3174,4.2803,4.2491,4.2142,4.1786,4.159,4.1621,4.159,4.1437,4.1084,3.9389,3.8075,3.7297,0.0,0.0,0.0,0.0,0.0,0.0,0.0,0.0,0.0,0.0,0.0,0.0,0.0,0.0,0.0,0.0,0.0,0.0,0.0,0.0,0.0,5.3083,5.4005,5.2533,5.4097,5.538,5.5397,5.6408,5.6664,5.5624,5.5358,5.5595,5.6301,5.6441,5.6777,5.7554,5.7386,5.7386,5.7551,5.7588,5.7588,5.7662,5.7698,5.7772,5.7808,5.7881,5.7881,5.7881,5.7881,5.7881,5.7848,5.734,5.6697,5.5953,5.5209,5.4465,5.3788,5.3585,5.3518,5.3518,5.3518,5.3518,5.3518,5.3518,5.3518,5.345,5.3247,5.23,5.1151,5.098,5.0033,4.9018,4.9018,4.9018,4.9018,4.9018,4.9018,4.9018,4.9018,4.9018,4.8646,4.7394,4.6921,4.6413,4.5128,4.4609,4.4327,4.4327,4.4327,4.4327,4.4327,4.4327,4.4327,4.4327,4.4327,4.4327,4.4327,4.4327,4.4184,4.3864,4.3472,4.3139,4.2867,4.1975,4.1691,4.2237,4.1755,4.1391,4.1242,4.0795,3.9462,0.0,0.0,0.0,0.0,0.0,0.0,0.0,0.0,0.0,0.0,0.0,0.0,0.0,0.0,0.0,0.0,0.0,0.0,0.0,0.0,0.0,0.0,5.5251,5.6188,5.6331,5.6877,5.7134,5.6794,5.7462,5.7543,5.6697,5.6359,5.6461,5.7205,5.7273,5.7442,5.7881,5.7881,5.7881,5.7881,5.7881,5.7881,5.7881,5.7881,5.7881,5.7881,5.7881,5.7881,5.7881,5.7881,5.7881,5.7848,5.7103,5.6393,5.5649,5.4905,5.416,5.3518,0.0,0.0,0.0,0.0,5.3518,5.3518,5.3518,5.3518,5.345,5.3112,5.2198,5.115,5.0845,4.9932,4.9018,4.9018,4.9018,4.9018,4.9018,4.9018,4.9018,4.9018,4.9018,4.868,4.753,4.7022,4.6447,4.5263,4.4818,0.0,4.4615,4.4615,4.4615,4.4615,4.4615,4.4615,4.4615,4.4615,4.4615,4.4615,4.4615,4.4468,4.4212,4.3919,0.0,0.0,0.0,4.2531,4.2923,4.2594,0.0,0.0,0.0,0.0,0.0,3.8628,0.0,0.0,3.7331,3.7685,0.0,0.0,0.0,0.0,0.0,0.0,0.0,0.0,0.0,0.0,0.0,0.0,0.0,0.0,0.0,0.0,5.664,5.7273,5.9877,5.9843,5.9118,5.7928,5.7907,5.7983,5.7915,5.7306,5.7205,5.7848,5.7881,5.7881,5.7881,5.7881,0.0,0.0,0.0,5.7881,5.7881,5.7881,5.7881,5.7881,5.7881,5.7881,5.7881,5.7881,5.7881,5.7848,5.7036,5.6325,5.5649,5.4803,5.4093,5.3518,5.3518,5.3518,5.3518,5.3518,5.3518,5.3518,5.3518,0.0,0.0,5.2672,5.1894,5.1082,5.0405,4.9661,4.9018,4.9018,4.9018,4.9018,4.9018,4.9018,4.9018,4.9018,4.9018,4.8815,4.8041,4.7327,4.6583,4.5838,4.5094,4.4615,4.4615,4.4615,4.4615,4.4615,4.4615,4.4615,4.4615,4.4615,4.4643,4.4643,4.4643,0.0,4.4378,4.427,4.4126,4.3948,4.3798,4.3706,4.3639,4.3856,4.3304,4.1909,4.1969,4.1258,3.9807,3.9874,3.9908,3.9908,3.921,3.9084,0.0,0.0,0.0,0.0,0.0,0.0,0.0,0.0,0.0,0.0,0.0,0.0,0.0,0.0,0.0,5.7238,5.9014,6.0419,6.0994,6.0444,5.9663,5.8822,5.8758,5.8558,5.7949,5.7746,5.7746,5.7881,5.7881,5.7881,5.7881,5.7881,5.7881,5.7881,5.7881,5.7881,5.7881,5.7881,5.7881,5.7881,5.7881,0.0,5.7881,5.7881,5.7881,5.7814,5.6494,5.5852,5.5615,5.4262,5.3619,5.3518,5.3518,5.3518,5.3518,5.3518,5.3518,5.3518,5.3518,5.3518,5.3484,5.3315,5.2334,5.1183,5.1048,5.0067,0.0,4.9018,4.9018,4.9018,4.9018,4.9018,4.9018,4.9018,4.9018,4.8815,4.8041,4.7327,4.6583,4.5838,4.5094,4.4615,4.4615,4.4615,4.4615,4.4615,4.4615,4.4615,4.4615,4.4692,4.4748,4.4748,4.4858,4.4913,4.4886,4.4858,4.4797,4.4769,4.4742,4.4442,4.3865,4.4436,4.4055,4.2558,4.2524,4.1835,4.0362,4.0941,4.1214,4.1214,4.0849,4.0781,0.0,0.0,0.0,0.0,0.0,0.0,0.0,0.0,0.0,0.0,0.0,5.3599,5.4915,0.0,5.7386,5.8646,5.9565,6.0554,6.167,6.0825,5.9979,5.9607,5.8896,5.8287,5.7915,5.7881,5.7881,5.7881,5.7881,5.7881,5.7881,5.7881,5.7881,5.7881,5.7881,5.7881,5.7881,5.7881,5.7881,5.7881,5.7881,5.7881,5.7881,5.7881,5.7679,5.7273,5.619,5.5513,5.5074,5.3957,5.3518,5.3518,5.3518,5.3518,5.3518,5.3518,5.3518,5.3518,5.3518,5.3518,5.3518,5.3518,5.2469,5.1185,5.1185,5.0168,4.9018,4.9018,4.9018,4.9018,4.9018,4.9018,4.9018,4.9018,4.9018,4.8917,4.8545,4.7564,4.6684,4.6312,4.5331,4.4615,4.4615,4.4615,4.4615,4.4615,4.4615,4.4643,4.4665,4.4748,4.4831,4.4886,4.4968,4.5022,4.5022,4.5022,4.5022,4.5022,4.5022,4.4851,4.4475,4.4817,4.4448,4.3321,4.3287,4.274,4.1672,4.2014,4.239,4.2766,4.2732,4.2527,0.0,0.0,0.0,0.0,0.0,0.0,0.0,5.4059,5.4075,5.5886,5.6311,5.6731,5.7881,5.8355,5.8896,5.9945,5.9742,6.008,6.1907,6.0858,5.9877,5.9877,5.8829,5.8051,5.7915,5.7881,5.7881,5.7881,5.7881,5.7881,5.7881,5.7881,5.7881,5.7881,5.7881,5.7881,5.7881,5.7881,5.7881,5.7881,5.7746,5.7679,5.7679,5.7543,5.7137,5.6562,5.5818,5.5074,5.4329,5.3754,5.3518,5.3518,5.3518,5.3518,5.3518,5.3518,5.3518,5.3518,5.3518,5.3518,5.3518,5.3518,5.2469,5.1185,5.1185,5.0168,4.9018,4.9018,4.9018,4.9018,4.9018,4.9018,4.9018,4.9018,4.9018,4.9018,4.9018,4.7834,4.6786,4.6786,4.5602,4.4615,4.4615,4.4615,4.4615,4.4615,4.4643,4.4665,4.4776,4.4858,4.4913,4.5049,4.5076,4.5103,4.5103,4.5103,4.5103,4.5103,4.5103,4.5103,4.5103,4.5103,4.4727,4.4007,4.3973,4.3631,4.2877,4.3014,4.3425,4.3973,4.4397,4.4207,5.2019,5.1907,5.2639,5.3846,5.4241,5.4464,0.0,5.5335,5.5953,5.6371,5.7634,5.8693,5.8863,6.0013,6.0757,6.0182,6.0622,6.1129,6.14,6.0114,5.9133,5.9133,5.8998,5.8626,5.7949,5.7881,5.7881,5.7881,5.7881,5.7881,5.7881,5.7881,5.7881,5.7881,5.7881,5.7881,5.7881,5.7881,5.7881,5.7881,5.7239,5.6934,5.69,5.6258,5.5919,5.5784,5.504,5.4296,5.3619,5.3551,5.3518,5.3518,5.3518,5.3518,5.3518,5.3518,5.3518,5.3518,5.3518,5.3518,5.3518,5.3518,5.2469,5.1185,5.1185,5.0168,4.9018,4.9018,4.9018,4.9018,4.9018,4.9018,4.9018,4.9018,4.9018,4.9018,4.9018,4.7834,4.6786,4.6786,4.5602,4.4615,4.4615,4.4615,4.4615,4.4615,4.4692,4.4776,4.4803,4.5022,4.515,4.5177,4.5291,4.5344,4.5344,4.5344,4.5344,4.5344,4.5344,4.5344,4.5344,4.5344,4.5026,4.426,4.426,4.388,4.3156,4.3811,4.4156,4.426,4.5199,4.5527,5.4142,5.4207,5.4807,5.6155,5.6312,5.6363,5.7306,5.7595,5.7984,5.8934,5.976,6.0351,6.0351,6.0858,6.1028,6.0216,6.0385,6.0757,6.1231,6.0351,5.9471,5.9066,5.8626,5.8051,5.734,5.7273,5.7442,5.7848,5.7881,5.7881,5.7881,5.7881,5.7881,5.7881,5.7881,5.7881,5.7881,5.7881,5.7679,5.7273,5.6934,5.6596,5.6156,5.5817,5.548,5.5006,5.4296,5.3788,5.3518,5.3518,5.3518,5.3518,5.3518,5.3518,5.3518,5.3518,5.3518,5.3518,5.3518,5.3518,5.3518,5.3518,5.2469,5.1185,5.1185,5.0168,4.9018,4.9018,4.9018,4.9018,4.9018,4.9018,4.9018,4.9018,4.9018,4.9018,4.9018,4.7834,4.6786,4.6786,4.5602,4.4615,4.4615,4.4637,4.4692,4.4692,4.4748,4.4858,4.4988,4.5123,4.523,4.5318,4.5371,4.5397,4.5397,4.5397,4.5397,4.5397,4.5476,4.5554,4.5624,4.5701,4.5664,4.5391,4.5391,4.5252,4.4963,4.5277,4.5391,4.5416,4.5979,4.6291,5.589,5.6108,5.6521,5.7863,5.8045,5.8198,5.9309,5.9497,5.9645,6.056,6.1182,6.1535,6.1332,6.1298,6.1028,6.0216,5.9945,6.0013,6.0588,5.9979,5.9235,5.849,5.7746,5.7002,5.6258,5.6562,5.7036,5.7543,5.778,5.7881,5.7881,5.7881,5.7881,5.7881,5.7881,5.7881,5.7881,5.7679,5.734,5.6799,5.6393,5.5919,5.5412,5.5209,5.4803,5.4262,5.3721,5.3518,5.3518,5.3518,5.3518,5.3518,5.3518,5.3518,5.3518,5.3517,5.3551,5.3551,5.3618,5.3618,5.3618,5.3618,5.2601,5.1346,5.1346,5.0263,4.908,4.908,4.9015,4.9018,4.9018,4.9018,4.9018,4.9018,4.9018,4.9018,4.908,4.7924,4.6932,4.6961,4.5796,4.4831,4.4831,4.494,4.5015,4.5042,4.5096,4.515,4.5177,4.523,4.5283,4.5397,4.5397,4.5397,4.5397,4.5397,4.5397,4.5397,4.5581,4.5727,4.5895,4.6045,4.6217,4.6387,4.6387,4.6387,4.6387,4.6387,4.6387,4.6387,4.6684,4.6903,5.6678,5.6954,5.723,5.8151,5.893,5.951,5.9737,6.0381,6.0796,6.0245,6.1332,6.2144,6.1434,6.1298,6.1028,6.0216,5.9505,5.9066,5.9099,5.8423,5.7679,5.6968,5.6224,5.548,5.4735,5.5953,5.6799,5.6833,5.7476,5.7881,5.7881,5.7881,5.7881,5.7881,5.7881,5.7881,5.7881,5.7171,5.6833,5.6799,5.5344,5.4634,5.46,5.389,5.3551,5.3551,5.3518,5.3518,5.3518,5.3518,5.3518,5.3518,5.3518,5.3518,5.3551,5.3651,5.3684,5.3717,5.3915,5.398,5.398,5.398,5.2955,5.1694,5.1694,5.0512,4.9199,4.9199,4.9077,4.9018,4.9018,4.9018,4.9018,4.9018,4.9018,4.9049,4.9168,4.8128,4.7216,4.7358,4.6288,4.5389,4.5389,4.5494,4.5624,4.5778,4.587,4.5768,4.5257,4.5318,4.5397,4.5397,4.5397,4.5397,4.5397,4.5397,4.5397,4.5397,4.5649,4.5895,4.6204,4.6376,4.6613,4.6845,4.6903,4.6903,4.6903,4.6903,4.6903,4.6903,4.7151,4.7392,5.7387,5.795,5.8513,5.9794,6.0415,6.0835,6.1385,6.1728,6.1863,6.167,6.1637,6.1603,6.1366,6.0858,6.025,5.9505,5.9167,5.9032,5.9032,5.8355,5.7611,5.69,5.6156,5.5243,5.3991,5.4769,5.575,5.6731,5.7036,5.7374,5.7848,5.7881,5.7881,5.7881,5.7881,5.7645,5.7171,5.6934,5.6325,5.531,5.4329,5.3856,5.3856,5.3619,5.3518,5.3518,5.3518,5.3518,5.3518,5.3518,5.3518,5.3518,5.3618,5.3617,5.3684,5.4173,5.4428,5.4488,5.446,5.4333,5.4126,5.4126,5.3083,5.1772,5.1568,5.0641,4.9644,4.9441,4.9199,4.9018,4.9018,4.9018,4.9018,4.9018,4.9018,4.9046,4.932,4.8415,4.7624,4.787,4.6898,4.6039,4.6039,4.6196,4.6376,4.6495,4.6291,4.608,4.5905,4.5905,4.593,4.593,4.593,4.593,4.593,4.593,4.593,4.593,4.6204,4.6411,4.6672,4.6903,4.7151,4.7428,4.7428,4.7428,4.7428,4.7428,4.7428,4.7428,4.7563,4.771,5.7853,5.8719,5.9588,6.0679,6.1273,6.1728,6.2279,6.2178,6.1907,6.1637,6.0994,6.0486,6.0486,5.9844,5.9235,5.9032,5.8795,5.8626,5.8626,5.8186,5.7509,5.6528,5.6021,5.5141,5.3653,5.3923,5.4702,5.5919,5.6258,5.6731,5.7476,5.7509,5.7611,5.7881,5.7645,5.7273,5.6799,5.6292,5.5412,5.4194,5.3721,5.3518,5.3518,5.3518,5.3518,5.3518,5.3518,5.3518,5.3518,5.3518,5.3518,5.3484,5.3651,5.3782,5.4044,5.4551,5.5044,5.5367,5.5134,5.4764,5.4387,5.4387,5.3366,5.2044,5.1759,5.0926,5.0022,4.9796,4.9471,4.9202,4.9202,4.9202,4.9168,4.9229,4.9229,4.9381,4.9825,4.916,4.8574,4.894,4.8232,4.7582,4.7582,4.7497,4.7361,4.7187,4.6926,4.6649,4.6483,4.6459,4.6459,4.6459,4.6459,4.6459,4.6459,4.6459,4.6459,4.6459,4.6695,4.6926,4.7138,4.7414,4.7663,4.7927,4.7927,4.7927,4.7927,4.7927,4.7927,4.7927,4.7972,4.8015,5.8147,5.9252,6.0438,6.0802,6.1425,6.2009,6.224,6.1738,6.1028,6.0216,5.9471,5.8964,5.8964,5.8355,5.8084,5.8829,5.8389,5.7915,5.7881,5.7915,5.7408,5.5953,5.575,5.5141,5.3687,5.3518,5.3788,5.4465,5.5243,5.5987,5.6765,5.6799,5.7137,5.7881,5.7171,5.6799,5.6731,5.5277,5.4194,5.3518,5.3518,5.3518,5.3518,5.3518,5.3518,5.3518,5.3518,5.3518,5.3518,5.3518,5.3518,5.3484,5.3651,5.3977,5.4454,5.4795,5.5513,5.6257,5.5901,5.5313,5.4689,5.4689,5.3662,5.2387,5.2253,5.1372,5.0425,5.0285,4.9913,4.956,4.956,4.956,4.959,4.9737,4.9767,4.9907,5.0502,5.0224,4.9998,5.0459,5.0103,4.9748,4.9712,4.9153,4.8518,4.7829,4.772,4.7536,4.7017,4.6949,4.6949,4.6949,4.6949,4.6949,4.6949,4.6949,4.6949,4.6949,4.7173,4.7414,4.7611,4.7854,4.8111,4.8287,4.8306,4.8306,4.8306,4.8306,4.8306,4.8306,4.8306,4.8306,5.9585,6.0505,6.1267,6.0778,6.0936,6.1054,6.056,6.0405,6.0182,5.9438,5.8693,5.8186,5.8186,5.7577,5.7306,5.8051,5.849,5.8524,5.7983,5.8355,5.8186,5.6697,5.6055,5.5344,5.4397,5.3822,5.3585,5.3788,5.4465,5.5446,5.6731,5.6799,5.7137,5.7881,5.7171,5.6562,5.6021,5.4532,5.3687,5.3518,5.3518,5.3518,5.3518,5.3518,5.3518,5.3518,5.3518,5.3518,5.3518,5.3518,5.3518,5.3551,5.3783,5.4205,5.4676,5.5289,5.5929,5.6537,5.6644,5.5851,5.4838,5.4838,5.3758,5.2438,5.2218,5.1739,5.1254,5.1017,5.0686,5.0369,5.0369,5.0369,5.0369,5.046,5.0507,5.0706,5.1114,5.0909,5.0724,5.1099,5.0817,5.0336,4.9715,4.9501,4.9082,4.8277,4.8151,4.7992,4.7536,4.7508,4.7508,4.7508,4.7508,4.7508,4.7508,4.7508,4.7508,4.7508,4.7621,4.7731,4.7875,4.8052,4.8207,4.8287,4.8306,4.8306,4.8306,4.8306,4.8306,4.8306,4.8306,4.8306,6.0063,6.081,6.1258,6.0612,6.0565,6.0382,5.9535,5.9144,5.8819,5.8149,5.7205,5.6528,5.6867,5.6325,5.619,5.7239,5.778,5.8017,5.7915,5.8254,5.8084,5.6934,5.6156,5.5412,5.4668,5.3923,5.3518,5.3518,5.389,5.4634,5.575,5.5818,5.6156,5.69,5.6224,5.548,5.4735,5.3923,5.3518,5.3518,5.3518,5.3518,5.3518,5.3518,5.3518,5.3518,5.3518,5.3518,5.3518,5.3518,5.3518,5.3517,5.3849,5.4397,5.5044,5.5584,5.6023,5.6351,5.653,5.5618,5.4436,5.4798,5.382,5.2457,5.2246,5.1969,5.1651,5.1424,5.1166,5.092,5.092,5.092,5.0947,5.0964,5.1131,5.1312,5.164,5.1706,5.1765,5.2127,5.2014,5.1499,5.0325,5.0105,4.9701,4.8489,4.8306,4.8209,4.7972,4.7951,4.7951,4.7951,4.7951,4.7951,4.7951,4.7951,4.7951,4.7951,4.8012,4.8035,4.8131,4.819,4.8248,4.8306,4.8306,4.8306,4.8306,4.8306,4.8306,4.8306,4.8306,4.8306,6.0291,6.0688,6.0929,6.027,6.0051,5.9737,5.8614,5.7719,5.7018,5.6558,5.5412,5.4668,5.5446,5.504,5.504,5.6427,5.6833,5.7137,5.7679,5.7915,5.778,5.7036,5.6292,5.5581,5.4803,5.4093,5.3619,5.3518,5.3518,5.3822,5.4566,5.46,5.4905,5.5547,5.4938,5.4262,5.3518,5.3518,5.3518,5.3518,5.3518,5.3518,5.3518,5.3518,5.3518,5.3518,5.3518,5.3518,5.3518,5.3518,5.3518,5.3517,5.3849,5.4586,5.5432,5.5786,5.5955,5.5993,5.5993,5.4979,5.382,5.4508,5.3711,5.2457,5.2376,5.2114,5.1848,5.1725,5.1561,5.1383,5.1383,5.1383,5.1408,5.15,5.1651,5.1848,5.2185,5.2499,5.2747,5.2978,5.3041,5.2527,5.0912,5.0655,5.0105,4.8526,4.8306,4.8306,4.8306,4.8306,4.8306,4.8306,4.8306,4.8306,4.8306,4.8306,4.8306,4.8306,4.8306,4.8306,4.8306,4.8306,4.8306,4.8306,4.8306,4.8306,4.8306,4.8306,4.8306,4.8306,4.8306,4.8306,6.1824,6.145,6.0788,5.947,5.8833,5.8086,5.6696,5.5585,5.4828,5.4762,5.4193,5.3923,5.4634,5.4668,5.4871,5.575,5.69,5.7543,5.707,5.8051,5.8558,5.778,5.707,5.6325,5.5581,5.4837,5.416,5.3551,5.3518,5.3822,5.4566,5.46,5.4668,5.4769,5.4668,5.4262,5.3518,5.3518,5.3518,5.3518,5.3518,5.3518,5.3518,5.3518,5.3518,5.3518,5.3518,5.3518,5.3518,5.3518,5.3518,5.3517,5.3849,5.4586,5.5432,5.5786,5.5955,5.5993,5.5993,5.4979,5.3711,5.3856,5.3277,5.2516,5.2457,5.241,5.2387,5.2364,5.2317,5.2293,5.2293,5.2293,5.2293,5.2317,5.2444,5.2627,5.2694,5.2893,5.292,5.2344,5.2197,5.1683,5.0088,4.9831,4.9444,4.8453,4.8306,4.8306,4.8306,4.8306,4.8306,4.8306,4.8306,4.8306,4.8306,4.8306,4.8306,4.8306,4.8306,4.8306,4.8306,4.8306,4.8306,4.8306,4.8306,4.8306,4.8306,4.8306,4.8306,4.8306,4.8306,4.8306,6.2221,6.1649,6.0755,5.9264,5.8416,5.7504,5.5717,5.474,5.4048,5.3818,5.3585,5.3619,5.3957,5.4025,5.4262,5.5006,5.6055,5.6765,5.6799,5.7746,5.8287,5.7915,5.69,5.6089,5.5715,5.4702,5.389,5.3518,5.3518,5.3653,5.4025,5.4025,5.4025,5.4025,5.4025,5.3856,5.3518,5.3518,5.3518,5.3518,5.3518,5.3518,5.3518,5.3518,5.3518,5.3518,5.3518,5.3518,5.3518,5.3518,5.3518,5.3517,5.3849,5.4551,5.5396,5.5751,5.5705,5.5414,5.5414,5.4399,5.3096,5.3096,5.2806,5.248,5.248,5.248,5.248,5.248,5.248,5.248,5.248,5.248,5.2503,5.2536,5.2717,5.2915,5.2995,5.3103,5.3115,5.2711,5.2637,5.2123,5.0508,5.0215,4.9774,4.8489,4.8306,4.8306,4.8306,4.8306,4.8306,4.8306,4.8306,4.8306,4.8306,4.8306,4.8306,4.8306,4.8306,4.8306,4.8306,4.8306,4.8306,4.8306,4.8306,4.8306,4.8306,4.8306,4.8306,4.8306,4.8306,4.8306,6.2487,6.1881,6.0953,5.9297,5.8237,5.705,5.5177,5.4131,5.344,5.3211,5.318,5.3247,5.3247,5.3247,5.3416,5.3991,5.4735,5.5547,5.6461,5.7205,5.7712,5.7881,5.6731,5.5886,5.575,5.4532,5.3687,5.3518,5.3518,5.3518,5.3518,5.3518,5.3518,5.3518,5.3518,5.3518,5.3518,5.3518,5.3518,5.3518,5.3518,5.3518,5.3518,5.3518,5.3518,5.3518,5.3518,5.3518,5.3518,5.3518,5.3518,5.3517,5.3849,5.4551,5.5361,5.5751,5.5464,5.4907,5.4907,5.3856,5.248,5.248,5.248,5.248,5.248,5.248,5.248,5.248,5.248,5.248,5.248,5.2503,5.2572,5.2672,5.285,5.306,5.3146,5.3203,5.313,5.3004,5.2931,5.2417,5.0839,5.0545,5.0031,4.8526,4.8306,4.8306,4.8306,4.8306,4.8306,4.8306,4.8306,4.8306,4.8306,4.8306,4.8306,4.8306,4.8306,4.8306,4.8306,4.8306,4.8306,4.8306,4.8306,4.8306,4.8306,4.8306,4.8306,4.8306,4.8306,4.8306,6.3415,6.2685,6.1592,5.9429,5.7839,5.6382,5.4858,5.3223,5.2167,5.2804,5.2674,5.2401,5.2401,5.2401,5.2435,5.2503,5.3179,5.4194,5.5615,5.6461,5.7137,5.7814,5.7171,5.6461,5.5749,5.4972,5.4228,5.3551,5.3518,5.3518,5.3518,5.3518,5.3518,5.3518,5.3518,5.3518,5.3518,5.3518,5.3518,5.3518,5.3518,5.3518,5.3518,5.3518,5.3518,5.3518,5.3518,5.3518,5.3518,5.3518,5.3518,5.3517,5.3849,5.4586,5.5432,5.5786,5.5464,5.4907,5.4907,5.3856,5.248,5.248,5.248,5.248,5.248,5.248,5.248,5.248,5.248,5.248,5.248,5.2536,5.2635,5.2893,5.298,5.306,5.3146,5.3203,5.3004,5.2234,5.2087,5.1573,4.9978,4.9721,4.939,4.8453,4.8306,4.8306,4.8306,4.8306,4.8306,4.8306,4.8306,4.8306,4.8306,4.8306,4.8306,4.8306,4.8306,4.8306,4.8306,4.8306,4.8306,4.8306,4.8306,4.8306,4.8306,4.8306,4.8306,4.8306,4.8306,4.8306,6.2719,6.208,6.1119,5.933,5.7773,5.6354,5.5007,5.3528,5.2569,5.2974,5.3045,5.301,5.301,5.2638,5.2469,5.2942,5.3281,5.3856,5.4905,5.5683,5.6258,5.6562,5.5919,5.5344,5.5074,5.4363,5.3822,5.3518,5.3518,5.3687,5.4126,5.3754,5.3687,5.416,5.3721,5.3518,5.3518,5.3518,5.3518,5.3518,5.3518,5.3518,5.3518,5.3518,5.3518,5.3518,5.3518,5.3518,5.3518,5.3518,5.3518,5.3517,5.3849,5.4586,5.5432,5.5786,5.5464,5.4907,5.4907,5.3856,5.248,5.248,5.248,5.248,5.248,5.248,5.248,5.248,5.248,5.248,5.248,5.2618,5.2783,5.2937,5.306,5.3124,5.3203,5.3203,5.3115,5.2784,5.2711,5.238,5.1242,5.1042,5.0765,4.9921,4.937,4.9077,4.9077,4.8636,4.8306,4.8306,4.8306,4.8306,4.8306,4.8306,4.8306,4.8306,4.8306,4.8306,4.8306,4.8306,4.8306,4.8306,4.8306,4.8306,4.8306,4.8306,4.8306,4.8306,4.8306,4.8306,6.1956,6.1649,6.102,5.933,5.7812,5.643,5.5118,5.3868,5.3007,5.3179,5.3348,5.345,5.3179,5.2503,5.2232,5.301,5.2976,5.3247,5.4431,5.504,5.5378,5.5378,5.4735,5.4262,5.4262,5.3788,5.3518,5.3518,5.3518,5.3822,5.4566,5.389,5.3822,5.4566,5.389,5.3518,5.3518,5.3518,5.3518,5.3518,5.3518,5.3518,5.3518,5.3518,5.3518,5.3518,5.3518,5.3518,5.3518,5.3518,5.3518,5.3517,5.3849,5.4523,5.5313,5.57,5.5384,5.4749,5.4797,5.3772,5.248,5.248,5.248,5.248,5.248,5.248,5.248,5.248,5.248,5.2503,5.2572,5.2672,5.2828,5.3039,5.3124,5.3203,5.3203,5.3203,5.3203,5.3203,5.3203,5.2931,5.2123,5.1977,5.172,5.0912,5.0325,4.9867,4.9647,4.904,4.86,4.8343,4.8306,4.8306,4.8306,4.8306,4.8306,4.8306,4.8306,4.8306,4.8306,4.8306,4.8306,4.8306,4.8563,4.8673,4.8673,4.893,4.904,4.904,4.904,4.904,6.1318,6.1616,6.1691,5.9429,5.7963,5.6616,5.5155,5.3975,5.3179,5.3179,5.3348,5.3281,5.2469,5.1725,5.1454,5.2198,5.1725,5.2029,5.4262,5.46,5.46,5.46,5.3957,5.3518,5.3518,5.3518,5.3518,5.3518,5.3518,5.3822,5.4566,5.389,5.3822,5.4566,5.389,5.3518,5.3518,5.3518,5.3518,5.3518,5.3518,5.3518,5.3518,5.3518,5.3518,5.3518,5.3518,5.3518,5.3518,5.3518,5.3518,5.3517,5.3849,5.4365,5.4983,5.5525,5.5158,5.4428,5.4564,5.3701,5.248,5.248,5.248,5.248,5.248,5.248,5.248,5.248,5.248,5.2549,5.2739,5.2806,5.285,5.3124,5.3203,5.3203,5.3203,5.3203,5.3203,5.3203,5.3203,5.2931,5.2123,5.1977,5.172,5.0912,5.0802,5.0508,4.9721,4.961,4.928,4.8379,4.8306,4.8306,4.8306,4.8306,4.8306,4.8306,4.8306,4.8306,4.8306,4.8306,4.8306,4.8306,4.915,4.961,4.961,5.0398,5.0765,5.0765,5.0765,5.0765,5.9529,5.9761,5.9529,5.7806,5.6719,5.5738,5.4531,5.3606,5.3076,5.3348,5.301,5.2604,5.2367,5.1285,5.0676,5.1454,5.1352,5.1657,5.2875,5.3923,5.4397,5.3923,5.3653,5.3518,5.3518,5.3518,5.3518,5.3518,5.3518,5.3822,5.4566,5.389,5.3822,5.4566,5.389,5.3247,5.2706,5.3247,5.3213,5.2706,5.3247,5.3518,5.3518,5.3518,5.3518,5.3518,5.3518,5.3518,5.3518,5.3518,5.3518,5.3551,5.3717,5.4108,5.461,5.5013,5.4705,5.4086,5.4251,5.3519,5.248,5.248,5.248,5.248,5.248,5.248,5.248,5.248,5.248,5.2549,5.2739,5.2806,5.285,5.3124,5.3203,5.3203,5.3203,5.3203,5.3203,5.3203,5.3203,5.3093,5.2858,5.2821,5.2747,5.2491,5.1977,5.1536,5.1242,5.0765,5.0105,4.9224,4.915,4.893,4.8343,4.8306,4.8306,4.8306,4.8306,4.8306,4.8306,4.8857,4.9206,4.9206,4.9994,5.0398,5.0398,5.0692,5.0802,5.0802,5.0802,5.0802,5.7376,5.7873,5.7773,5.6581,5.579,5.504,5.4097,5.3439,5.3009,5.3011,5.2605,5.2198,5.1961,5.0913,5.0338,5.1082,5.098,5.115,5.2164,5.3112,5.3551,5.3112,5.3044,5.3044,5.3044,5.3315,5.3619,5.389,5.3653,5.3822,5.4566,5.389,5.3721,5.416,5.3754,5.3281,5.2773,5.3247,5.3247,5.2773,5.3281,5.3518,5.3518,5.3518,5.3518,5.3518,5.3518,5.3518,0.0,5.3518,5.3518,5.3517,5.3717,5.4044,5.4394,5.4922,5.4592,5.3877,5.4174,5.3495,5.248,5.248,5.248,5.248,5.248,5.248,5.248,5.248,5.248,5.2549,5.2739,5.2806,5.285,5.3124,5.3203,5.3203,5.3203,5.3203,5.3203,5.3203,5.3203,5.3203,5.3203,5.3203,5.3203,5.3203,5.2784,5.2344,5.205,5.1573,5.0802,4.9664,4.9574,4.9243,4.8379,4.8306,4.8306,4.8306,4.8306,4.8453,4.8783,4.9297,4.9721,5.0031,5.0839,5.1242,5.1242,5.1573,5.172,5.172,5.172,5.172,0.0,5.5951,5.6349,5.5653,5.5069,5.4486,5.3789,5.3338,0.0,5.2236,5.21,5.1928,5.1251,5.0507,5.0236,5.0947,5.0507,5.0574,5.2029,5.2334,5.2401,5.2469,5.2435,5.2401,5.2401,5.3112,5.3856,5.4532,5.3957,5.389,5.4566,5.389,5.3518,5.3518,5.3518,5.3484,5.3416,5.3484,5.3484,5.3416,5.3484,5.3518,5.3518,5.3518,5.3518,5.3518,5.3518,5.3518,5.3518,5.3518,5.3518,5.3551,5.3849,5.4076,5.4333,5.5139,5.4712,5.3771,5.4225,5.358,5.248,5.248,5.248,5.248,5.248,5.248,5.248,5.248,5.248,5.2549,5.2739,5.2806,5.285,5.3124,5.3203,5.3203,5.3203,5.3203,5.3203,5.3203,5.3203,5.3203,5.3203,5.3203,5.3203,5.3203,5.3203,5.2931,5.216,5.2087,5.1463,4.9941,4.9757,4.9407,4.8563,4.8379,4.8306,4.8306,4.8379,4.8746,4.9574,4.9647,5.0068,5.0875,5.1683,5.2087,5.2087,5.2858,5.3203,5.3203,5.3203,5.3203,5.3036,0.0,5.4858,5.4129,5.3798,5.3612,0.0,5.2602,5.2135,5.2235,5.1388,5.0541,5.0371,4.9763,4.9323,4.9492,4.983,5.0405,5.1352,5.2469,5.3416,5.3991,5.3551,5.3213,5.3213,5.389,5.4397,5.4566,5.4431,5.4397,5.4566,5.389,5.3518,5.3518,5.3518,5.3213,5.2604,5.3179,5.3179,5.2604,5.3213,5.3518,5.3518,5.3518,5.3518,5.3518,5.3518,5.3518,5.3518,5.3518,5.3518,5.3551,5.3684,5.4011,5.4391,5.4892,5.4563,5.3904,5.4148,5.347,5.248,5.248,5.248,5.248,5.248,5.248,5.248,5.248,5.248,5.2549,5.2739,5.2806,5.285,5.3124,5.3203,5.3203,5.3203,5.3203,5.3203,5.3203,5.3203,5.3203,5.3203,5.3203,5.3203,5.3203,5.3203,5.3151,5.2931,5.2931,5.2527,5.1536,5.1446,5.1096,5.0288,4.904,4.8306,4.8306,4.893,4.939,4.961,5.0785,5.1499,5.172,5.2527,5.2931,5.2931,5.3115,5.3203,5.3203,5.3203,5.3203,5.2409,5.3169,5.3831,5.3135,5.3241,5.3316,5.2462,5.21,5.1766,5.1257,5.0578,4.9999,4.9661,4.9255,4.9018,4.9018,4.9323,4.9965,5.1082,5.2536,5.3653,5.4059,5.3754,5.3619,5.3957,5.4363,5.4735,5.5074,5.4769,5.46,5.46,5.389,5.3518,5.3518,5.3518,5.3281,5.2841,5.3281,5.3281,5.2875,5.3281,5.3518,5.3518,5.3518,5.3518,5.3518,5.3518,5.3518,5.3518,5.3518,5.3518,5.3517,5.375,5.4044,5.4394,5.4953,5.4592,5.3851,5.4174,5.3495,5.248,5.248,5.248,5.248,5.248,5.248,5.248,5.248,5.248,5.2549,5.2739,5.2806,5.285,5.3124,5.3203,5.3203,5.3203,5.3203,5.3203,5.3203,5.3203,5.3203,5.3203,5.3203,5.3203,5.3203,5.3203,5.3203,5.3203,5.3203,5.2894,5.2087,5.1977,5.1683,5.0875,4.9958,4.9444,4.9444,4.9884,5.0345,5.0712,5.1536,5.216,5.2527,5.3004,5.3203,5.3203,5.3203,5.3203,5.3203,5.3203,5.3203,5.2376,5.2906,5.3271,5.2575,5.3083,5.3356,5.206,5.1832,5.1563,5.0284,4.9972,4.9729,4.912,4.9086,4.9187,4.9187,4.9357,4.9932,5.1217,5.2604,5.3518,5.3518,5.3518,5.3788,5.4532,5.4702,5.5074,5.5818,5.5175,5.4769,5.4769,5.3957,5.3518,5.3518,5.3518,5.3518,5.3518,5.3518,5.345,5.3315,5.345,5.3518,5.3518,5.3518,5.3518,5.3518,5.3518,5.3518,5.3518,5.3518,5.345,5.3348,5.3646,5.3836,5.3986,5.479,5.443,5.362,5.3989,5.3412,5.248,5.248,5.248,5.248,5.248,5.248,5.248,5.2503,5.2503,5.2572,5.2739,5.2806,5.2872,5.3124,5.3203,5.3203,5.3203,5.3203,5.3203,5.3203,5.3203,5.3203,5.3203,5.3203,5.3203,5.3203,5.3203,5.3203,5.3203,5.3203,5.2931,5.227,5.216,5.1903,5.1242,5.1169,5.1169,5.1169,5.1059,5.1353,5.216,5.216,5.2491,5.3188,5.3203,5.3203,5.3203,5.3203,5.3203,5.3203,5.3203,5.3203,5.2243,5.3014,5.3487,5.2753,5.3121,5.3561,5.3075,5.2001,5.1125,5.0985,5.0002,4.912,4.9018,4.9492,4.9932,4.9932,5.098,5.186,5.2097,5.2942,5.3518,5.3518,5.3518,5.3788,5.4532,5.5175,5.5852,5.6596,5.5953,5.5547,5.5547,5.4262,5.3518,5.3518,5.3518,5.3518,5.3518,5.3518,5.3179,5.2503,5.3179,5.3518,5.3518,5.3518,5.3518,5.3518,5.3518,5.3518,5.3518,5.3518,5.3112,5.2536,5.2733,5.2677,5.2555,5.3008,5.3042,5.2911,5.2822,5.2674,5.248,5.248,5.248,5.248,5.248,5.248,5.2503,5.2581,5.2568,5.2627,5.2761,5.2872,5.3017,5.3146,5.3203,5.3203,5.3203,5.3203,5.3203,5.3203,5.3203,5.3203,5.3203,5.3203,5.3203,5.3203,5.3203,5.3203,5.3203,5.3203,5.313,5.3041,5.3041,5.2968,5.2837,5.2858,5.2858,5.2858,5.2197,5.216,5.3004,5.3041,5.3057,5.3203,5.3203,5.3203,5.3203,5.3203,5.3203,5.3203,5.3203,5.3203,5.1818,5.252,5.3092,5.2969,5.3774,5.4381,5.3413,5.2101,5.1019,5.0678,4.9763,4.912,4.9526,5.0202,5.0811,5.1217,5.186,5.23,5.23,5.2976,5.3518,5.3518,5.3518,5.3957,5.5074,5.5513,5.6021,5.6731,5.6122,5.5547,5.5141,5.4093,5.3518,5.3518,5.3518,5.3281,5.2875,5.3281,5.3315,5.2942,5.3315,5.3518,5.3518,5.3518,5.3518,5.3518,5.3518,5.3518,5.3518,5.3518,5.3044,5.23,5.253,5.2311,5.1959,5.2402,5.2652,5.2784,5.2569,5.248,5.248,5.248,5.248,5.248,5.248,5.248,5.2503,5.2549,5.2581,5.2635,5.285,5.2937,5.3002,5.3146,5.3203,5.3203,5.3203,5.3203,5.3203,5.3203,5.3203,5.3203,5.3203,5.3203,5.3203,5.3203,5.3203,5.3203,5.3203,5.3203,5.3203,5.3203,5.3203,5.3203,5.3203,5.3203,5.3203,5.3203,5.2858,5.2821,5.3167,5.3203,5.3203,5.3203,5.3203,5.3203,5.3203,5.3203,5.3203,5.3203,5.3203,5.3203,5.1191,5.1726,5.2331,5.2808,5.4054,5.4828,5.3584,5.2402,5.1383,5.0871,5.0023,4.9616,5.0362,5.1108,5.1822,5.2535,5.2636,5.2603,5.257,5.3112,5.3518,5.3518,5.3653,5.4262,5.5581,5.5886,5.6258,5.7002,5.6224,5.5446,5.4871,5.3991,5.3518,5.3518,5.3518,5.3213,5.2604,5.3179,5.3315,5.2976,5.3145,5.3145,5.2976,5.3145,5.3213,5.3247,5.3416,5.3518,5.3518,5.3518,5.2942,5.2063,5.2194,5.1843,5.123,5.1801,5.2156,5.2422,5.2473,5.248,5.248,5.2526,5.2503,5.248,5.2526,5.2503,5.248,5.2526,5.2559,5.2635,5.2893,5.298,5.3082,5.3203,5.3203,5.3203,5.3203,5.3203,5.3203,5.3203,5.3203,5.3203,5.3203,5.3203,5.3203,5.3203,5.3203,5.3203,5.3203,5.3203,5.3203,5.3203,5.3203,5.3203,5.3203,5.3203,5.3203,5.3203,5.3203,5.3203,5.3203,5.3203,5.3203,5.3203,5.3203,5.3203,5.3203,5.3203,5.3203,5.3203,5.3203,5.3203,5.0292,5.0794,5.1294,5.2001,5.328,5.4224,5.3754,5.3072,5.2527,5.2652,5.1523,5.0735,5.152,5.2306,5.2961,5.3513,5.3582,5.3583,5.3416,5.345,5.3518,5.3518,5.4093,5.4837,5.5649,5.6325,5.7036,5.7746,5.6494,5.5647,5.5649,5.4296,5.3518,5.3518,5.3518,5.3484,5.3416,5.3484,5.2773,5.1354,5.2063,5.2029,5.1388,5.2063,5.2401,5.2435,5.3179,5.3518,5.3518,5.3518,5.2638,5.1285,5.1285,5.0626,4.9727,5.0502,5.1017,5.1428,5.2222,5.248,5.2503,5.2581,5.2536,5.2503,5.2581,5.2536,5.2503,5.2581,5.259,5.2635,5.2783,5.2995,5.3203,5.3203,5.3203,5.3203,5.3203,5.3203,5.3203,5.3203,5.3203,5.3203,5.3203,5.3203,5.3203,5.3203,5.3203,5.3203,5.3203,5.3203,5.3203,5.3203,5.3203,5.3203,5.3203,5.3203,5.3203,5.3203,5.3203,5.3203,5.3203,5.3203,5.3203,5.3203,5.3203,5.3203,5.3203,5.3203,5.3203,5.3203,5.3203,5.3203,4.9792,5.0089,5.0551,5.152,5.2162,5.2771,5.3548,5.299,5.252,5.3222,5.2701,5.2416,5.3123,5.3359,5.3563,5.3969,5.3979,5.3783,5.3517,5.3518,5.3687,5.4126,5.4431,5.5074,5.6292,5.663,5.6934,5.7205,5.6292,5.5513,5.504,5.4059,5.3518,5.3518,5.3518,5.3281,5.2773,5.3247,5.2739,5.1185,5.2469,5.2909,5.2638,5.2942,5.3044,5.3078,5.3382,5.3518,5.3518,5.3518,5.2604,5.1083,5.0202,4.9709,4.959,5.0369,5.092,5.1296,5.2186,5.2526,5.2581,5.259,5.2649,5.2708,5.2613,5.2568,5.2559,5.2536,5.2627,5.2761,5.2893,5.3017,5.3103,5.3203,5.3203,5.3203,5.3203,5.3203,5.3203,5.3203,5.3203,5.3203,5.3203,5.3203,5.3203,5.3203,5.3203,5.3203,5.3203,5.3203,5.3203,5.3203,5.3203,5.3203,5.3203,5.3203,5.3203,5.3203,5.3203,5.3203,5.3203,5.3203,5.3203,5.3203,5.3203,5.3203,5.3203,5.3203,5.3203,5.3203,5.3203,5.3203,4.9221,4.9414,4.9803,5.0595,5.1055,5.1791,5.3423,5.3191,5.3008,5.4047,5.4116,5.3958,5.4,5.4192,5.4286,5.4133,5.4161,5.4078,5.3718,5.3651,5.3923,5.4567,5.4906,5.5516,5.6697,5.6799,5.6799,5.6799,5.5919,5.5141,5.4634,5.389,5.3518,5.3518,5.3518,5.3247,5.2672,5.3213,5.2841,5.1589,5.2875,5.3247,5.2773,5.301,5.301,5.2807,5.301,5.301,5.2773,5.2773,5.2029,5.0744,4.9492,4.9199,4.959,5.0369,5.092,5.1331,5.2233,5.2559,5.2613,5.268,5.2761,5.2783,5.2761,5.2717,5.2672,5.2618,5.2672,5.2828,5.2959,5.3039,5.3082,5.3203,5.3203,5.3203,5.3203,5.3203,5.3203,5.3203,5.3203,5.3203,5.3203,5.3203,5.3203,5.3203,5.3203,5.3203,5.3203,5.3203,5.3203,5.3203,5.3203,5.3203,5.3203,5.3203,5.3203,5.3203,5.3203,5.3203,5.3203,5.3203,5.3203,5.3203,5.3203,5.3203,5.3203,5.3203,5.3203,5.3203,5.3203,5.3203,4.8515,4.8736,4.9015,4.9168,5.0168,5.1603,5.349,5.3868,5.4166,5.5443,5.5786,5.5405,5.3812,5.4726,5.5273,5.3938,5.4283,5.4554,5.4078,5.4013,5.4221,5.4737,5.5519,5.6231,5.6731,5.6799,5.6799,5.6799,5.5412,5.46,5.4566,5.389,5.3518,5.3518,5.3518,5.3518,5.3484,5.3484,5.3078,5.23,5.3112,5.2706,5.1251,5.1961,5.1928,5.1219,5.1995,5.1894,5.1185,5.1185,5.0777,5.0033,4.9289,4.9199,4.959,5.0369,5.092,5.1322,5.2255,5.259,5.2635,5.2915,5.2893,5.2828,5.2937,5.2893,5.2806,5.2806,5.2806,5.2828,5.2959,5.3103,5.3203,5.3203,5.3203,5.3203,5.3203,5.3203,5.3203,5.3203,5.3203,5.3203,5.3203,5.3203,5.3203,5.3203,5.3203,5.3203,5.3203,5.3203,5.3203,5.3203,5.3203,5.3203,5.3203,5.3203,5.3203,5.3203,5.3203,5.3203,5.3203,5.3203,5.3203,5.3203,5.3203,5.3203,5.3203,5.3203,5.3203,5.3203,5.3203,5.3203,4.8515,4.8736,4.9182,4.9998,5.1137,5.2467,5.3969,5.4557,5.5158,5.6491,5.6335,5.5821,5.5353,5.5434,5.5419,5.478,5.5164,5.5402,5.5044,5.5286,5.545,5.5302,5.579,5.6098,5.6021,5.6055,5.5818,5.5277,5.4837,5.4363,5.3856,5.3619,5.3518,5.3518,5.3518,5.3247,5.2672,5.2672,5.23,5.1555,5.1792,5.1928,5.1995,5.2807,5.2739,5.1995,5.2198,5.1894,5.1183,5.0642,5.0304,5.0033,4.9289,4.9199,4.959,5.0369,5.092,5.1322,5.2255,5.2635,5.2783,5.2937,5.3039,5.306,5.3039,5.2959,5.2915,5.2828,5.285,5.2937,5.298,5.3103,5.3203,5.3203,5.3203,5.3203,5.3203,5.3203,5.3203,5.3203,5.3203,5.3203,5.3203,5.3203,5.3203,5.3203,5.3203,5.3203,5.3203,5.3203,5.3203,5.3203,5.3203,5.3203,5.3203,5.3203,5.3203,5.3203,5.3203,5.3203,5.3203,5.3203,5.3203,5.3203,5.3203,5.3203,5.3203,5.3203,5.3203,5.3203,5.3203,5.3203,4.8416,4.8971,4.9619,5.04,5.1928,5.3602,5.5229,5.5758,5.6139,5.7004,5.679,5.6355,5.6066,5.6071,5.5949,5.5312,5.5703,5.6057,5.6088,5.6245,5.633,5.6168,5.6393,5.6336,5.5856,5.555,5.5143,5.4634,5.4329,5.3957,5.3518,5.3518,5.3518,5.3518,5.3518,5.3112,5.23,5.23,5.1792,5.0777,5.1082,5.1285,5.1454,5.2232,5.2164,5.142,5.1116,5.0744,5.0304,4.9864,4.9661,4.9627,4.9187,4.9199,4.959,5.0369,5.092,5.1322,5.2338,5.2739,5.2828,5.3039,5.3124,5.3167,5.3103,5.3082,5.306,5.2995,5.3017,5.3082,5.3082,5.3124,5.3203,5.3203,5.3203,5.3203,5.3203,5.3203,5.3203,5.3203,5.3203,5.3203,5.3203,5.3203,5.3203,5.3203,5.3203,5.3203,5.3203,5.3203,5.3203,5.3203,5.3203,5.3203,5.3203,5.3203,5.3203,5.3203,5.3203,5.3203,5.3203,5.3203,5.3203,5.3203,5.3203,5.3203,5.3203,5.3203,5.3203,5.3203,5.3203,5.3203,4.8216,4.9207,5.0195,5.0673,5.2656,5.4938,5.6835,5.7134,5.7036,5.7163,5.7188,5.6971,5.6247,5.6617,5.6717,5.5737,5.6081,5.6668,5.7164,5.7104,5.7057,5.7231,5.7051,5.6665,5.5928,5.5145,5.4635,5.4533,5.389,5.3518,5.3518,5.3518,5.3518,5.3518,5.345,5.3044,5.23,5.2164,5.142,5.0101,5.071,5.0642,5.0033,5.0845,5.0811,5.0067,4.9323,4.9018,4.9018,4.9018,4.9018,4.9018,4.9018,4.9199,4.959,5.0369,5.092,5.1347,5.2431,5.2806,5.2828,5.3103,5.3203,5.3203,5.3203,5.3203,5.3203,5.3203,5.3203,5.3203,5.3203,5.3203,5.3203,5.3203,5.3203,5.3203,5.3203,5.3203,5.3203,5.3203,5.3203,5.3203,5.3203,5.3203,5.3203,5.3203,5.3203,5.3203,5.3203,5.3203,5.3203,5.3203,5.3203,5.3203,5.3203,5.3203,5.3203,5.3203,5.3203,5.3203,5.3203,5.3203,5.3203,5.3203,5.3203,5.3203,5.3203,5.3203,5.3203,5.3203,5.3203,5.3203,4.7613,4.8837,5.0466,5.2036,5.4348,5.6516,5.7595,5.7402,5.7036,5.7163,5.7188,5.7152,5.6971,5.7054,5.7102,5.6845,5.7469,5.7995,5.8087,5.8385,5.8323,5.7548,5.6987,5.6168,5.4881,5.4386,5.4055,5.3754,5.3585,5.3518,5.3518,5.3518,5.3518,5.3518,5.2875,5.2469,5.23,5.115,5.0405,5.0067,4.9661,4.939,4.9289,5.0608,5.0811,5.0067,4.9323,4.9018,4.9018,4.9018,4.9018,4.9018,4.9018,4.9199,4.959,5.0369,5.092,5.1347,5.2431,5.2806,5.2828,5.3103,5.3203,5.3203,5.3203,5.3203,5.3203,5.3203,5.3203,5.3203,5.3203,5.3203,5.3203,5.3203,5.3203,5.3203,5.3203,5.3203,5.3203,5.3203,5.3203,5.3203,5.3203,5.3203,5.3203,5.3203,5.3203,5.3203,5.3203,5.3203,5.3203,5.3203,5.3203,5.3203,5.3203,5.3203,5.3203,5.3203,5.3203,5.3203,5.3203,5.3203,5.3203,5.3203,5.3203,5.3203,5.3203,5.3203,5.3203,5.3203,5.3203,5.3203,4.7713,4.9241,5.1176,5.3562,5.5293,5.6651,5.7517,5.7245,5.6855,5.7138,5.7188,5.7188,5.7188,5.7188,5.7188,5.7188,5.7876,5.8528,5.8927,5.9114,5.9006,5.8264,5.7397,5.622,5.4683,5.4269,5.3915,5.3551,5.3518,5.3518,5.3518,5.3518,5.3518,5.3518,5.2706,5.2131,5.1792,5.0642,4.9898,4.956,4.9187,4.9018,4.9052,4.9796,4.9932,4.956,4.9187,4.9018,4.9018,4.9018,4.9018,4.9018,4.9018,4.9199,4.959,5.0369,5.092,5.1347,5.2431,5.2806,5.2828,5.3103,5.3203,5.3203,5.3203,5.3203,5.3203,5.3203,5.3203,5.3203,5.3203,5.3203,5.3203,5.3203,5.3203,5.3203,5.3203,5.3203,5.3203,5.3203,5.3203,5.3203,5.3203,5.3203,5.3203,5.3203,5.3203,5.3203,5.3203,5.3203,5.3203,5.3203,5.3203,5.3203,5.3203,5.3203,5.3203,5.3203,5.3203,5.3203,5.3203,5.3203,5.3203,5.3203,5.3203,5.3203,5.3203,5.3203,5.3203,5.3203,5.3203,5.3203,4.7715,4.9813,5.2259,5.4789,5.5897,5.6505,5.7127,5.6962,5.6797,5.7072,5.7163,5.7188,5.7188,5.7188,5.7261,5.7369,5.8094,5.8854,5.9506,5.9509,5.9276,5.8852,5.7726,5.6405,5.493,5.4491,5.4011,5.3517,5.3518,5.3518,5.3518,5.3518,5.345,5.3315,5.2536,5.1758,5.1014,5.027,4.9593,4.9018,4.9018,4.9018,4.9018,4.9018,4.9018,4.9018,4.9018,4.9018,4.9018,4.9018,4.9018,4.9018,4.9018,4.9199,4.959,5.0369,5.092,5.1347,5.2431,5.2806,5.2828,5.3103,5.3203,5.3203,5.3203,5.3203,5.3203,5.3203,5.3203,5.3203,5.3203,5.3203,5.3203,5.3203,5.3203,5.3203,5.3203,5.3203,5.3203,5.3203,5.3203,5.3203,5.3203,5.3203,5.324,5.3408,5.3408,5.3482,5.3592,5.3482,5.3408,5.3408,5.3277,5.3203,5.3203,5.3203,5.3203,5.3203,5.3203,5.3203,5.3203,5.3203,5.3203,5.3203,5.3203,5.3203,5.3203,5.3203,5.3203,5.3203,5.3203,5.3203,4.6098,4.9811,5.3649,5.4869,5.6499,5.761,5.6781,5.6905,5.7148,5.6894,5.7036,5.7188,5.7188,5.7188,5.7442,5.813,5.8927,5.947,5.9579,5.9589,5.9309,5.8559,5.7326,5.6184,5.5373,5.4803,5.4175,5.3551,5.3518,5.3518,5.3518,5.3518,5.3179,5.2469,5.1758,5.1014,5.0236,4.9526,4.9086,4.9018,4.9018,4.9018,4.9018,4.9018,4.9018,4.9018,4.9018,4.9018,4.9018,4.9018,4.9018,4.9018,4.9018,4.9199,4.959,5.0369,5.092,5.1347,5.2431,5.2806,5.2828,5.3103,5.3203,5.3203,5.3203,5.3203,5.3203,5.3203,5.3203,5.3203,5.3203,5.3203,5.3203,5.3203,5.3203,5.3203,5.3203,5.3203,5.3203,5.3203,5.3203,5.3203,5.3203,5.3203,5.3445,5.4142,5.4252,5.4473,5.517,5.4656,5.4252,5.4252,5.3628,5.3203,5.3203,5.3203,5.3203,5.3203,5.3203,5.3203,5.3203,5.3203,5.3203,5.3203,5.3203,5.3203,5.3203,5.3203,5.3203,5.3203,5.3203,5.3203,4.7488,5.1057,5.4262,5.5178,5.6508,5.75,5.724,5.685,5.6694,5.7053,5.6984,5.6907,5.7163,5.7188,5.7442,5.8275,5.9072,5.976,6.0231,5.9905,5.947,5.9108,5.7487,5.6162,5.5461,5.4865,5.4242,5.3551,5.3518,5.3518,5.3518,5.3518,5.3145,5.2334,5.1589,5.0845,5.0101,4.9357,4.9018,4.9018,4.9018,4.9018,4.9018,4.9018,4.9018,4.9018,4.9018,4.9018,4.9018,4.9018,4.9018,4.9018,4.9018,4.9199,4.959,5.0369,5.092,5.1347,5.2431,5.2806,5.2828,5.3103,5.3203,5.3203,5.3203,5.3203,5.3203,5.3203,5.3203,5.3203,5.3203,5.3203,5.3203,5.3203,5.3203,5.3203,5.3203,5.3203,5.3203,5.3203,5.3203,5.3203,5.3203,5.3203,5.3482,5.4289,5.4399,5.4693,5.55,5.528,5.506,5.506,5.4766,5.4546,5.4546,5.4546,5.4546,5.4546,5.4546,5.4546,5.4546,5.4546,5.4546,5.4546,5.3665,5.3203,5.3203,5.3203,5.3203,5.3203,5.3203,5.3203,4.8125,5.1027,5.3414,5.4767,5.5821,5.6677,5.7192,5.6764,5.6435,5.7034,5.6942,5.6842,5.7046,5.7138,5.7514,5.8528,5.9216,5.9905,6.0701,6.0122,5.9542,5.9325,5.7559,5.6162,5.5461,5.4865,5.4242,5.3551,5.3518,5.3416,5.3213,5.3213,5.2739,5.1758,5.1217,5.0574,4.983,4.9255,4.9018,4.9018,4.9018,4.9018,4.9018,4.9018,4.9018,4.9018,4.9018,4.9018,4.9018,4.9018,4.9018,4.9018,4.9018,4.9199,4.959,5.0349,5.084,5.1296,5.2338,5.2717,5.2806,5.3103,5.3203,5.3203,5.3203,5.3203,5.3203,5.3203,5.3203,5.3203,5.3203,5.3203,5.3203,5.3203,5.3203,5.3203,5.3203,5.3203,5.3203,5.3203,5.3203,5.3203,5.3203,5.3203,5.3555,5.4546,5.4693,5.506,5.6088,5.6014,5.5904,5.5904,5.5721,5.5596,5.5596,5.5596,5.5596,5.5596,5.5596,5.5596,5.5596,5.5596,5.5596,5.5596,5.4216,5.3518,5.3518,5.3298,5.3203,5.3203,5.3203,5.3203,4.6288,4.8328,5.0424,5.2741,5.4194,5.5247,5.6099,5.6637,5.688,5.658,5.6946,5.7191,5.6867,5.701,5.7695,5.9289,5.9579,5.9905,6.0701,6.0122,5.9325,5.8565,5.7236,5.6162,5.5461,5.4865,5.4242,5.3551,5.3518,5.3179,5.2401,5.2367,5.1691,5.0236,5.0168,4.9796,4.9052,4.9018,4.9018,4.9018,4.9018,4.9018,4.9018,4.9018,4.9018,4.9018,4.9018,4.9018,4.9018,4.9018,4.9018,4.9018,4.9018,4.9199,4.956,5.0131,5.0597,5.114,5.2066,5.2499,5.2658,5.306,5.3203,5.3203,5.3203,5.3203,5.3203,5.3203,5.3203,5.3203,5.3203,5.3203,5.3203,5.3203,5.3203,5.3203,5.3203,5.3203,5.3203,5.3203,5.3203,5.3203,5.3203,5.3203,5.3739,5.528,5.5559,5.6088,5.7666,5.7226,5.6748,5.6748,5.6051,5.5596,5.5596,5.5596,5.5596,5.5596,5.5596,5.5596,5.5596,5.5596,5.5596,5.5596,5.4766,5.4326,5.4326,5.3592,5.3203,5.3203,5.3203,5.3203,4.443,4.6584,4.8829,5.1195,5.2809,5.3923,5.4364,5.5451,5.6231,5.5926,5.616,5.6605,5.7096,5.7126,5.7448,5.8647,5.9253,5.9905,6.0701,6.0557,6.0086,5.9289,5.799,5.6695,5.5496,5.4865,5.4242,5.3551,5.3518,5.3145,5.2334,5.23,5.1623,5.0135,5.0101,4.9729,4.9018,4.9018,4.9018,4.9018,4.9018,4.9018,4.9018,4.9018,4.9018,4.9018,4.9018,4.9018,4.9018,4.9018,4.9018,4.9018,4.9018,4.9107,4.9381,4.9844,5.0328,5.0884,5.1799,5.2291,5.2545,5.3039,5.3203,5.3203,5.3203,5.3203,5.3203,5.3203,5.3203,5.3203,5.3203,5.3203,5.3335,5.3849,5.3959,5.4106,5.462,5.3922,5.3203,5.3203,5.3203,5.3203,5.3203,5.3628,5.4326,5.5427,5.6051,5.6748,5.785,5.774,5.7556,5.7556,5.7299,5.7152,5.7152,5.7152,5.7152,5.7152,5.7152,5.7152,5.7152,5.7152,5.7152,5.7152,5.5831,5.4913,5.4399,5.3592,5.3203,5.3203,5.3203,5.3203,4.2752,4.4691,4.6815,4.9293,5.076,5.1933,5.3112,5.4364,5.5315,5.5648,5.6072,5.6575,5.7358,5.7239,5.7325,5.826,5.8854,5.9579,6.0665,6.0593,6.0303,6.005,5.878,5.737,5.5912,5.5212,5.4379,5.3212,5.3348,5.2942,5.1623,5.1792,5.1251,4.9763,4.9729,4.9492,4.9018,4.9018,4.9018,4.9018,4.9018,4.9018,4.9018,4.9018,4.9018,4.9018,4.9018,4.9018,4.9018,4.9018,4.9018,4.9018,4.9018,4.9077,4.926,4.9615,5.008,5.0667,5.1551,5.2066,5.2431,5.3017,5.3203,5.3203,5.3203,5.3203,5.3203,5.3203,5.3408,5.3592,5.3592,5.3812,5.4142,5.4693,5.4803,5.495,5.5464,5.4766,5.3995,5.3995,5.3812,5.3702,5.3959,5.4216,5.4766,5.5831,5.6455,5.7079,5.7886,5.7997,5.7997,5.7997,5.7997,5.7997,5.7997,5.7997,5.7997,5.7997,5.7997,5.7997,5.7997,5.7997,5.7997,5.7997,5.6418,5.5317,5.4803,5.3739,5.3203,5.3203,5.3203,5.3314,0.0,0.0,0.0,4.7013,4.8064,4.9219,5.2337,5.3348,5.4124,5.5792,5.657,5.7094,5.76,5.7304,5.7299,5.8238,5.8394,5.8937,6.0494,6.0059,5.9878,6.0675,5.9534,5.8117,5.6656,5.5942,5.4686,5.2501,5.3078,5.2503,5.0236,5.0811,5.0507,4.9052,4.9018,4.9018,4.9018,4.9018,4.9018,4.9018,4.9018,4.9018,4.9018,4.9018,4.9018,4.9018,4.9018,4.9018,4.9018,4.9018,4.9018,4.9018,4.9018,4.9077,4.9229,4.9411,4.9854,5.0509,5.1296,5.1848,5.2315,5.2995,5.3203,5.3203,5.3203,5.3203,5.3203,5.3203,5.3775,5.4399,5.4436,5.4987,5.5633,5.5633,5.5633,5.5647,5.5669,5.5647,5.5669,5.5633,5.495,5.4693,5.5464,5.495,5.4987,5.6565,5.6822,5.7116,5.7886,5.7997,5.7997,5.7997,5.7997,5.7997,5.7997,5.7997,5.7997,5.7997,5.7997,5.7997,5.7997,5.7997,5.7997,5.7997,5.6418,5.5633,5.5633,5.3995,5.3203,5.3203,5.3203,5.3665,3.9168,0.0,0.0,0.0,0.0,0.0,4.8776,5.092,5.2875,5.3991,5.5315,5.6576,5.7524,5.7297,5.7122,5.7694,5.7825,5.7988,5.8418,5.8741,5.9028,5.9243,5.8637,5.7857,5.7095,5.607,5.483,5.328,5.3382,5.2739,5.1014,5.0574,4.9965,4.9052,4.9018,4.9018,4.9018,4.9018,4.9018,4.9018,4.9018,4.9018,4.9018,4.9018,4.9018,4.9018,4.9018,4.9018,4.9018,4.9018,4.9018,4.9018,4.9018,4.9015,4.9046,4.9141,4.953,5.0137,5.0938,5.1615,5.2197,5.2974,5.3203,5.3203,5.3203,5.3203,5.3203,5.3203,5.3775,5.4509,5.5097,5.5449,5.5757,5.6345,5.6455,5.6638,5.7189,5.7336,5.6969,5.5853,5.5427,5.5317,5.5537,5.5904,5.6308,5.6748,5.7299,5.774,5.796,5.7997,5.7997,5.7997,5.7997,5.7997,5.7997,5.7997,5.7997,5.7997,5.7997,5.7997,5.7997,5.7997,5.7997,5.7997,5.7005,5.6455,5.6455,5.4289,5.3203,5.3203,5.3812,5.4179,3.7752,3.9164,4.0908,4.2558,0.0,0.0,4.7263,4.9219,5.1126,5.3011,5.4262,5.5451,5.6815,5.6637,5.6381,5.6732,5.6505,5.6617,5.7517,5.7723,5.79,5.8249,5.7963,5.7534,5.7059,5.5949,5.4664,5.3111,5.301,5.2334,5.0811,5.0338,4.9763,4.9018,4.9018,4.9018,4.9018,4.9018,4.9018,4.9018,4.9018,4.9018,4.9018,4.9018,4.9018,4.9018,4.9018,4.9018,4.9018,4.9018,4.9018,4.9018,4.9018,4.9018,4.9018,4.9018,4.935,4.9907,5.067,5.1302,5.1982,5.2761,5.306,5.3124,5.3167,5.3203,5.3203,5.3203,5.4032,5.517,5.6308,5.6602,5.6712,5.7189,5.7299,5.7446,5.7886,5.7997,5.7703,5.6785,5.6308,5.6198,5.6528,5.6712,5.6932,5.7262,5.7703,5.7997,5.7997,5.7997,5.7997,5.7997,5.7997,5.7997,5.7997,5.7997,5.7997,5.7997,5.7997,5.7997,5.7997,5.7997,5.7997,5.7997,5.7226,5.6492,5.5794,5.4399,5.3555,5.3203,5.4032,5.4583,3.7122,3.8433,4.0073,4.1266,4.2492,0.0,4.675,4.7833,4.9153,5.2203,5.3213,5.4023,5.5621,5.5515,5.5235,5.5363,5.4847,5.5104,5.7184,5.6856,5.668,5.7482,5.7342,5.7059,5.6667,5.5787,5.4429,5.257,5.2367,5.1725,5.0405,5.027,4.9864,4.9154,4.9052,4.9018,4.9018,4.9018,4.9018,4.9018,4.9018,4.9018,4.9018,4.9018,4.9018,4.9018,4.9018,4.9018,4.9018,4.9018,4.9018,4.9018,4.9018,4.9018,4.9018,4.9018,4.929,4.9762,5.0432,5.1052,5.1676,5.2477,5.285,5.3017,5.3146,5.3203,5.3261,5.3445,5.4509,5.5978,5.7556,5.7997,5.7997,5.7997,5.7997,5.7997,5.7997,5.7997,5.7997,5.7997,5.7409,5.7152,5.7886,5.7409,5.7189,5.7886,5.7997,5.7997,5.7997,5.7997,5.7997,5.7997,5.7997,5.7997,5.7997,5.7997,5.7997,5.7997,5.7997,5.7997,5.7997,5.7997,5.7997,5.7997,5.7299,5.6198,5.4656,5.4473,5.3995,5.3203,5.4106,5.4913,3.8107,3.8917,3.9868,4.055,4.1151,0.0,4.4171,4.5765,4.7505,5.0019,5.1561,5.274,5.3822,5.3923,5.3889,5.3888,5.3787,5.4256,5.5798,5.5859,5.6033,5.6794,5.6769,5.6571,5.6302,5.5996,5.5111,5.3382,5.2672,5.2164,5.1894,5.1319,5.0642,4.9898,4.9323,4.9018,4.9018,4.9018,4.9018,4.9018,4.9018,4.9018,4.9018,4.9018,4.9018,4.9018,4.9018,4.9018,4.9018,4.9018,4.9018,4.9018,4.9018,4.9018,4.9018,4.9018,4.9229,4.9619,5.0181,5.076,5.1398,5.2221,5.2649,5.2872,5.3124,5.3203,5.3482,5.4766,5.5354,5.5978,5.7556,5.7997,5.7997,5.7997,5.7997,5.7997,5.7997,5.7997,5.7997,5.7997,5.7886,5.7813,5.796,5.7886,5.7813,5.796,5.7997,5.7997,5.7997,5.7997,5.7997,5.7997,5.7997,5.7997,5.7997,5.7997,5.7997,5.7997,5.7997,5.7997,5.7997,5.7997,5.7997,5.7997,5.785,5.7299,5.6345,5.5023,5.3995,5.3203,5.4693,5.5427,3.8901,3.9523,4.0287,4.0614,4.1071,0.0,0.0,4.4657,4.6094,4.8265,4.9726,5.0928,5.19,5.2202,5.2268,5.2334,5.2367,5.2872,5.4324,5.4869,5.5381,5.6099,5.6133,5.6064,5.5961,5.5552,5.4601,5.301,5.2909,5.257,5.1792,5.142,5.0879,5.0101,4.939,4.9018,4.9018,4.9018,4.9018,4.9018,4.9018,4.9018,4.9018,4.9018,4.9018,4.9018,4.9018,4.9018,4.9018,4.9018,4.9018,4.9018,4.9018,4.9018,4.9018,4.9018,4.9199,4.959,5.0165,5.0714,5.1322,5.2102,5.2559,5.2828,5.3039,5.3439,5.4142,5.5757,5.6198,5.6432,5.7597,5.7857,5.7786,5.7739,5.7631,5.7607,5.7715,5.7763,5.781,5.781,5.781,5.7857,5.7973,5.7997,5.7997,5.7997,5.7997,5.7997,5.7997,5.7997,5.7997,5.7997,5.7997,5.7997,5.7997,5.7997,5.7997,5.7997,5.7997,5.7997,5.7997,5.7997,5.7997,5.7997,5.7997,5.7593,5.6822,5.6014,5.517,5.4436,5.5647,5.6198,3.9798,4.0297,4.0872,4.0952,4.1387,4.2076,0.0,0.0,0.0,4.661,4.7832,4.8894,4.9926,5.0291,5.0553,5.0713,5.0913,5.1488,5.2875,5.3687,5.4499,5.5378,5.5513,5.5513,5.5513,5.4938,5.4025,5.2638,5.2976,5.2739,5.1488,5.1285,5.1014,5.0541,4.9661,4.9221,4.9221,4.9086,4.9018,4.9018,4.9018,4.9018,4.9018,4.9018,4.9018,4.9018,4.9018,4.9018,4.9018,4.9018,4.9018,4.9018,4.9018,4.9018,4.9018,4.9018,4.9199,4.956,5.02,5.0721,5.1305,5.2066,5.2536,5.2886,5.3142,5.3799,5.473,5.6345,5.6822,5.696,5.7591,5.7631,5.7461,5.7313,5.7163,5.7087,5.7239,5.7412,5.751,5.751,5.751,5.7583,5.7881,5.7927,5.7927,5.795,5.7973,5.7997,5.7997,5.7997,5.7997,5.7997,5.7997,5.7997,5.7997,5.7997,5.7997,5.7997,5.7997,5.7997,5.7997,5.7997,5.7997,5.7997,5.7997,5.7666,5.7042,5.7042,5.6528,5.5611,5.6418,5.6822,4.1145,4.1242,4.1302,4.134,4.1528,4.1856,4.2406,0.0,4.4095,4.4932,0.0,4.706,4.7803,0.0,0.0,4.9162,4.9796,5.0507,5.132,5.2097,5.3112,5.4532,5.4702,5.4702,5.4702,5.4634,5.4262,5.3416,5.2807,5.2367,5.2198,5.1555,5.1488,5.2029,5.071,4.9965,4.9965,4.9323,4.9018,4.9018,4.9018,4.9018,4.9018,4.9018,4.9018,4.9018,4.9018,4.9018,4.9018,4.9018,4.9018,4.9018,4.9018,4.9018,4.9018,4.9018,4.9199,4.959,5.0131,5.0632,5.114,5.1946,5.2545,5.3105,5.3859,5.4217,5.473,5.6345,5.6822,5.6937,5.7496,5.7376,5.7091,5.6835,5.6572,5.6465,5.6704,5.6964,5.7141,5.7239,5.7202,5.7277,5.7583,5.7667,5.7715,5.781,5.7927,5.7997,5.7997,5.7997,5.7997,5.7997,5.7997,5.7997,5.7997,5.7997,5.7997,5.7997,5.7997,5.7997,5.7997,5.7997,5.7997,5.7997,5.7997,5.796,5.785,5.785,5.7079,5.5611,5.6418,5.6822,4.2521,4.2521,4.2521,4.2521,4.2338,4.2304,4.2612,4.3118,4.3513,4.3622,0.0,0.0,0.0,0.0,0.0,0.0,4.8736,4.9603,5.0347,5.0781,5.1758,5.3721,5.4329,5.46,5.46,5.4194,5.3822,5.3518,5.2739,5.2503,5.2976,5.186,5.1555,5.2266,5.0845,5.0101,5.0101,4.9357,4.9018,4.9018,4.9018,4.9018,4.9018,4.9018,4.9018,4.9018,4.9018,4.9018,4.9018,4.9018,4.9018,4.9018,4.9018,4.9018,4.9052,4.9492,4.9845,5.024,5.0795,5.1304,5.1847,5.2738,5.3212,5.3717,5.5167,5.5683,5.6051,5.7189,5.7483,5.7487,5.7582,5.7388,5.7051,5.6714,5.6339,5.6118,5.6347,5.6528,5.6661,5.6697,5.6661,5.6714,5.6855,5.7138,5.7401,5.7631,5.7881,5.7997,5.7997,5.7997,5.7997,5.7997,5.7997,5.7997,5.7997,5.7997,5.7997,5.7997,5.7997,5.7997,5.7997,5.7997,5.7997,5.7997,5.7997,5.7997,5.7997,5.7997,5.7629,5.7005,5.7336,5.7483,4.329,4.329,4.329,4.329,4.3049,4.2844,4.2968,4.3039,4.3076,4.3186,4.3809,0.0,0.0,0.0,4.6713,4.7373,0.0,4.8716,4.9478,4.9704,5.0543,5.2638,5.3721,5.4194,5.3991,5.3687,5.3416,5.3179,5.2266,5.2131,5.3112,5.1928,5.1657,5.2604,5.1386,5.071,5.071,4.9763,4.9289,4.9289,4.9086,4.9018,4.9018,4.9018,4.9018,4.9018,4.9018,4.9018,4.9018,4.9018,4.9018,4.9018,4.9018,4.912,4.9357,4.9898,5.0422,5.0963,5.1291,5.1654,5.2086,5.3046,5.3508,5.4034,5.5905,5.6626,5.6969,5.7776,5.7997,5.795,5.7655,5.7388,5.7087,5.6617,5.6126,5.5815,5.5964,5.6042,5.6063,5.6162,5.6098,5.6063,5.6162,5.6555,5.7025,5.7388,5.7715,5.7904,5.795,5.7973,5.7997,5.7997,5.7997,5.7997,5.7997,5.7997,5.7973,5.7904,5.7904,5.7904,5.7904,5.7927,5.7973,5.7997,5.7997,5.7997,5.7997,5.7997,5.7997,5.7997,5.7997,5.7997,4.329,4.329,4.329,4.329,4.329,4.326,4.3299,4.286,4.2809,4.3998,4.4116,4.4525,4.6307,4.6642,4.7048,4.8081,4.7933,0.0,0.0,4.8834,4.947,5.1083,5.2604,5.3247,5.2469,5.3078,5.3179,5.2401,5.098,5.0811,5.2266,5.1623,5.1894,5.3416,5.2672,5.2232,5.2232,5.0777,5.0067,5.0067,4.9357,4.9018,4.9018,4.9018,4.9018,4.9018,4.9018,4.9018,4.9018,4.9018,4.9018,4.9018,4.9018,4.9424,5.0067,5.0067,5.0762,5.1617,5.1312,5.1242,5.1395,5.2323,5.2982,5.3773,5.5632,5.651,5.6969,5.7776,5.7997,5.795,5.7655,5.7351,5.6964,5.6447,5.5865,5.5432,5.5531,5.5467,5.5432,5.5531,5.5496,5.5432,5.5531,5.5986,5.6474,5.6933,5.7338,5.7655,5.781,5.7927,5.7997,5.7997,5.7997,5.7997,5.7997,5.7997,5.7904,5.7607,5.7607,5.7607,5.7607,5.7763,5.7881,5.7997,5.7997,5.7997,5.7997,5.7997,5.7997,5.7997,5.7997,5.7997,4.4548,4.4427,4.4388,4.4258,4.3888,4.3397,4.283,4.318,4.3539,4.3159,4.3737,4.4507,4.4986,4.5718,4.6508,4.7004,4.769,4.8232,0.0,4.8801,4.9125,4.9664,5.0202,5.098,5.2198,5.2097,5.23,5.3044,5.1217,5.0744,5.2232,5.1623,5.1691,5.2672,5.2435,5.23,5.23,5.0845,5.0101,5.0067,4.9357,4.9018,4.9018,4.9018,4.9018,4.9018,4.9018,4.9018,4.9018,4.9018,4.9018,4.9018,4.9018,4.9763,5.0845,5.0845,5.1447,5.2316,5.2509,5.2427,5.2453,5.3608,5.4375,5.5105,5.6563,5.7253,5.7666,5.7923,5.7997,5.7973,5.7786,5.7583,5.7313,5.6776,5.6174,5.57,5.5531,5.5324,5.5139,5.5174,5.5139,5.5139,5.5174,5.5319,5.57,5.642,5.6974,5.7376,5.7631,5.7881,5.7997,5.7997,5.7997,5.7997,5.7997,5.7857,5.7607,5.7302,5.7313,5.7313,5.7277,5.7534,5.7786,5.7997,5.7997,5.7997,5.7997,5.7997,5.7997,5.7997,5.7997,5.7997,4.6167,4.5926,4.573,4.5443,4.491,4.4357,4.3588,4.3868,4.4197,4.3838,4.4338,4.492,4.5263,4.5935,4.6524,4.6812,4.7519,4.8121,0.0,4.8565,4.8714,4.8984,4.9221,4.9965,5.1386,5.1082,5.1352,5.2604,5.0845,5.0473,5.2198,5.1623,5.1691,5.2706,5.2739,5.2739,5.2739,5.1488,5.0879,5.0879,4.9864,4.939,4.939,4.912,4.9018,4.9018,4.9018,4.9154,4.939,4.939,4.956,4.9796,4.9796,5.0541,5.1589,5.1319,5.1756,5.253,5.2851,5.2712,5.2617,5.3969,5.4827,5.5646,5.6935,5.7631,5.7997,5.7997,5.7997,5.7973,5.7904,5.781,5.7583,5.7061,5.6474,5.5922,5.5561,5.5144,5.4807,5.4807,5.4807,5.4807,5.4807,5.4807,5.5109,5.5957,5.6492,5.6948,5.7264,5.7534,5.7703,5.7786,5.7834,5.7904,5.7997,5.7703,5.7388,5.6989,5.6984,5.6959,5.6809,5.7177,5.7534,5.7857,5.7904,5.795,5.7997,5.7997,5.7997,5.7997,5.7997,5.7997]}]]